[[{"header":{"parameterUnit":"m.s-1","parameterCategory":1,"la1":30.6,"la2":29.2853,"lo1":-89.7004,"lo2":-87.6739,"dy":0.0162,"dx":0.0183,"nx":112,"ny":82,"refTime":"2026-04-24T00:00:00:Z","depth":0,"parameterNumber":2,"parameterNumberName":"U-component_of_WINDS"},"data":[0.0,0.0,0.0,0.0,0.0,0.0,0.0,0.0,0.0,0.0,0.0,0.0,0.0,0.0,0.0,0.0,0.0,0.0,0.0,0.0,0.0,0.0,0.0,0.0,0.0,0.0,0.0,0.0,0.0,0.0,0.0,0.0,0.0,0.0,0.0,0.0,0.0,0.0,0.0,0.0,0.0,0.0,0.0,0.0,0.0,0.0,0.0,0.0,0.0,0.0,0.0,0.0,0.0,0.0,0.0,0.0,0.0,0.0,0.0,0.0,0.0,0.0,0.0,0.0,0.0,0.0,0.0,0.0,0.0,0.0,0.0,0.0,0.0,0.0,0.0,0.0,0.0,0.0,0.0,0.0,0.0,0.0,0.0,0.0,0.0,0.0,0.0,0.0,0.0,0.0,0.0,-2.6146,-2.9265,-3.0649,-2.9281,-2.8261,-2.5914,-2.1648,0.0,0.0,0.0,0.0,0.0,0.0,0.0,0.0,0.0,0.0,0.0,0.0,0.0,0.0,0.0,0.0,0.0,0.0,0.0,0.0,0.0,0.0,0.0,0.0,0.0,0.0,0.0,0.0,0.0,0.0,0.0,0.0,0.0,0.0,0.0,0.0,0.0,0.0,0.0,0.0,0.0,0.0,0.0,0.0,0.0,0.0,0.0,0.0,0.0,0.0,0.0,0.0,0.0,0.0,0.0,0.0,0.0,0.0,0.0,0.0,0.0,0.0,0.0,0.0,0.0,0.0,0.0,0.0,0.0,0.0,0.0,0.0,0.0,0.0,0.0,0.0,0.0,0.0,0.0,0.0,0.0,0.0,0.0,0.0,0.0,0.0,0.0,0.0,0.0,0.0,0.0,0.0,0.0,0.0,0.0,0.0,0.0,0.0,0.0,0.0,0.0,0.0,0.0,0.0,-2.4676,-2.9351,-3.064,-3.0852,-3.0006,-2.8327,-2.5834,-2.2411,0.0,0.0,0.0,0.0,0.0,0.0,0.0,0.0,0.0,0.0,0.0,0.0,0.0,0.0,0.0,0.0,0.0,0.0,0.0,0.0,0.0,0.0,0.0,0.0,0.0,0.0,0.0,0.0,0.0,0.0,0.0,0.0,0.0,0.0,0.0,0.0,0.0,0.0,0.0,0.0,0.0,0.0,0.0,0.0,0.0,0.0,0.0,0.0,0.0,0.0,0.0,0.0,0.0,0.0,0.0,0.0,0.0,0.0,0.0,0.0,0.0,0.0,0.0,0.0,0.0,0.0,0.0,0.0,0.0,0.0,0.0,0.0,0.0,0.0,0.0,0.0,0.0,0.0,0.0,0.0,0.0,0.0,0.0,0.0,0.0,0.0,0.0,0.0,0.0,0.0,0.0,0.0,0.0,0.0,0.0,0.0,0.0,0.0,0.0,0.0,0.0,0.0,0.0,-2.4658,-2.6886,-3.0543,-3.1463,-3.1345,-3.0209,-2.8523,-2.606,-2.2638,-1.9758,0.0,0.0,0.0,0.0,0.0,0.0,0.0,0.0,0.0,0.0,0.0,0.0,0.0,0.0,0.0,0.0,0.0,0.0,0.0,0.0,0.0,0.0,0.0,0.0,0.0,0.0,0.0,0.0,0.0,0.0,0.0,0.0,0.0,0.0,0.0,0.0,0.0,0.0,0.0,0.0,0.0,0.0,0.0,0.0,0.0,0.0,0.0,0.0,0.0,0.0,0.0,0.0,0.0,0.0,0.0,0.0,0.0,0.0,0.0,0.0,0.0,0.0,0.0,0.0,0.0,0.0,0.0,0.0,0.0,0.0,0.0,0.0,0.0,0.0,0.0,0.0,0.0,0.0,0.0,0.0,0.0,0.0,0.0,0.0,0.0,0.0,0.0,0.0,0.0,0.0,0.0,0.0,0.0,0.0,0.0,0.0,0.0,0.0,0.0,0.0,0.0,0.0,-2.7607,-2.9362,-3.1244,-3.1955,-3.1853,-3.0717,-2.8737,-2.615,-2.2883,-1.9679,0.0,0.0,0.0,0.0,0.0,0.0,0.0,0.0,0.0,0.0,0.0,0.0,0.0,0.0,0.0,0.0,0.0,0.0,0.0,0.0,0.0,0.0,0.0,0.0,0.0,0.0,0.0,0.0,0.0,0.0,0.0,0.0,0.0,0.0,0.0,0.0,0.0,0.0,0.0,0.0,0.0,0.0,0.0,0.0,0.0,0.0,0.0,0.0,0.0,0.0,0.0,0.0,0.0,0.0,0.0,0.0,0.0,0.0,0.0,0.0,0.0,0.0,0.0,0.0,0.0,0.0,0.0,0.0,0.0,0.0,0.0,0.0,0.0,0.0,0.0,0.0,0.0,0.0,0.0,0.0,0.0,0.0,0.0,0.0,0.0,0.0,0.0,0.0,0.0,0.0,0.0,0.0,0.0,0.0,0.0,0.0,0.0,0.0,0.0,0.0,0.0,0.0,-2.834,-3.1307,-3.2137,-3.2259,-3.2259,-3.2158,-2.884,-2.5832,-2.3568,-1.9483,0.0,0.0,0.0,0.0,0.0,0.0,0.0,0.0,0.0,0.0,0.0,0.0,0.0,0.0,0.0,0.0,0.0,0.0,0.0,0.0,0.0,0.0,0.0,0.0,0.0,0.0,0.0,0.0,0.0,0.0,0.0,0.0,0.0,0.0,0.0,0.0,0.0,0.0,0.0,0.0,0.0,0.0,0.0,0.0,0.0,0.0,0.0,0.0,0.0,0.0,0.0,0.0,0.0,0.0,0.0,0.0,0.0,0.0,0.0,0.0,0.0,0.0,0.0,0.0,0.0,0.0,0.0,0.0,0.0,0.0,0.0,0.0,0.0,0.0,0.0,0.0,0.0,0.0,0.0,0.0,0.0,0.0,0.0,0.0,0.0,0.0,0.0,0.0,0.0,0.0,0.0,0.0,0.0,0.0,0.0,0.0,0.0,0.0,0.0,0.0,0.0,0.0,-2.8306,-3.0994,0.0,-3.2733,-3.278,-3.2327,-2.9754,-2.6821,-2.3715,0.0,0.0,0.0,0.0,0.0,0.0,0.0,0.0,0.0,0.0,0.0,0.0,0.0,0.0,0.0,0.0,0.0,0.0,0.0,0.0,0.0,0.0,0.0,0.0,0.0,0.0,0.0,0.0,0.0,0.0,0.0,0.0,0.0,0.0,0.0,0.0,0.0,0.0,0.0,0.0,0.0,0.0,0.0,0.0,0.0,0.0,0.0,0.0,0.0,0.0,0.0,0.0,0.0,0.0,0.0,0.0,0.0,0.0,0.0,0.0,0.0,0.0,0.0,0.0,0.0,0.0,0.0,0.0,0.0,0.0,0.0,0.0,0.0,0.0,0.0,0.0,0.0,0.0,0.0,0.0,0.0,0.0,0.0,0.0,0.0,0.0,0.0,0.0,0.0,0.0,0.0,0.0,0.0,0.0,0.0,0.0,0.0,0.0,0.0,0.0,0.0,0.0,-2.5117,-2.8745,-3.1414,0.0,-3.3085,-3.3186,-3.2679,-2.9736,-2.6654,-2.3683,0.0,0.0,0.0,0.0,0.0,0.0,0.0,0.0,0.0,0.0,0.0,0.0,0.0,0.0,0.0,0.0,0.0,0.0,0.0,0.0,0.0,0.0,0.0,0.0,0.0,0.0,0.0,0.0,0.0,0.0,0.0,0.0,0.0,0.0,0.0,0.0,0.0,0.0,0.0,0.0,0.0,0.0,0.0,0.0,0.0,0.0,0.0,0.0,0.0,0.0,0.0,0.0,0.0,0.0,0.0,0.0,0.0,0.0,0.0,0.0,0.0,0.0,0.0,0.0,0.0,0.0,0.0,0.0,0.0,0.0,0.0,0.0,0.0,0.0,0.0,0.0,0.0,0.0,0.0,0.0,0.0,0.0,0.0,0.0,0.0,0.0,0.0,0.0,0.0,0.0,0.0,0.0,0.0,0.0,0.0,0.0,0.0,0.0,0.0,0.0,0.0,0.0,-2.5284,-2.9847,-3.3009,-3.3363,-3.3423,-3.3423,-3.3423,-2.8619,-2.5012,0.0,0.0,0.0,0.0,0.0,0.0,0.0,0.0,0.0,0.0,0.0,0.0,0.0,0.0,0.0,0.0,0.0,0.0,0.0,0.0,0.0,0.0,0.0,0.0,0.0,0.0,0.0,0.0,0.0,0.0,0.0,0.0,0.0,0.0,0.0,0.0,0.0,0.0,0.0,0.0,0.0,0.0,0.0,0.0,0.0,0.0,0.0,0.0,0.0,0.0,0.0,0.0,0.0,0.0,0.0,0.0,0.0,0.0,0.0,0.0,0.0,0.0,0.0,0.0,0.0,0.0,0.0,0.0,0.0,0.0,0.0,0.0,0.0,0.0,0.0,0.0,0.0,0.0,0.0,0.0,0.0,0.0,0.0,0.0,0.0,0.0,0.0,0.0,0.0,0.0,0.0,0.0,0.0,0.0,0.0,0.0,0.0,0.0,0.0,0.0,0.0,0.0,0.0,-2.5862,-2.9492,-3.2162,-3.3275,-3.3423,-3.3423,-3.3423,-2.9548,-2.6202,-2.3984,0.0,0.0,0.0,0.0,0.0,0.0,0.0,0.0,0.0,0.0,0.0,0.0,0.0,0.0,0.0,0.0,0.0,0.0,0.0,0.0,0.0,0.0,0.0,0.0,0.0,0.0,0.0,0.0,0.0,0.0,0.0,0.0,0.0,0.0,0.0,0.0,0.0,0.0,0.0,0.0,0.0,0.0,0.0,0.0,0.0,0.0,0.0,0.0,0.0,0.0,0.0,0.0,0.0,0.0,0.0,0.0,0.0,0.0,0.0,0.0,0.0,0.0,0.0,0.0,0.0,0.0,0.0,0.0,0.0,0.0,0.0,0.0,0.0,0.0,0.0,0.0,0.0,0.0,0.0,0.0,0.0,0.0,0.0,0.0,0.0,0.0,0.0,0.0,0.0,0.0,0.0,0.0,0.0,0.0,0.0,0.0,0.0,0.0,0.0,0.0,0.0,0.0,-2.6166,-2.9585,-3.207,-3.3288,-3.3423,-3.3423,-3.3423,-2.9954,-2.6841,-2.4597,0.0,0.0,0.0,0.0,0.0,0.0,0.0,0.0,0.0,0.0,0.0,0.0,0.0,0.0,0.0,0.0,0.0,0.0,0.0,0.0,0.0,0.0,0.0,0.0,0.0,0.0,0.0,0.0,0.0,0.0,0.0,0.0,0.0,0.0,0.0,0.0,0.0,0.0,0.0,0.0,0.0,0.0,0.0,0.0,0.0,0.0,0.0,0.0,0.0,0.0,0.0,0.0,0.0,0.0,0.0,0.0,0.0,0.0,0.0,0.0,0.0,0.0,0.0,0.0,0.0,0.0,0.0,0.0,0.0,0.0,0.0,0.0,0.0,0.0,0.0,0.0,0.0,0.0,0.0,0.0,0.0,0.0,0.0,0.0,0.0,0.0,0.0,0.0,0.0,0.0,0.0,0.0,0.0,0.0,0.0,0.0,0.0,0.0,0.0,0.0,0.0,0.0,-2.6234,-2.9991,-3.2598,-3.3322,-3.3423,-3.3423,-3.3423,-2.9954,-2.7027,-2.5263,0.0,0.0,0.0,0.0,0.0,0.0,0.0,0.0,0.0,0.0,0.0,0.0,0.0,0.0,0.0,0.0,0.0,0.0,0.0,0.0,0.0,0.0,0.0,0.0,0.0,0.0,0.0,0.0,0.0,0.0,0.0,0.0,0.0,0.0,0.0,0.0,0.0,0.0,0.0,0.0,0.0,0.0,0.0,0.0,0.0,0.0,0.0,0.0,0.0,0.0,0.0,0.0,0.0,0.0,0.0,0.0,0.0,0.0,0.0,0.0,-2.6318,0.0,0.0,0.0,0.0,0.0,0.0,0.0,0.0,0.0,0.0,0.0,0.0,0.0,0.0,0.0,0.0,0.0,0.0,0.0,0.0,0.0,0.0,0.0,0.0,0.0,0.0,0.0,0.0,0.0,0.0,0.0,0.0,0.0,0.0,0.0,0.0,0.0,0.0,0.0,0.0,0.0,-2.6234,-2.9991,-3.2598,-3.3322,-3.3423,-3.3423,-3.3423,-2.9954,-2.7147,-2.5579,-2.174,0.0,0.0,0.0,0.0,0.0,0.0,0.0,0.0,0.0,0.0,0.0,0.0,0.0,0.0,0.0,0.0,0.0,0.0,0.0,0.0,0.0,0.0,0.0,0.0,0.0,0.0,0.0,0.0,0.0,0.0,0.0,0.0,0.0,0.0,0.0,0.0,0.0,0.0,0.0,0.0,0.0,0.0,0.0,0.0,0.0,0.0,0.0,0.0,0.0,0.0,0.0,0.0,0.0,0.0,0.0,0.0,0.0,0.0,0.0,0.0,-2.8662,0.0,0.0,0.0,0.0,0.0,0.0,0.0,0.0,0.0,0.0,0.0,0.0,0.0,0.0,0.0,0.0,0.0,0.0,0.0,0.0,0.0,0.0,0.0,0.0,0.0,0.0,0.0,0.0,0.0,0.0,0.0,0.0,0.0,0.0,0.0,0.0,0.0,0.0,0.0,0.0,-2.6759,-3.0194,-3.2733,-3.3795,-3.3626,-3.3423,-3.3423,-3.063,-2.8263,-2.6742,-2.3437,0.0,0.0,0.0,0.0,0.0,0.0,0.0,0.0,0.0,0.0,0.0,0.0,0.0,0.0,0.0,0.0,0.0,0.0,0.0,0.0,0.0,0.0,0.0,0.0,0.0,0.0,0.0,0.0,0.0,0.0,0.0,0.0,0.0,0.0,0.0,0.0,0.0,0.0,0.0,0.0,0.0,0.0,0.0,0.0,0.0,0.0,0.0,0.0,0.0,0.0,0.0,0.0,0.0,-3.5596,-3.6344,-3.7225,-3.6288,-3.6604,-3.7738,-3.4631,-3.3411,-3.3382,0.0,0.0,0.0,0.0,0.0,0.0,0.0,0.0,0.0,0.0,0.0,0.0,0.0,0.0,0.0,0.0,0.0,0.0,0.0,0.0,0.0,0.0,0.0,0.0,0.0,-2.9465,-2.9127,0.0,0.0,0.0,0.0,0.0,0.0,0.0,0.0,0.0,0.0,0.0,0.0,-2.7553,-3.0615,-3.3004,-3.4336,-3.3829,-3.3423,-3.3423,-3.1393,-2.9447,-2.7891,-2.5406,-2.2902,0.0,0.0,0.0,0.0,0.0,0.0,0.0,0.0,0.0,0.0,0.0,0.0,0.0,0.0,0.0,0.0,0.0,0.0,0.0,0.0,0.0,0.0,0.0,0.0,0.0,0.0,0.0,0.0,0.0,0.0,0.0,0.0,-2.2714,-2.3523,0.0,0.0,0.0,0.0,0.0,0.0,0.0,0.0,0.0,0.0,0.0,0.0,0.0,-3.3694,-3.5915,-3.7405,-3.8512,-3.9306,-4.0646,-4.1357,-4.1511,-4.1331,-4.1673,-4.2334,-4.1888,0.0,-3.5157,-3.3376,0.0,0.0,0.0,0.0,0.0,0.0,0.0,0.0,0.0,0.0,0.0,0.0,0.0,0.0,0.0,0.0,0.0,0.0,0.0,0.0,0.0,0.0,-3.1582,-3.1684,-3.136,-3.0852,0.0,-2.7469,-2.4695,-2.3105,-2.1211,0.0,0.0,0.0,0.0,0.0,0.0,0.0,-2.8434,-3.1427,-3.3558,-3.4404,-3.3829,-3.3423,-3.3423,-3.1393,-2.9447,-2.7891,-2.6826,-2.4966,-2.211,-2.1109,0.0,0.0,0.0,0.0,0.0,0.0,0.0,0.0,0.0,0.0,0.0,0.0,0.0,0.0,0.0,0.0,0.0,0.0,0.0,0.0,0.0,0.0,0.0,0.0,0.0,0.0,0.0,0.0,0.0,-2.2598,-2.4856,-2.5373,-2.5684,-2.5561,0.0,0.0,0.0,0.0,0.0,0.0,0.0,0.0,0.0,-3.5859,-3.6332,-3.7618,-3.9851,-4.1399,-4.2523,-4.3267,-4.4316,-4.4823,-4.4818,-4.481,-4.4888,-4.5113,-4.511,-4.3369,-4.036,-3.8012,-3.5865,-3.3884,0.0,0.0,0.0,0.0,-3.1529,-3.1698,-3.3389,-3.3728,0.0,0.0,0.0,0.0,0.0,0.0,0.0,0.0,0.0,0.0,0.0,0.0,0.0,-3.473,-3.4878,-3.4742,-3.3863,-3.207,-2.9668,0.0,-2.5439,-2.4289,-2.1854,0.0,0.0,0.0,0.0,0.0,-2.9924,-3.2442,-3.4303,-3.5047,-3.41,-3.3423,-3.3423,-3.1765,-3.0243,-2.9142,-2.7959,-2.6539,-2.4831,-2.2868,-2.0881,0.0,0.0,0.0,0.0,0.0,0.0,0.0,0.0,0.0,0.0,0.0,0.0,0.0,0.0,0.0,0.0,0.0,0.0,0.0,0.0,0.0,0.0,0.0,0.0,0.0,0.0,0.0,0.0,-2.5174,-2.69,-2.7565,-2.8733,-2.892,0.0,0.0,0.0,0.0,0.0,0.0,-3.5399,-3.6568,-3.8014,-3.9808,-4.0425,-4.1576,-4.3403,-4.4615,-4.5432,-4.6007,-4.6549,-4.6786,-4.6781,-4.6955,-4.6968,-4.6906,-4.7054,-4.6277,-4.4748,-4.195,-3.964,-3.7718,-3.5666,-3.4542,-3.4227,-3.5259,-3.5284,-3.5148,-3.7415,-3.7821,-3.7134,-3.5588,0.0,-3.366,-3.0461,0.0,0.0,0.0,0.0,-3.2645,-3.3931,-3.5194,-3.6343,-3.6941,-3.7516,-3.7584,-3.6445,-3.5622,-3.3863,0.0,-2.9127,-2.8333,-2.5354,0.0,0.0,0.0,0.0,-2.921,-3.1461,-3.3355,-3.4776,-3.5532,-3.4281,-3.3423,-3.3423,-3.2036,-3.0784,-2.9871,-2.8755,-2.7604,-2.6454,-2.412,-2.2343,-2.122,0.0,0.0,0.0,0.0,0.0,0.0,0.0,0.0,0.0,0.0,0.0,0.0,0.0,0.0,0.0,0.0,0.0,0.0,0.0,0.0,0.0,0.0,0.0,0.0,0.0,0.0,0.0,0.0,0.0,-3.1357,-3.2972,0.0,0.0,0.0,0.0,-3.5318,-3.6587,-3.8366,-4.0866,-4.1552,-4.2874,-4.5061,-4.5288,-4.5737,-4.6549,-4.665,-4.6718,-4.6752,-4.6786,-4.6786,-4.6815,-4.7479,-4.7738,-4.7792,-4.8403,-4.7895,-4.6404,-4.4079,-4.1886,-3.9867,-3.9063,-3.8285,-3.7743,-3.8464,-3.8734,-3.8734,-3.887,-3.8903,-3.8971,-3.9571,-3.8352,-3.6321,-3.4641,-3.3173,0.0,0.0,-3.4247,-3.5566,-3.6423,-3.7212,-3.7787,-3.7855,-3.7889,-3.7889,-3.7821,-3.7212,-3.578,0.0,-3.0987,-2.977,-2.8874,0.0,-2.7824,-2.8604,-2.9431,-3.0784,-3.3017,-3.3998,-3.4776,-3.5532,-3.4281,-3.3423,-3.3423,-3.2036,-3.0581,-2.9145,-2.8976,-2.7943,-2.5744,-2.4846,-2.3714,-2.2265,-1.9947,0.0,0.0,0.0,0.0,0.0,0.0,0.0,0.0,0.0,0.0,0.0,0.0,0.0,0.0,0.0,0.0,0.0,0.0,0.0,0.0,0.0,0.0,0.0,0.0,0.0,0.0,0.0,0.0,-3.5578,-3.7409,0.0,-3.6697,-3.7806,-3.8852,-3.9354,-4.2069,-4.3985,-4.4642,-4.6212,-4.7275,-4.7688,-4.7751,-4.812,-4.8861,-4.837,-4.8392,-4.8844,-4.8413,-4.8443,-4.8873,-4.9587,-4.9886,-4.9826,-5.0068,-4.9363,-4.794,-4.6647,-4.4868,-4.2922,-4.2151,-4.1651,-4.1448,-4.1745,-4.1847,-4.1779,-4.1271,-4.1102,-4.0933,-3.9774,-3.8531,-3.7415,-3.684,-3.6332,-3.6062,-3.6806,-3.7381,-3.7956,-3.8725,-3.9131,-3.9334,-3.9334,-3.9334,-3.9174,-3.87,-3.8396,-3.7753,-3.6197,-3.4303,-3.2408,-3.0717,-3.0548,-3.0615,-3.0465,-3.1461,-3.2679,-3.3931,-3.4742,-3.5318,-3.5566,-3.4281,-3.3423,-3.3423,-3.2036,-3.0784,-2.977,-2.9281,-2.8197,-2.6387,-2.5151,-2.4034,-2.3038,-2.1292,-1.9261,0.0,0.0,0.0,0.0,0.0,0.0,0.0,0.0,0.0,0.0,0.0,0.0,0.0,0.0,0.0,0.0,0.0,0.0,0.0,0.0,0.0,0.0,0.0,0.0,0.0,0.0,-3.718,-3.8956,-4.1063,-4.1789,-4.0459,-4.2286,-4.3626,-4.3721,-4.6576,-4.8231,-4.7967,-4.9339,-4.9991,-4.9591,-4.9397,-4.9633,-5.0368,-4.9657,-4.9513,-5.0004,-4.9809,-4.9693,-4.9693,-5.0903,-5.1258,-5.0988,-5.1225,-5.0498,-4.9149,-4.8398,-4.6996,-4.5263,-4.4485,-4.4045,-4.3809,-4.3809,-4.3639,-4.324,-4.2286,-4.2083,-4.1982,-4.0011,-3.9208,-3.8971,-3.8734,-3.8633,-3.8734,-3.9208,-3.9368,-3.9503,-3.9977,-4.0113,-4.0113,-4.0113,-4.0113,-3.9977,-3.9503,-3.9174,-3.887,-3.8362,-3.6637,-3.4709,-3.2983,-3.2882,-3.2903,-3.2374,-3.3152,-3.4032,-3.4776,-3.5295,-3.56,-3.56,-3.4506,-3.366,-3.3423,-3.2036,-3.0784,-2.9803,-2.9025,-2.7909,-2.6387,-2.5151,-2.4135,-2.341,-2.1684,-1.9824,-1.7783,0.0,0.0,0.0,0.0,0.0,0.0,0.0,0.0,0.0,0.0,0.0,0.0,0.0,0.0,0.0,0.0,0.0,0.0,0.0,0.0,0.0,0.0,0.0,-3.5027,-3.7696,-4.009,-4.1505,-4.3802,-4.4847,-4.3793,-4.6071,-4.7809,-4.8341,-4.9921,-5.0839,-5.0839,-5.0933,-5.0981,-5.0958,-5.0409,-5.0452,-5.1147,-5.0487,-5.0159,-5.0159,-5.0813,-5.0467,-4.9202,-5.1199,-5.1752,-5.1189,-5.179,-5.1286,-4.9963,-4.9226,-4.8095,-4.6752,-4.6007,-4.5263,-4.4649,-4.4615,-4.4079,-4.3172,-4.1779,-4.1711,-4.2049,-4.062,-4.0595,-4.1068,-4.0316,-4.0113,-4.0113,-4.0113,-4.0113,-4.0113,-4.0113,-4.0113,-4.0113,-4.0113,-4.0113,-4.0113,-4.0113,-3.9537,-3.9039,-3.9039,-3.7879,-3.6626,-3.5769,-3.5047,-3.4539,-3.4539,-3.4539,0.0,-3.5498,-3.56,-3.56,-3.56,-3.4945,-3.4201,-3.3457,-3.2036,-3.0548,-2.9077,-2.8213,-2.7114,-2.566,-2.488,-2.4135,-2.341,-2.1197,-1.9326,-1.7884,0.0,0.0,0.0,0.0,0.0,0.0,0.0,0.0,0.0,0.0,0.0,0.0,0.0,0.0,0.0,0.0,0.0,0.0,0.0,0.0,0.0,-3.4898,-3.7942,-3.8159,-4.1101,-4.3814,-4.5369,-4.7161,-4.817,-4.7939,-4.9105,-4.9964,-5.0085,-5.1096,-5.1683,-5.1683,-5.2233,-5.2316,-5.1788,-5.27,-5.3026,-5.27,-5.3135,-5.3345,-5.332,-5.2459,-5.2059,-5.2109,-5.2171,-5.2339,-5.259,-5.1752,-5.116,-5.069,-4.947,-4.8451,-4.7496,-4.621,-4.5568,-4.5331,-4.4818,-4.4079,-4.3341,-4.2936,-4.2591,-4.2151,-4.1204,-4.1035,-4.1068,-4.0316,-4.0113,-4.0113,-4.0113,-4.0113,-4.0113,-4.0113,-4.0113,-4.0113,-4.0113,-4.0113,-4.0113,-4.0113,-3.9943,-3.9808,-3.9808,-3.9063,-3.799,-3.6671,-3.6321,-3.5983,-3.5385,-3.5295,0.0,-3.5566,-3.56,-3.56,-3.56,-3.4945,-3.4201,-3.3457,-3.2036,-3.0548,-2.9077,-2.774,-2.659,-2.5642,-2.488,-2.4135,-2.341,-2.2245,-2.0927,0.0,0.0,0.0,0.0,0.0,0.0,0.0,0.0,0.0,0.0,0.0,0.0,0.0,0.0,0.0,0.0,0.0,0.0,0.0,0.0,0.0,0.0,-3.8521,-4.1251,-4.2466,-4.4382,-4.6305,-4.7939,-4.8967,-4.9664,-5.0068,-5.0839,-5.1316,-5.1316,-5.205,-5.2491,-5.2491,-5.2968,-5.3018,-5.2582,-5.3476,-5.3899,-5.3809,-5.4338,-5.4616,-5.4591,-5.4041,-5.3468,-5.2927,-5.3078,-5.2832,0.0,-5.1772,-5.1189,-5.0581,-4.9751,-4.9018,0.0,0.0,0.0,0.0,0.0,-4.4282,-4.3842,-4.3511,-4.3132,-4.2625,-4.1914,-4.1441,-4.1136,-4.0696,-4.035,-4.0113,-4.0113,-4.0113,-4.0113,-4.0113,-4.0113,-4.0113,-4.0113,-4.0113,-4.0113,-4.0113,-4.0113,-4.0113,-4.0113,-3.9774,0.0,-3.7946,-3.7202,-3.666,-3.6163,-3.5802,-3.56,-3.56,-3.56,-3.56,-3.56,-3.5194,-3.4675,-3.3931,-3.251,0.0,0.0,0.0,-2.6691,-2.5642,-2.488,0.0,0.0,0.0,0.0,0.0,0.0,0.0,0.0,-1.9688,-1.9418,0.0,0.0,0.0,0.0,0.0,0.0,0.0,0.0,0.0,0.0,0.0,0.0,0.0,0.0,0.0,0.0,-4.1742,-4.4196,-4.6855,-4.7333,-4.7939,-4.9427,-4.9757,-5.0161,-5.0875,-5.1646,-5.2123,-5.2123,-5.2821,-5.3203,-5.3203,0.0,0.0,0.0,0.0,-5.399,-5.465,-5.4882,-5.4967,-5.4967,-5.5477,-5.4772,-5.2914,-5.3942,-5.3315,-5.1457,-5.1851,-5.1241,-5.0004,-4.9919,-4.9551,-4.8951,-4.8176,-4.6993,-4.5635,-4.4987,-4.4682,-4.4513,-4.3775,0.0,0.0,-4.2658,-4.1982,-4.1441,-4.1271,-4.073,-4.0214,-4.0113,-4.0113,-4.0113,-4.0113,-4.0113,-4.0113,-4.0113,-4.0113,-4.0113,-4.0113,-4.0113,-4.0113,-4.0113,-4.0113,-3.991,-3.9242,-3.798,-3.6998,-3.6829,-3.6197,-3.5701,-3.56,-3.56,-3.56,-3.56,0.0,0.0,-3.4539,-3.3139,-3.1989,-3.1258,-2.9161,-2.7317,-2.5897,-2.532,-2.4948,-2.488,-2.488,-2.4846,-2.4745,-2.4745,-2.5151,-2.5761,-2.2279,-2.1772,0.0,0.0,0.0,0.0,0.0,0.0,0.0,0.0,0.0,0.0,0.0,0.0,0.0,0.0,0.0,-4.1687,-4.4509,-4.6707,-4.7883,-4.8673,-4.9243,-4.9574,-5.0749,-5.1573,-5.1756,-5.2491,-5.2968,-5.2968,-5.3115,-5.3203,-5.3203,-5.3812,0.0,-5.3291,-5.513,-5.5955,-5.5555,-5.6757,-5.7358,-5.7358,0.0,0.0,-5.5922,-5.4955,-5.3893,-5.2827,-5.1739,-5.0796,-4.9947,-4.9402,-4.9107,-4.8951,-4.8176,-4.6993,-4.5703,-4.5534,-4.5094,-4.4581,-4.4445,-4.4378,-4.4215,-4.3436,-4.3071,-4.2733,-4.1576,-4.1102,0.0,-4.0282,-4.0113,-4.0113,-4.0113,-4.0113,-4.0113,-4.0113,-4.0113,-4.0113,-4.0113,-4.0113,-4.0113,-4.0113,-4.0113,-4.0045,-3.991,-3.9165,-3.8159,-3.6998,-3.666,-3.6332,-3.5667,-3.56,-3.56,-3.56,-3.56,-3.5295,-3.4539,-3.3139,-3.1989,-3.1258,-2.9668,-2.8349,-2.7418,-2.7841,-2.7825,-2.7181,-2.7148,-2.686,-2.6251,-2.6251,-2.6657,-2.7317,-2.5423,-2.5067,0.0,0.0,0.0,0.0,0.0,0.0,0.0,0.0,0.0,0.0,0.0,-3.3707,-3.6681,0.0,-4.128,-4.4489,-4.5911,-4.7189,-4.8708,-4.9664,-5.0178,-5.0178,-5.1242,-5.216,-5.2564,-5.2968,-5.3203,-5.3203,-5.3203,-5.3408,-5.3775,-5.4179,-5.4428,-5.4483,-5.5988,-5.6669,-5.635,-5.7436,-5.7997,-5.7997,-5.7631,-5.7231,-5.6806,-5.6006,-5.4625,-5.2812,-5.2033,-5.0885,-4.9462,-4.9138,-4.9018,-4.8951,-4.8612,-4.7767,-4.6718,-4.5974,-4.5466,-4.5094,-4.475,-4.4615,-4.4547,-4.4113,-4.3741,-4.3172,-4.2083,-4.1508,-4.1035,-4.0316,-4.0113,-4.0113,-4.0113,-4.0113,-4.0113,-4.0113,-4.0113,-4.0113,-4.0113,-4.0113,-4.0113,-4.0113,-4.0113,-4.0113,-4.0113,-3.9808,-3.9199,-3.8082,-3.7269,-3.666,-3.6265,-3.5859,-3.56,-3.56,-3.56,-3.543,-3.5081,-3.4032,-3.2767,-3.1292,-3.0533,-2.9585,-2.845,-2.8807,-2.8807,-2.8416,-2.8416,-2.8213,-2.7859,-2.7859,-2.8213,-2.8939,-2.8213,-2.7841,0.0,0.0,0.0,0.0,0.0,0.0,0.0,0.0,-3.0761,-3.3189,-3.5234,-3.7596,-4.0908,-4.2214,-4.375,-4.6834,-4.7057,-4.7502,-4.9331,-5.0288,-5.0802,-5.0802,-5.1646,-5.2491,-5.3151,-5.3203,-5.3203,-5.3203,-5.3314,-5.3739,-5.4363,-5.4693,-5.5204,-5.5884,-5.6619,-5.7045,-5.7116,-5.7703,-5.7997,-5.7997,-5.7997,-5.7703,-5.7116,-5.6744,-5.5199,-5.2782,-5.2159,-5.0789,-4.9018,-4.9018,-4.9018,-4.9018,-4.9018,-4.8646,-4.7939,-4.6616,-4.5974,-4.5635,-4.5026,-4.4716,-4.4615,-4.4615,-4.4147,-4.3504,-4.2726,-4.2016,-4.1271,-4.0519,-4.0214,-4.0113,-4.0113,-4.0113,-4.0113,-4.0113,-4.0113,-4.0113,-4.0113,-4.0113,-4.0113,-4.0113,-4.0113,-4.0113,-4.0113,-4.0113,-3.9842,-3.9106,-3.7855,-3.6965,-3.6829,-3.6096,-3.56,-3.56,-3.56,-3.5532,-3.5397,-3.4844,-3.366,-3.1732,-3.163,-3.1089,-2.989,-2.9721,-2.9653,-2.9653,-2.9484,-2.9416,-2.9416,-2.9416,-2.9736,-3.0311,-3.0311,-3.0006,-2.8908,-2.8604,-2.9077,-3.0378,-3.0277,-3.1035,0.0,0.0,-3.5006,-3.8919,-4.0065,-4.1397,-4.4673,-4.5576,-4.6323,-4.7916,-4.8781,-4.9311,-4.9554,-5.0288,-5.0802,-5.0802,-5.216,-5.3093,-5.3167,-5.3203,-5.3203,-5.3203,-5.3849,-5.4326,-5.4399,-5.5757,-5.6557,-5.6672,-5.7437,-5.7863,-5.7904,-5.7973,-5.7997,-5.7997,-5.7997,-5.7973,-5.7844,-5.6467,-5.5281,-5.4204,-5.1503,-4.9848,-4.9018,-4.9018,-4.9018,-4.9018,-4.9018,-4.8951,-4.8781,-4.797,-4.6819,-4.5703,-4.5602,-4.5128,-4.4615,-4.4615,-4.4547,-4.4316,-4.3538,-4.276,-4.2016,-4.1271,-4.0595,-4.0113,-4.0113,-4.0113,-4.0113,-4.0113,-4.0113,-4.0113,-4.0113,-4.0113,-4.0113,-4.0113,-4.0113,-4.0113,-4.0113,-4.0113,-3.9842,-3.9106,-3.8294,-3.755,-3.6897,-3.6096,-3.56,-3.56,-3.56,-3.5329,-3.4675,-3.4539,-3.41,-3.322,-3.3152,-3.3085,-3.2916,-3.2293,-3.1921,-3.1921,-3.1312,-3.0954,-3.0954,-3.0954,-3.0987,-3.1089,-3.1089,-3.1021,-3.278,-3.2848,-3.2983,-3.3626,-3.4539,-3.5757,-3.7516,-3.7821,-3.8478,-4.0988,-4.2577,-4.4028,-4.578,-4.654,-4.7379,0.0,-4.9038,-4.932,-5.0175,-5.0582,-5.0618,-5.0141,-5.0754,-5.1566,-5.2433,-5.2931,-5.3203,-5.3203,-5.3959,-5.4583,-5.506,-5.6198,-5.7005,-5.7483,-5.7813,-5.7997,-5.7997,-5.7997,-5.7997,-5.7997,-5.7997,-5.7774,-5.7351,-5.6714,-5.5259,-5.32,-5.1035,-4.9661,-4.9018,-4.9018,-4.9018,-4.9018,-4.9018,-4.9018,-4.8917,-4.8142,-4.7259,-4.6278,-4.5838,-4.5196,-4.4615,-4.4615,-4.4615,-4.4445,-4.3639,-4.2895,-4.2151,-4.1407,-4.0663,-4.0113,-4.0113,-4.0113,-4.0113,-4.0113,-4.0113,-4.0113,-4.0113,-4.0113,-4.0113,-4.0113,-4.0113,-4.0113,-4.0113,-4.0113,-4.0011,-3.9706,-3.9005,-3.8261,-3.755,-3.6772,-3.6129,-3.5633,-3.56,-3.5464,-3.5182,-3.5148,-3.4844,-3.41,-3.4032,-3.3863,-3.3423,-3.3085,-3.2949,-3.2949,-3.2645,-3.2476,-3.2476,-3.2476,-3.2476,-3.2476,-3.2476,-3.2476,-3.4754,-3.5295,-3.5735,-3.6377,-3.7922,-3.9276,-3.914,-3.9918,-4.107,-4.2437,-4.3827,-4.4974,-4.5781,-4.6578,-4.7518,-4.8802,-4.9112,-4.958,-5.0631,-5.0643,-5.0273,-4.9664,-4.9543,-4.996,-5.1202,-5.2108,-5.2761,-5.3167,-5.4142,-5.4987,-5.5596,-5.6565,-5.7409,-5.796,-5.7997,-5.7997,-5.7997,-5.7997,-5.7997,-5.7997,-5.7997,-5.7631,-5.6887,-5.6456,-5.4847,-5.2299,-5.0961,-4.9965,-4.9289,-4.9086,-4.9018,-4.9018,-4.9018,-4.9018,-4.8951,-4.8409,-4.7733,-4.6989,-4.6244,-4.55,-4.4886,-4.4682,-4.4615,-4.4513,-4.391,-4.32,-4.2455,-4.1711,-4.0967,-4.0383,-4.0146,-4.0113,-4.0113,-4.0113,-4.0113,-4.0113,-4.0113,-4.0113,-4.0113,-4.0113,-4.0113,-4.0113,-4.0113,-4.0113,-4.0113,-4.0113,-3.9673,-3.9039,-3.8294,-3.7381,-3.6468,-3.5667,-3.56,-3.56,-3.56,-3.56,-3.5363,-3.4844,-3.481,-3.4573,-3.4032,-3.3829,-3.3694,-3.3694,-3.3525,-3.3423,-3.3423,-3.3423,-3.3423,-3.3423,-3.3423,-3.3423,-3.366,-3.4518,-3.614,-3.8328,-3.9478,-4.0434,-4.1847,-4.2185,-4.2634,-4.4042,-4.3801,-4.3777,-4.5057,-4.5875,-4.6602,-4.7419,-4.9362,-5.0745,-5.0802,-5.0256,-4.9778,-4.9625,-4.9013,-4.8922,0.0,-5.0547,-5.1637,-5.3109,-5.4656,-5.5596,-5.5596,-5.7079,-5.796,-5.7997,-5.7997,-5.7997,-5.7997,-5.7997,-5.7997,-5.7997,-5.7997,-5.7631,-5.6861,-5.5355,-5.3817,-5.2265,-5.1488,-5.0744,-4.9999,-4.9289,-4.9018,-4.9018,-4.9018,-4.9018,-4.9018,-4.8984,-4.8511,-4.7736,-4.7022,-4.6278,-4.5534,-4.4852,-4.4615,-4.4615,-4.4581,-4.4012,-4.3206,-4.2455,-4.1745,-4.1001,-4.0282,-4.0113,-4.0113,-4.0113,-4.0113,-4.0113,-4.0113,-4.0113,-4.0113,-4.0113,-4.0113,-4.0113,-4.0113,-4.0113,-4.0113,-4.0113,-4.0079,-3.9808,-3.9039,-3.7709,-3.6468,-3.5667,-3.56,-3.56,-3.56,-3.56,-3.56,-3.5566,-3.5566,-3.5566,-3.5532,-3.4844,-3.4472,-3.4472,-3.3761,-3.3423,-3.3423,-3.3423,-3.3423,-3.3423,-3.3423,-3.3423,-3.5791,-3.711,-3.8294,-4.002,-4.1407,-4.2395,-4.2929,-4.3031,-4.3349,-4.4306,-4.3898,-4.3694,-4.4987,-4.5366,-4.6053,-4.7756,-4.9125,-5.0178,-5.0729,-5.1062,-5.0618,-4.8947,-4.8686,0.0,0.0,0.0,0.0,-5.2323,-5.3885,-5.5023,-5.5596,-5.7116,-5.7997,-5.7997,-5.7997,-5.7997,-5.7997,-5.7997,-5.7997,-5.7997,-5.6978,-5.6331,-5.6031,-5.4544,-5.3308,-5.2266,-5.1522,-5.0777,-5.0033,-4.9289,-4.9018,-4.9018,-4.9018,-4.9018,-4.9018,-4.9018,-4.8849,-4.8443,-4.7225,-4.6312,-4.5568,-4.4852,-4.4615,-4.4615,-4.4615,-4.4045,-4.3341,-4.3098,-4.2151,-4.1136,-4.0899,-4.0485,-4.0113,-4.0113,-4.0113,-4.0113,-4.0113,-4.0113,-4.0113,-4.0113,-4.0113,-4.0113,-4.0113,-4.0113,-4.0113,-4.0113,-3.9673,-3.9276,-3.9039,-3.7709,-3.6694,-3.6434,-3.5926,-3.56,-3.56,-3.56,-3.56,-3.56,-3.56,-3.56,-3.56,-3.5363,-3.525,-3.525,-3.4991,-3.4856,-3.4856,-3.4856,-3.4856,-3.4856,-3.4856,-3.4856,-3.8125,-3.9242,-3.9884,-4.1914,-4.2929,-4.3375,-4.3375,-4.3375,-4.3403,-4.3369,-4.2748,-4.2344,-4.2869,-4.3257,-4.4252,-4.6513,-4.8128,-4.9517,-5.0655,-5.1041,-5.0707,-4.9351,-4.8847,-4.8777,0.0,0.0,0.0,-5.194,-5.3739,-5.506,-5.5596,-5.7116,-5.7997,-5.7997,-5.7997,-5.7997,-5.7997,-5.7997,-5.7997,-5.7973,-5.6438,-5.5724,-5.5667,-5.4171,-5.3213,-5.2672,-5.1657,-5.0947,-5.0405,-4.9424,-4.9018,-4.9018,-4.9018,-4.9018,-4.9018,-4.9018,-4.9018,-4.8849,-4.7597,-4.6718,-4.5974,-4.5229,-4.479,-4.4615,-4.4615,-4.4215,-4.3775,-4.3477,-4.2699,-4.188,-4.1339,-4.0832,-4.0451,-4.018,-4.0113,-4.0113,-4.0113,-4.0113,-4.0113,-4.0113,-4.0113,-4.0113,-4.0113,-4.0113,-4.0113,-4.0113,-3.9706,-3.93,-3.9039,-3.8159,-3.7405,-3.6863,-3.6332,-3.5904,-3.5633,-3.56,-3.56,-3.56,-3.56,-3.56,-3.56,-3.56,-3.56,-3.56,-3.56,-3.56,-3.56,-3.56,-3.56,-3.56,-3.56,-3.56,-4.0426,-4.073,-4.0959,-4.387,-4.4012,-4.3375,-4.3375,-4.3308,-4.2801,-4.1441,-4.046,-3.9673,0.0,0.0,-4.1384,-4.3778,-4.6472,-4.8893,-5.0582,-5.0329,-5.0199,0.0,0.0,0.0,0.0,0.0,0.0,-5.1977,0.0,-5.5596,-5.5669,-5.7152,-5.7997,-5.7997,-5.7997,-5.7997,-5.7997,-5.7997,-5.7997,-5.7973,-5.6501,-5.5752,-5.5667,-5.4235,-5.3517,-5.3416,-5.1928,-5.1219,-5.1116,-4.9661,-4.9052,-4.9018,-4.9018,-4.9018,-4.9018,-4.9018,-4.9018,-4.8917,-4.8206,-4.7462,-4.6684,-4.594,-4.5196,-4.4615,-4.4615,-4.4615,-4.4445,-4.3673,-4.3409,-4.3071,-4.1677,-4.1271,-4.1035,-4.0316,-4.0146,-4.0113,-4.0113,-4.0113,-4.0113,-4.0113,-4.0113,-4.0113,-4.0113,-4.0113,-4.0113,-4.0113,-4.0113,-3.9842,-3.914,-3.9005,-3.8464,-3.7066,-3.6897,-3.6535,-3.5735,-3.5667,-3.5633,-3.56,-3.56,-3.56,-3.56,-3.56,-3.56,-3.56,-3.56,-3.56,-3.56,-3.56,-3.56,-3.56,-3.56,-3.56,-4.0561,-4.188,-4.2895,-4.4276,-4.4012,-4.3375,-4.3375,-4.2117,-4.0832,-4.0485,-3.843,-3.6808,-3.7081,0.0,0.0,-4.1986,-4.5694,0.0,-5.0582,-5.1669,0.0,-5.1736,0.0,-5.1062,-5.0819,-5.1353,0.0,0.0,-5.4032,-5.5244,-5.6418,-5.7446,-5.7997,-5.7997,-5.7997,-5.7997,-5.7997,-5.7997,-5.7997,-5.7997,-5.7029,-5.6286,-5.5695,-5.4726,-5.4009,-5.345,-5.2469,-5.1725,-5.1117,-5.0202,-4.9492,-4.9018,-4.9018,-4.9018,-4.9018,-4.9018,-4.9018,-4.8984,-4.8781,-4.7868,-4.6684,-4.594,-4.5196,-4.4615,-4.4615,-4.4615,-4.4581,-4.435,-4.3876,-4.3308,-4.2936,-4.2049,-4.117,-4.0967,-4.0519,-4.0113,-4.0113,-4.0113,-4.0113,-4.0113,-4.0113,-4.0113,-4.0113,-4.0113,-4.0113,-4.0113,-4.0113,-4.0045,-3.9842,-3.9343,-3.8836,-3.8464,-3.7956,-3.7313,-3.6535,-3.6468,-3.6231,-3.5633,-3.56,-3.56,-3.56,-3.56,-3.56,-3.56,-3.56,-3.56,-3.56,-3.56,-3.56,-3.56,-3.56,-3.56,-4.2083,-4.3301,-4.4045,-4.4513,-4.4248,-4.3504,-4.1847,-4.0493,-3.8962,-3.666,-3.5081,-3.4037,-3.3745,-3.5754,-3.8056,0.0,0.0,0.0,-4.9958,-5.1353,-5.2234,0.0,-5.2527,0.0,-5.238,-5.3115,-5.3922,0.0,-5.4876,-5.5464,-5.6748,-5.7556,-5.7997,-5.7997,-5.7997,-5.7997,-5.7997,-5.7997,-5.7997,-5.7997,-5.7277,-5.6474,-5.566,-5.4939,-5.42,-5.345,0.0,-5.1894,-5.115,-5.0405,-4.9661,-4.9018,-4.9018,-4.9018,-4.9018,-4.9018,-4.9018,-4.9018,-4.9018,-4.824,-4.7158,-4.6413,-4.5669,-4.5026,-4.4716,-4.4615,-4.4615,-4.4615,-4.4248,-4.3842,-4.3477,-4.2557,-4.161,-4.1271,-4.0629,-4.0113,-4.0113,-4.0113,-4.0113,-4.0113,-4.0113,-4.0113,-4.0113,-4.0113,-4.0113,-4.0113,-4.0113,-4.0113,-4.0113,-3.974,-3.9343,-3.9039,-3.8633,-3.8091,-3.7347,-3.728,-3.7077,-3.6637,-3.6332,-3.6129,-3.6129,-3.5769,-3.56,-3.56,-3.56,-3.56,-3.56,-3.56,-3.5769,-3.6129,-3.6129,-3.6299,-4.3876,-4.4513,-4.4581,-4.4479,-4.4378,-4.3362,-3.9681,-3.8599,-3.7009,-3.207,-3.1326,-3.1176,-2.9871,-3.2821,-3.6042,-3.8031,0.0,-4.658,-4.9162,-5.0358,-5.1536,-5.3041,-5.3277,-5.3628,-5.4326,-5.5133,-5.5941,-5.6748,-5.6161,-5.6088,-5.6932,-5.7629,-5.7997,-5.7997,-5.7997,-5.7997,-5.7997,-5.7997,-5.7997,-5.7997,-5.7351,-5.6554,-5.5695,-5.5059,-5.4296,-5.345,0.0,0.0,-5.115,-5.0634,-4.9822,-4.9018,-4.9107,-4.9077,-4.9018,-4.9018,-4.9018,-4.9018,-4.9018,-4.8578,-4.7936,-4.7192,-4.638,-4.5568,-4.4925,-4.4682,-4.4615,-4.4615,-4.4615,-4.4445,-4.3741,-4.2997,-4.2252,-4.1508,-4.0764,-4.0214,-4.0113,-4.0113,-4.0113,-4.0113,-4.0113,-4.0113,-4.0113,-4.0113,-4.0113,-4.0113,-4.0113,-4.0113,-4.0113,-4.0113,-3.9876,-3.9208,-3.914,-3.8836,-3.8125,-3.8058,-3.8024,-3.7922,-3.728,-3.6965,-3.6965,-3.6299,-3.5904,-3.5904,-3.5904,-3.5904,-3.5904,-3.5904,-3.6265,-3.6965,-3.6965,-3.728,-4.3504,-4.4079,-4.4445,-4.3775,-4.3132,-4.188,-3.8802,-3.6637,0.0,-3.0987,-2.889,-2.7571,-2.7334,-2.9747,-3.2932,-3.6396,-4.1124,-4.5682,-4.9242,-5.0936,-5.2123,0.0,-5.3812,-5.4252,-5.4399,-5.5133,0.0,0.0,0.0,-5.6932,-5.774,-5.7923,-5.7997,-5.7997,-5.7997,-5.7997,-5.7997,-5.7997,-5.7997,-5.7997,-5.7844,-5.7054,-5.5724,-5.5581,-5.4757,-5.3484,-5.3348,0.0,-5.1216,-5.1703,-5.0788,-4.9046,-4.9605,-4.9492,-4.9018,-4.9018,-4.9018,-4.9018,-4.9018,-4.8917,-4.8714,-4.797,-4.6819,-4.5669,-4.5534,-4.506,-4.4615,-4.4615,-4.4615,-4.4581,-4.4445,-4.3809,-4.3031,-4.2286,-4.1542,-4.0832,-4.0248,-4.0113,-4.0113,-4.0113,-4.0113,-4.0113,-4.0113,-4.0113,-4.0113,-4.0113,-4.0113,-4.0113,-4.0113,-4.0113,-4.0045,-3.991,-3.991,-3.9605,-3.887,-3.8802,-3.8531,-3.7956,-3.7787,-3.7719,-3.7719,-3.7584,-3.7516,-3.7516,-3.7516,-3.7516,-3.7516,-3.7516,-3.7584,-3.7719,-3.7719,-3.7787,-4.391,-4.431,-4.4412,-4.3606,-4.2861,-4.1204,-3.7077,0.0,0.0,-2.8044,-2.6336,-2.5455,-2.5033,-2.7902,-3.1184,-3.3782,-3.782,-4.2183,-4.6783,-4.8395,-5.0012,-5.2286,-5.4032,-5.5023,0.0,-5.6124,0.0,0.0,0.0,-5.7593,-5.796,-5.7997,-5.7997,-5.7997,-5.7997,-5.7997,-5.7997,-5.7997,-5.7997,-5.7997,-5.7997,-5.7389,-5.6313,-5.6313,-5.5731,-5.4637,-5.4637,0.0,-5.2379,-5.2723,-5.1564,-4.9551,-4.9861,-4.9576,-4.9018,-4.9018,-4.9018,-4.9018,-4.9018,-4.9018,-4.8951,-4.8612,-4.7462,-4.621,-4.5838,-4.5162,-4.4615,-4.4615,-4.4615,-4.4615,-4.4615,-4.4012,-4.3308,-4.2963,-4.2016,-4.1001,-4.0282,-4.0113,-4.0113,-4.0113,-4.0113,-4.0113,-4.0113,-4.0113,-4.0113,-4.0113,-4.0113,-4.0113,-4.0113,-4.0113,-4.0113,-4.0113,-4.0113,-3.9977,-3.9605,-3.9571,-3.9436,-3.9073,-3.8667,-3.8464,-3.8464,-3.8091,-3.7922,-3.7922,-3.7922,-3.7922,-3.7922,-3.7922,-3.8091,-3.8464,-3.8464,-3.8667,-4.4181,-4.4479,-4.4378,-4.3403,-4.2625,-4.0663,-3.525,-3.2882,-3.0398,-2.532,-2.4135,-2.3898,-2.3477,-2.6274,-2.9379,-3.1461,-3.4743,-3.8878,-4.4237,-4.6153,-4.8234,0.0,-5.3959,0.0,-5.5596,0.0,0.0,0.0,0.0,0.0,-5.7997,-5.7997,-5.7997,-5.7997,-5.7997,-5.7997,-5.7997,-5.7997,-5.7997,-5.7997,-5.7997,-5.7631,-5.6912,-5.6912,-5.6447,-5.5724,-5.5724,0.0,0.0,-5.3584,-5.2204,-5.0033,-5.0174,-4.9722,-4.9018,-4.9018,-4.9018,-4.9018,-4.9018,-4.9018,-4.9018,-4.9018,-4.8105,-4.6887,-4.6143,-4.5399,-4.4818,-4.4649,-4.4615,-4.4615,-4.4615,-4.4113,-4.3612,-4.3443,-4.2388,-4.1238,-4.0493,-4.035,-4.0282,-4.0146,-4.0113,-4.0113,-4.0113,-4.0113,-4.0113,-4.0113,-4.0113,-4.0113,-4.0113,-4.0113,-4.0113,-4.0113,-4.0113,-4.0113,-4.0113,-4.0113,-4.0113,-4.0113,-3.9571,-3.9242,-3.9242,-3.8667,-3.8362,-3.8362,-3.8362,-3.8362,-3.8362,-3.8362,-3.8667,-3.9242,-3.9242,-3.9571,-4.3477,-4.4045,-4.4242,-4.276,-4.1847,-3.9783,-3.3842,-3.134,-2.9025,-2.4425,-2.297,-2.2699,-2.3274,-2.4282,-2.635,-3.0575,-3.3755,-3.7712,-4.3565,-4.6759,-4.9349,-5.1715,0.0,0.0,-5.5537,0.0,0.0,0.0,0.0,0.0,-5.7997,-5.7997,-5.7997,-5.7997,-5.7997,-5.7997,-5.7997,-5.7997,-5.7997,-5.7997,-5.7997,-5.7631,-5.6912,-5.6912,-5.6447,-5.5724,-5.5724,0.0,0.0,-5.4118,-5.2661,-5.009,-5.0743,-5.0174,-4.9018,-4.9018,-4.9018,-4.9018,-4.9018,-4.9018,-4.9018,-4.9018,-4.8477,-4.7665,-4.6921,-4.6177,-4.5466,-4.4818,-4.4615,-4.4615,-4.4615,-4.4547,-4.431,-4.3544,-4.2794,-4.1982,-4.1271,-4.1102,-4.0899,-4.0248,-4.0113,-4.0113,-4.0113,-4.0113,-4.0113,-4.0113,-4.0113,-4.0113,-4.0113,-4.0113,-4.0113,-4.0113,-4.0113,-4.0113,-4.0113,-4.0113,-4.0113,-4.0113,-4.0045,-4.0011,-4.0011,-3.9943,-3.991,-3.991,-3.991,-3.991,-3.991,-3.991,-3.9943,-4.0011,-4.0011,-4.0045,-4.2489,-4.2963,-4.2963,-4.1914,-4.0426,-3.799,-3.3355,-3.0446,-2.7689,-2.412,-2.2801,-2.2381,-2.2699,-2.3342,-2.4924,-2.8305,-3.0231,-3.3266,-3.8936,-4.2022,-4.5048,-4.8615,-5.1353,0.0,0.0,0.0,0.0,0.0,0.0,0.0,-5.7997,-5.7997,-5.7997,-5.7997,-5.7997,-5.7997,-5.7997,-5.7997,-5.7997,-5.7997,-5.7997,-5.7821,-5.7546,-5.7546,-5.7401,-5.7043,-5.6573,0.0,0.0,-5.4514,-5.3207,-5.1282,-5.1593,-5.085,-4.9576,-4.9576,-4.9346,-4.9018,-4.9018,-4.9018,-4.9018,-4.9018,-4.8815,-4.8342,-4.7158,-4.6278,-4.5534,-4.4818,-4.4615,-4.4615,-4.4615,-4.4615,-4.4412,-4.3578,-4.32,-4.276,-4.2016,-4.1508,-4.1102,-4.0832,-4.0417,-4.0113,-4.0113,-4.0113,-4.0113,-4.0113,-4.0113,-4.0113,-4.0113,-4.0113,-4.0113,-4.0113,-4.0113,-4.0113,-4.0113,-4.0113,-4.0113,-4.0113,-4.0113,-4.0113,-4.0113,-4.0113,-4.0113,-4.0113,-4.0113,-4.0113,-4.0113,-4.0113,-4.0113,-4.0113,-4.0113,-4.0113,-4.1238,-4.1982,-4.2117,-4.1373,-3.9546,-3.6874,-3.2903,-2.9803,-2.6911,-2.3748,-2.2651,-2.2313,-2.2313,-2.2902,-2.4168,-2.6599,-2.8201,-3.1001,-3.635,-3.939,-4.2595,0.0,0.0,0.0,0.0,0.0,0.0,0.0,0.0,0.0,0.0,-5.7997,-5.7997,-5.7997,-5.7997,-5.7997,-5.7997,-5.7997,-5.7997,-5.7997,-5.7997,-5.7997,-5.7997,-5.7997,-5.7886,-5.7593,0.0,0.0,0.0,-5.462,-5.3498,-5.2089,-5.1862,-5.1086,-4.9976,-4.978,-4.9402,-4.9018,-4.9018,-4.9018,-4.9018,-4.9018,-4.9018,-4.8714,-4.7225,-4.6447,-4.5838,-4.4886,-4.4615,-4.4615,-4.4615,-4.4615,-4.4479,-4.3876,-4.3775,-4.3538,-4.2794,-4.2219,-4.1745,-4.1271,-4.0764,-4.0383,-4.0146,-4.0113,-4.0113,-4.0113,-4.0113,-4.0113,-4.0113,-4.0113,-4.0113,-4.0113,-4.0113,-4.0113,-4.0113,-4.0113,-4.0113,-4.0113,-4.0113,-4.0113,-4.0113,-4.0113,-4.0113,-4.0113,-4.0113,-4.0113,-4.0113,-4.0113,-4.0113,-4.0113,-4.0113,-4.0113,-3.9724,-4.1204,-4.2117,-4.1373,-3.9546,-3.6738,-3.2239,-2.9447,-2.6776,-2.3057,-2.2313,-2.2313,-2.2313,-2.2902,-2.4032,-2.5908,-2.8722,-3.2406,-3.7282,-4.0709,-4.379,0.0,0.0,0.0,0.0,0.0,0.0,0.0,0.0,0.0,0.0,-5.7997,-5.7997,-5.7997,-5.7997,-5.7997,-5.7997,-5.7997,-5.7997,-5.7997,-5.7997,-5.7997,-5.7997,-5.7997,-5.7556,0.0,0.0,0.0,0.0,-5.4399,-5.3498,-5.2042,-5.1368,-5.0662,-4.9919,-4.9256,-4.9018,-4.9018,-4.9018,-4.9018,-4.9018,-4.9018,-4.9018,-4.8714,-4.7225,-4.6786,-4.6481,-4.5021,-4.4615,-4.4615,-4.4615,-4.4615,-4.4615,-4.4581,-4.4581,-4.4378,-4.3572,-4.3375,-4.2936,-4.1474,-4.1204,-4.0967,-4.0248,-4.0113,-4.0113,-4.0113,-4.0113,-4.0113,-4.0113,-4.0113,-4.0113,-4.0113,-4.0113,-4.0113,-4.0113,-4.0113,-4.0113,-4.0113,-4.0113,-4.0113,-4.0113,-4.0113,-4.0113,-4.0113,-4.0113,-4.0113,-4.0113,-4.0113,-4.0113,-4.0113,-4.0113,-4.0113,-3.5115,-3.6231,-3.6772,-3.6062,-3.4573,-3.2544,-2.9548,-2.7519,-2.5525,-2.2854,-2.2313,-2.2313,-2.2313,-2.2496,-2.3745,-2.7156,-2.8983,-3.16,-3.6372,0.0,0.0,-4.5938,0.0,0.0,0.0,0.0,0.0,0.0,0.0,0.0,0.0,-5.7997,-5.7997,-5.7997,-5.7997,-5.7997,-5.7997,-5.7997,-5.7997,-5.7997,-5.7997,-5.7997,-5.796,-5.7446,0.0,0.0,0.0,0.0,0.0,-5.3812,-5.3301,-5.2813,-5.2635,-5.1801,-5.0716,-5.05,-4.9809,-4.9018,-4.9018,-4.9018,-4.9018,-4.9018,-4.9018,-4.8815,-4.7868,-4.7192,-4.6481,-4.5021,-4.4615,-4.4615,-4.4615,-4.4615,-4.4615,-4.4615,-4.4615,-4.4547,-4.4282,-4.3809,-4.324,-4.2767,-4.232,-4.1711,-4.0967,-4.0832,-4.0663,-4.018,-4.0113,-4.0113,-4.0113,-4.0113,-4.0113,-4.0113,-4.0113,-4.0113,-4.0113,-4.0113,-4.0113,-4.0113,-4.0113,-4.0113,-4.0113,-4.0113,-4.0113,-4.0113,-4.0113,-4.0113,-4.0113,-4.0113,-4.0113,-4.0113,-4.0113,-4.0113,-3.1867,-3.3322,-3.3964,-3.3525,-3.207,-3.0277,-2.8263,-2.6438,-2.4628,-2.2685,-2.2313,-2.2313,-2.2313,-2.2629,-2.385,-2.6669,-2.8417,-3.1007,-3.563,0.0,0.0,-4.5902,0.0,0.0,0.0,0.0,0.0,0.0,0.0,0.0,0.0,-5.7079,-5.7226,-5.7556,-5.785,-5.7997,-5.7997,-5.7997,-5.7997,-5.7997,-5.7997,-5.785,-5.7519,-5.7042,0.0,0.0,0.0,0.0,0.0,-5.3408,-5.3203,-5.3146,-5.2893,-5.2065,-5.106,-5.0796,-4.9982,-4.9018,-4.9018,-4.9018,-4.9018,-4.9018,-4.8815,-4.8443,-4.7733,-4.6989,-4.6143,-4.4953,-4.4615,-4.4615,-4.4615,-4.4615,-4.4615,-4.4615,-4.4615,-4.4615,-4.4615,-4.4215,-4.3775,-4.3443,-4.3031,-4.2489,-4.1745,-4.161,-4.1441,-4.0993,-4.0688,-4.0519,-4.0519,-4.0282,-4.0113,-4.0113,-4.0113,-4.0113,-4.0113,-4.0113,-4.0113,-4.0113,-4.0113,-4.0113,-4.0113,-4.0113,-4.0113,-4.0113,-4.0113,-4.0113,-4.0113,-4.0113,-4.0113,-4.0113,-4.0113,-4.0113,0.0,-3.1732,-3.2848,-3.278,-3.1224,-2.9311,-2.7824,-2.5913,0.0,-2.2584,-2.2313,-2.2347,-2.2516,-2.3268,-2.4275,-2.5377,-2.7587,-3.0782,0.0,-3.8174,0.0,0.0,0.0,0.0,0.0,0.0,0.0,0.0,0.0,0.0,0.0,-5.5596,-5.5941,-5.6712,-5.7446,-5.7886,-5.7997,-5.7923,-5.7923,-5.7923,-5.785,-5.7446,-5.6712,-5.6675,0.0,0.0,0.0,0.0,0.0,-5.3203,-5.3203,-5.3124,-5.2427,-5.1716,-5.1008,-5.0307,-4.9605,-4.9018,-4.9018,-4.9018,-4.9018,-4.9018,-4.8545,-4.7838,-4.709,-4.6346,-4.5534,-4.4818,-4.4615,-4.4615,-4.4615,-4.4615,-4.4615,-4.4615,-4.4615,-4.4615,-4.4615,-4.4615,-4.4378,-4.3639,-4.3504,-4.3267,-4.2489,-4.2388,-4.2354,-4.2286,-4.1711,-4.1271,-4.1271,-4.0663,-4.0248,-4.018,-4.018,-4.018,-4.0113,-4.0113,-4.0113,-4.0113,-4.0113,-4.0113,-4.0113,-4.0113,-4.0113,-4.0113,-4.0113,-4.0113,-4.0113,-4.0113,-4.0113,-4.0113,-4.0113,-4.0113,-2.4932,0.0,-2.73,-2.6742,-2.62,-2.5591,0.0,-2.4019,-2.341,-2.2496,-2.2313,-2.282,-2.4511,-2.4359,-2.5256,-2.914,-3.0539,-3.2721,-3.7218,0.0,0.0,0.0,0.0,0.0,0.0,0.0,0.0,0.0,0.0,0.0,0.0,-5.5596,-5.5684,-5.5868,-5.6051,-5.6748,-5.7997,-5.7409,-5.7079,-5.7079,-5.6455,-5.6051,-5.5868,-5.5244,0.0,0.0,0.0,0.0,-5.3203,-5.3203,-5.3203,-5.3167,-5.3002,-5.2196,-5.1086,-5.0903,-5.0061,-4.9018,-4.9018,-4.9018,-4.9018,-4.9018,-4.8883,-4.8612,-4.7868,-4.6752,-4.5534,-4.4818,-4.4615,-4.4615,-4.4615,-4.4615,-4.4615,-4.4615,-4.4615,-4.4615,-4.4615,-4.4615,-4.4547,-4.435,-4.4316,-4.4079,-4.3301,-4.3139,-4.2963,-4.2388,-4.2151,-4.2049,-4.2049,-4.188,-4.1576,-4.1001,-4.0933,-4.0696,-4.0146,-4.0113,-4.0113,-4.0113,-4.0113,-4.0113,-4.0113,-4.0113,-4.0113,-4.0113,-4.0113,-4.0113,-4.0113,-4.0113,-4.0113,-4.0113,-4.0113,-4.0113,-2.2902,-2.4458,-2.6015,-2.5625,-2.5252,-2.4898,-2.4492,-2.3613,-2.2767,-2.2381,-2.2313,-2.2753,-2.4323,-2.479,-2.6051,-2.9437,-3.1479,0.0,0.0,0.0,0.0,0.0,0.0,0.0,0.0,0.0,0.0,0.0,0.0,0.0,0.0,-5.4509,-5.4656,-5.5023,-5.506,-5.5647,-5.6895,-5.6455,-5.6235,-5.6235,-5.5794,-5.539,-5.5023,-5.4583,-5.4216,0.0,0.0,0.0,-5.3203,-5.3203,-5.3203,-5.3182,-5.2813,-5.2018,-5.1086,-5.1086,-5.0202,-4.9046,-4.9376,-4.9256,-4.9018,-4.9018,-4.9018,-4.8849,-4.8108,-4.7331,-4.6515,-4.5399,-4.5094,-4.5026,-4.4716,-4.4615,-4.4615,-4.4615,-4.4615,-4.4615,-4.4615,-4.4615,-4.4615,-4.4615,-4.4615,-4.4479,-4.4012,-4.3944,-4.3809,-4.343,-4.3031,-4.2794,-4.2794,-4.2489,-4.2151,-4.1745,-4.1711,-4.1542,-4.1162,-4.1128,-4.0823,-4.0146,-4.0113,-4.0113,-4.0113,-4.0113,-4.0113,-4.0113,-4.0113,-4.0113,-4.0113,-4.0113,-4.0113,-4.0113,-4.0113,-4.0282,-2.2719,-2.4797,-2.6725,-2.615,-2.5812,-2.5525,-2.5338,-2.3917,-2.2632,-2.2632,-2.2632,-2.297,-2.4052,-2.5624,-2.7315,-2.9052,0.0,0.0,0.0,0.0,0.0,0.0,0.0,0.0,0.0,0.0,0.0,0.0,0.0,0.0,0.0,-5.3203,-5.3518,-5.4216,-5.4216,-5.4546,-5.5207,-5.5354,-5.5427,-5.5427,-5.528,-5.4876,-5.4216,-5.4216,-5.3849,0.0,0.0,0.0,-5.3203,-5.3203,-5.3203,-5.3124,-5.2531,-5.1874,-5.1241,-5.1138,-5.0286,-4.9195,-4.9693,-4.9492,-4.9018,-4.9018,-4.9018,-4.8883,-4.8274,-4.8041,-4.78,-4.6413,-4.5974,-4.5703,-4.4959,-4.4784,-4.475,-4.4649,-4.4615,-4.4615,-4.4615,-4.4615,-4.4615,-4.4615,-4.4615,-4.4615,-4.4615,-4.4615,-4.4615,-4.4615,-4.4012,-4.3606,-4.3606,-4.3031,-4.2591,-4.2489,-4.2455,-4.2422,-4.2286,-4.2286,-4.1771,-4.0519,-4.035,-4.0282,-4.0282,-4.018,-4.0146,-4.0282,-4.0282,-4.0282,-4.0282,-4.0383,-4.0451,-4.0451,-4.0451,-4.0764,-2.4578,-2.6336,-2.6877,-2.3767,-2.4308,-2.5254,-2.4019,-2.3966,-2.4169,-2.4169,-2.4169,-2.4982,-2.7656,-2.9011,-3.0385,-3.2349,0.0,-4.0185,0.0,0.0,0.0,0.0,0.0,0.0,0.0,0.0,0.0,0.0,0.0,0.0,0.0,0.0,-5.324,-5.3408,-5.3408,-5.3445,-5.3592,-5.4252,-5.4583,-5.4583,-5.3885,-5.3518,-5.3408,-5.3408,-5.3314,0.0,0.0,-5.3203,-5.3203,-5.3203,-5.3203,-5.3203,-5.3082,-5.2576,-5.1898,-5.1317,-5.0554,-4.978,-4.9316,-4.9077,-4.9018,-4.9018,-4.9018,-4.8984,-4.8883,-4.8849,-4.8646,-4.78,-4.7124,-4.6447,-4.5737,-4.5534,-4.5365,-4.475,-4.4615,-4.4615,-4.4615,-4.4615,-4.4615,-4.4615,-4.4615,-4.4615,-4.4615,-4.4615,-4.4615,-4.4615,-4.4513,-4.4445,-4.4445,-4.4344,-4.3978,-4.3301,-4.3234,-4.2997,-4.2354,-4.2286,-4.2185,-4.1982,-4.1373,-4.1035,-4.1035,-4.0451,-4.0392,-4.1035,-4.1035,-4.1035,-4.1035,-4.1644,-4.1948,-4.1948,-4.1948,-4.2016,-2.353,-2.5187,-2.6201,-2.4511,-2.6066,-2.7858,-2.7165,-2.6657,-2.6469,-2.717,-2.7303,-2.7935,-3.0035,-3.1781,-3.4106,-3.7835,0.0,0.0,0.0,0.0,0.0,0.0,0.0,0.0,0.0,0.0,0.0,0.0,0.0,0.0,0.0,0.0,-5.3203,-5.3203,-5.3203,-5.3203,-5.3203,-5.3592,-5.3739,-5.3739,-5.3408,-5.3203,-5.3203,-5.3203,-5.3203,-5.3203,0.0,-5.3203,-5.3203,-5.3203,-5.3203,-5.3146,-5.2769,-5.2404,-5.2042,-5.1343,-5.1112,-5.0972,-4.989,-4.9551,-4.9492,-4.9107,-4.9018,-4.9018,-4.9018,-4.9018,-4.8951,-4.8612,-4.797,-4.7225,-4.6481,-4.6561,-4.6762,-4.6419,-4.6008,-4.5726,-4.5726,-4.5158,-4.4615,-4.4615,-4.4615,-4.4615,-4.4615,-4.4615,-4.4615,-4.4615,-4.4615,-4.4615,-4.4615,-4.4615,-4.4479,-4.4079,-4.4045,-4.391,-4.3565,-4.3565,-4.3193,-4.2354,-4.1982,-4.1779,-4.1779,-4.1474,-4.1467,-4.1779,-4.1779,-4.1779,-4.1779,-4.2117,-4.2286,-4.2286,-4.2286,-4.2523,-2.2922,-2.4308,-2.5744,-2.6251,-2.801,-2.9683,-3.0243,-2.9311,-2.8761,-3.0265,-3.056,-3.0977,-3.2238,-3.4462,0.0,-4.2411,-4.4071,0.0,0.0,0.0,0.0,0.0,0.0,0.0,0.0,0.0,0.0,0.0,0.0,0.0,0.0,0.0,-5.3203,-5.3203,-5.3203,-5.3203,-5.3203,-5.3203,-5.3203,-5.3203,-5.3203,-5.3203,-5.3203,-5.3203,-5.3203,-5.3203,-5.3203,-5.3203,-5.3203,-5.3203,-5.3203,-5.3124,-5.2576,-5.2229,-5.2042,-5.1519,-5.1544,-5.1716,-5.0635,-5.0146,-4.9919,-4.9372,-4.9138,-4.9018,-4.9018,-4.9018,-4.9018,-4.9018,-4.8612,-4.8003,-4.7259,-4.7455,-4.7775,-4.7631,-4.7113,-4.6727,-4.6727,-4.5883,-4.5122,-4.5122,-4.4987,-4.4886,-4.4886,-4.4716,-4.4615,-4.4615,-4.4615,-4.4615,-4.4615,-4.4615,-4.4615,-4.4615,-4.4615,-4.4615,-4.4615,-4.4615,-4.4107,-4.2895,-4.2489,-4.2388,-4.2557,-4.2388,-4.2388,-4.2557,-4.2557,-4.2557,-4.2557,-4.2726,-4.2855,-4.2855,-4.2855,-4.3132,-2.4781,-2.5457,-2.6116,-2.8231,-2.8349,-2.85,-3.0649,-3.0514,-3.0548,-3.2686,-3.3147,-3.3557,-3.4866,-3.7404,-4.0441,-4.398,0.0,0.0,0.0,0.0,0.0,0.0,0.0,0.0,0.0,0.0,0.0,0.0,0.0,0.0,0.0,0.0,0.0,-5.3203,-5.3203,-5.3203,-5.3203,-5.3203,-5.3203,-5.3203,-5.3203,-5.3203,-5.3203,-5.3203,-5.3203,-5.3203,-5.3203,-5.3203,-5.3203,-5.3203,-5.3203,-5.3167,-5.3124,-5.2725,-5.2089,-5.2065,-5.1667,-5.1164,-5.106,-5.0581,-5.0004,-4.9947,-4.9521,-4.9018,-4.9018,-4.9018,-4.9018,-4.9018,-4.8951,-4.8748,-4.8007,-4.7864,-4.7691,-4.7043,-4.684,-4.6772,-4.6772,-4.6709,-4.6616,-4.6616,-4.6075,-4.5635,-4.5635,-4.5026,-4.4615,-4.4615,-4.4615,-4.4615,-4.4615,-4.4615,-4.4615,-4.4615,-4.4615,-4.4615,-4.4615,-4.4615,-4.4547,-4.4445,-4.3064,-4.2625,-4.3274,-4.2658,-4.2625,-4.3308,-4.3308,-4.3308,-4.3308,-4.4045,-4.4445,-4.4445,-4.4445,-4.4479,-2.3327,-2.4898,-2.659,-2.7909,-2.9093,-3.0378,-3.2171,-3.2713,-3.3562,-3.6105,-3.665,-3.7157,-3.8828,-4.0706,-4.2759,-4.5059,0.0,0.0,0.0,0.0,0.0,0.0,0.0,0.0,0.0,0.0,0.0,0.0,0.0,0.0,0.0,0.0,0.0,-5.3203,-5.3203,-5.3203,-5.3203,-5.3203,-5.3203,-5.3203,-5.3203,-5.3203,-5.3203,-5.3203,-5.3203,-5.3203,-5.3203,-5.3203,-5.3203,-5.3203,-5.3203,-5.3203,-5.3203,-5.3039,-5.2747,-5.2289,-5.2242,-5.2266,-5.1393,-5.0929,-5.0608,-5.0174,-4.9551,-4.9018,-4.9018,-4.9018,-4.9018,-4.9018,-4.9018,-4.8951,-4.868,-4.8907,-4.9124,-4.8879,-4.8432,-4.8117,-4.8117,-4.7408,-4.6786,-4.6786,-4.6583,-4.638,-4.638,-4.6143,-4.594,-4.594,-4.594,-4.594,-4.594,-4.594,-4.594,-4.594,-4.5534,-4.5263,-4.5263,-4.4857,-4.4615,-4.4615,-4.4073,-4.387,-4.4113,-4.3904,-4.387,-4.4147,-4.4147,-4.4147,-4.4147,-4.4479,-4.4615,-4.4615,-4.4615,-4.4615,-2.2665,-2.4289,-2.6285,-2.7486,-2.9364,-3.1427,-3.3592,-3.4472,-3.5768,-3.9088,-3.9858,-4.0418,-4.1907,-4.3105,0.0,0.0,0.0,0.0,0.0,0.0,0.0,0.0,0.0,0.0,0.0,0.0,0.0,0.0,0.0,0.0,0.0,0.0,0.0,0.0,-5.3078,-5.3203,-5.3203,-5.3203,-5.3203,-5.3203,-5.3203,-5.3203,-5.3203,-5.3203,-5.3203,-5.3203,-5.3203,-5.3203,-5.3203,-5.3203,-5.3203,-5.3203,-5.3203,-5.3203,-5.3103,-5.2358,-5.2576,-5.3039,-5.1825,-5.1419,-5.1292,-5.0581,-4.9896,-4.9286,-4.9046,-4.9018,-4.9018,-4.9018,-4.9018,-4.9018,-4.9018,-4.9346,-4.9693,-4.9693,-4.928,-4.8931,-4.8931,-4.8153,-4.7496,-4.7496,-4.7293,-4.7158,-4.7158,-4.6955,-4.6786,-4.6786,-4.6786,-4.6786,-4.6786,-4.6786,-4.6786,-4.6786,-4.6346,-4.6041,-4.6041,-4.5568,-4.5292,-4.5292,-4.5089,-4.4852,-4.4615,-4.4615,-4.4615,-4.4615,-4.4615,-4.4615,-4.4615,-4.4615,-4.4615,-4.4615,-4.4615,-4.4716,-2.3376,-2.3966,-2.5049,-2.7249,-2.8973,-3.1103,-3.4788,-3.5633,-3.6907,-4.1399,-4.2632,-4.3095,-4.3768,-4.4344,0.0,0.0,0.0,0.0,0.0,0.0,0.0,0.0,0.0,0.0,0.0,0.0,0.0,0.0,0.0,0.0,0.0,0.0,0.0,0.0,-5.2784,-5.3167,-5.3167,-5.3203,-5.3203,-5.3203,-5.3203,-5.3203,-5.3203,-5.3203,-5.3203,-5.3203,-5.3203,-5.3203,-5.3203,-5.3203,-5.3203,-5.3203,-5.3203,-5.3203,-5.3103,-5.2358,-5.2554,-5.3082,-5.2358,-5.2089,-5.1994,-5.1317,-5.0608,-4.9861,-4.9195,-4.9018,-4.9018,-4.9018,-4.9018,-4.9018,-4.9018,-4.9018,-4.9018,-4.9018,-4.9018,-4.9018,-4.9018,-4.9018,-4.9018,-4.9018,-4.8409,-4.7906,-4.7906,-4.7293,-4.6819,-4.6819,-4.6819,-4.6819,-4.6819,-4.6819,-4.6819,-4.6819,-4.6819,-4.6819,-4.6819,-4.6786,-4.6786,-4.6786,-4.6109,-4.5365,-4.4649,-4.4615,-4.4615,-4.4615,-4.4615,-4.4615,-4.4615,-4.4615,-4.4615,-4.4615,-4.4615,-4.4993,-2.2767,-2.468,-2.7131,-2.8349,-3.1326,-3.4687,-3.7381,-3.799,-3.8948,-4.2309,-4.3754,-4.4335,-4.3956,-4.48,0.0,0.0,0.0,0.0,0.0,0.0,0.0,0.0,0.0,0.0,0.0,0.0,0.0,0.0,0.0,0.0,0.0,0.0,0.0,0.0,-5.194,-5.2344,-5.2344,-5.2931,-5.3203,-5.3203,-5.3203,-5.3203,-5.3203,-5.3203,-5.3203,-5.3203,-5.3203,-5.3203,-5.3203,-5.3203,-5.3203,-5.3203,-5.3203,-5.3203,-5.306,-5.185,-5.185,-5.2335,-5.1618,-5.1393,-5.1368,-5.1164,-5.0608,-4.9861,-4.9195,-4.9018,-4.9018,-4.9018,-4.9018,-4.9018,-4.9018,-4.9018,-4.9018,-4.9018,-4.9018,-4.9018,-4.9018,-4.9018,-4.9018,-4.9018,-4.8815,-4.868,-4.868,-4.8511,-4.8342,-4.8342,-4.8342,-4.8342,-4.8342,-4.8342,-4.8342,-4.8342,-4.7902,-4.7597,-4.7597,-4.709,-4.6786,-4.6786,-4.6583,-4.6143,-4.5399,-4.4857,-4.4615,-4.4615,-4.4615,-4.4886,-4.5365,-4.5365,-4.5635,-4.6172,-4.6172,-4.6244,-2.4019,-2.6116,-2.8687,-3.0311,-3.3186,-3.6343,-3.9208,-4.0517,-4.1621,-4.3312,-4.4662,-4.5445,-4.5229,-4.5826,0.0,0.0,0.0,0.0,0.0,0.0,0.0,0.0,0.0,0.0,0.0,0.0,0.0,0.0,0.0,0.0,0.0,0.0,0.0,0.0,-5.1096,-5.1499,-5.1499,-5.2307,-5.2711,-5.2747,-5.3078,-5.3203,-5.3203,-5.3203,-5.3203,-5.3203,-5.3203,-5.3203,-5.3203,-5.3203,-5.3203,-5.3203,-5.3203,-5.3203,-5.306,-5.1922,-5.1741,-5.2018,-5.1343,-5.1086,-5.106,-5.077,-5.0362,-4.9861,-4.9195,-4.9018,-4.9018,-4.9018,-4.9018,-4.9018,-4.9018,-4.9018,-4.9018,-4.9018,-4.9018,-4.9018,-4.9018,-4.9018,-4.9018,-4.9018,-4.9018,-4.9018,-4.9018,-4.9018,-4.9018,-4.9018,-4.9018,-4.9018,-4.9018,-4.9018,-4.9018,-4.9018,-4.8612,-4.8342,-4.8342,-4.7936,-4.7665,-4.7665,-4.7394,-4.7056,-4.6616,-4.5872,-4.5466,-4.5466,-4.5466,-4.5669,-4.6143,-4.6143,-4.638,-4.6786,-4.6786,-4.6955,-2.6184,-2.7825,-2.9822,-3.2747,-3.4754,-3.6884,-4.0324,-4.2739,-4.4265,-4.4208,-4.5244,-4.6327,-4.6891,-4.7039,0.0,0.0,0.0,0.0,0.0,0.0,0.0,0.0,0.0,0.0,0.0,0.0,0.0,0.0,0.0,0.0,0.0,0.0,0.0,0.0,-5.0251,-5.0692,-5.0692,-5.1499,-5.1867,0.0,-5.2637,-5.2983,-5.2983,-5.3151,-5.3203,-5.3203,-5.3203,-5.3203,-5.3203,-5.3203,-5.3203,-5.3203,-5.3203,-5.3203,-5.3103,-5.2358,-5.2112,-5.2018,-5.1393,-5.1189,-5.1086,-5.0417,-5.0167,-5.0061,-4.9372,-4.9138,-4.9077,-4.9077,-4.9046,-4.9018,-4.9018,-4.9018,-4.9018,-4.9018,-4.9018,-4.9049,-4.9077,-4.9015,-4.9018,-4.9018,-4.9018,-4.9018,-4.9018,-4.9018,-4.9018,-4.9018,-4.9018,-4.9018,-4.9018,-4.9018,-4.9018,-4.9018,-4.9018,-4.9018,-4.9018,-4.9018,-4.9018,-4.9018,-4.8376,-4.7973,-4.7973,-4.7225,-4.6786,-4.6786,-4.6786,-4.6819,-4.6887,-4.6887,-4.6921,-4.6989,-4.6989,-4.7361,-2.5439,-2.7807,-3.0581,-3.3525,-3.6705,-3.9334,-4.0146,-4.1867,-4.3469,-4.4018,-4.5106,-4.6011,-4.6122,0.0,0.0,0.0,0.0,0.0,0.0,0.0,0.0,0.0,0.0,0.0,0.0,0.0,0.0,0.0,0.0,0.0,0.0,0.0,0.0,-4.86,-4.9407,-4.9867,-4.9867,-5.0655,-5.1059,0.0,-5.1242,-5.1316,-5.1353,-5.2637,-5.3203,-5.3203,-5.3203,-5.3203,-5.3203,-5.3203,-5.3203,-5.3203,-5.3203,-5.3203,-5.3103,-5.2358,-5.2112,-5.2089,-5.191,-5.1862,-5.1838,-5.1692,-5.1643,-5.1519,-5.085,-5.0258,-4.9809,-4.9809,-4.9402,-4.9018,-4.9018,-4.9018,-4.9018,-4.9018,-4.9018,-4.9138,-4.9664,-4.9342,-4.9018,-4.9018,-4.9018,-4.9018,-4.9018,-4.9018,-4.9018,-4.9018,-4.9018,-4.9018,-4.9018,-4.9018,-4.9018,-4.9018,-4.9018,-4.9018,-4.9018,-4.9018,-4.9018,-4.9018,-4.8849,-4.8781,-4.8781,-4.7496,-4.6786,-4.6786,-4.6786,-4.709,-4.7665,-4.7665,-4.797,-4.8545,-4.8545,-4.8612,-2.5964,-2.8331,-3.1089,-3.5115,-3.8125,-4.0113,-4.0113,-4.1067,-4.2086,-4.2484,-4.434,-4.5883,0.0,0.0,0.0,0.0,0.0,0.0,0.0,0.0,0.0,0.0,0.0,0.0,0.0,0.0,0.0,0.0,0.0,0.0,0.0,-4.8306,-4.8306,-4.8306,-4.8746,-4.8967,-4.8967,-4.9811,-5.0215,-5.0215,-5.0618,-5.0802,-5.0839,-5.2087,-5.2637,-5.2637,-5.3041,-5.3203,-5.3203,-5.3203,-5.3203,-5.3203,-5.3203,-5.3203,-5.3146,-5.2769,-5.2404,-5.2112,-5.2112,-5.1862,-5.1618,-5.1618,-5.1618,-5.1544,-5.1215,-5.0581,-5.0004,-5.0004,-4.9521,-4.9018,-4.9018,-4.9018,-4.9077,-4.9402,-4.9226,-4.9107,-4.9432,-4.9226,-4.9018,-4.9018,-4.9018,-4.9018,-4.9018,-4.9256,-4.9492,-4.9492,-4.9492,-4.9342,-4.9015,-4.9018,-4.9018,-4.9018,-4.9018,-4.9018,-4.9018,-4.9018,-4.9018,-4.9018,-4.9018,-4.9018,-4.9018,-4.8274,-4.7834,-4.7834,-4.7834,-4.8037,-4.8443,-4.8443,-4.8646,-4.9018,-4.9018,-4.9018,-2.605,-2.8768,-3.1833,-3.6705,-3.9005,-4.0113,-4.0113,-4.0504,-4.092,-4.092,-4.3268,0.0,0.0,0.0,0.0,0.0,0.0,0.0,0.0,0.0,0.0,0.0,0.0,0.0,0.0,0.0,0.0,0.0,0.0,0.0,-4.8306,-4.8306,-4.8306,-4.8306,-4.8306,-4.8306,-4.8306,-4.9003,-4.939,-4.939,-5.0031,-5.0362,-5.0398,-5.1206,-5.172,-5.205,-5.2711,-5.3057,-5.3203,-5.3203,-5.3203,-5.3203,-5.3203,-5.3203,-5.3203,-5.3203,-5.2813,-5.2312,-5.2312,-5.1922,-5.1444,-5.1444,-5.1444,-5.1444,-5.1444,-5.0876,-5.0202,-5.0202,-4.9639,-4.9018,-4.9018,-4.9018,-4.9138,-4.9693,-4.9402,-4.9015,-4.9168,-4.9199,-4.9138,-4.9015,-4.9018,-4.9015,-4.9168,-4.9551,-4.9861,-4.9976,-4.989,-4.9605,-4.9077,-4.9209,-4.9403,-4.9403,-4.9623,-4.9722,-4.9603,-4.9603,-4.9511,-4.939,-4.939,-4.939,-4.939,-4.939,-4.9323,-4.9187,-4.9052,-4.9018,-4.9018,-4.9018,-4.9018,-4.9018,-4.9018,-4.9018,-2.305,-2.815,-3.3761,-3.7077,-3.9005,-4.0113,-4.0113,-4.0504,-4.092,0.0,0.0,0.0,0.0,0.0,0.0,0.0,0.0,0.0,0.0,0.0,0.0,0.0,0.0,0.0,0.0,0.0,0.0,0.0,0.0,0.0,-4.8306,-4.8306,-4.8306,-4.8306,-4.8306,-4.8306,-4.8306,-4.8416,-4.8489,-4.8489,-4.86,-4.8636,-4.8673,-4.9517,-5.0675,-5.2013,-5.2087,-5.2564,-5.3203,-5.3203,-5.3203,-5.3203,-5.3203,-5.3203,-5.3203,-5.3203,-5.3124,-5.306,-5.306,-5.298,-5.2915,-5.2915,-5.2915,-5.2915,-5.2915,-5.2006,-5.0955,-5.0955,-5.0004,-4.9018,-4.9018,-4.9018,-4.9015,-4.9107,-4.9046,-4.9168,-4.9751,-4.9861,-4.9693,-4.9107,-4.9018,-4.9165,-4.978,-4.9462,-4.9346,-4.9919,-4.9521,-4.9107,-4.8984,-5.0163,-5.0985,-5.0985,-5.2138,-5.2636,-5.2013,-5.1954,-5.1657,-5.0945,-5.0881,-5.0881,-5.0881,-5.0881,-5.0608,-4.9965,-4.9323,-4.9018,-4.9018,-4.9018,-4.9018,-4.9018,-4.9018,-4.9018,-2.4023,-2.8529,-3.2983,-3.6434,-3.8058,-3.9073,-3.991,-4.0303,-4.0466,-4.0466,0.0,0.0,0.0,0.0,0.0,0.0,0.0,0.0,0.0,0.0,0.0,0.0,0.0,0.0,0.0,0.0,0.0,0.0,0.0,-4.8306,-4.8306,-4.8306,-4.8306,-4.8306,-4.8306,-4.8306,-4.8306,-4.8306,-4.8306,-4.8306,-4.8306,-4.8306,-4.8306,-4.871,-4.9517,-5.0712,-5.163,-5.2197,-5.2564,-5.3004,-5.3203,-5.3203,-5.3203,-5.3203,-5.3203,-5.3203,-5.3203,-5.3203,-5.3203,-5.3203,-5.3203,-5.3203,-5.3203,-5.3203,-5.3203,-5.2219,-5.1086,-5.1086,-5.009,-4.9018,-4.9018,-4.9018,-4.9018,-4.9018,-4.9627,-5.0202,-5.0078,-4.974,-4.9479,-4.9588,-4.9627,-4.9943,-5.1099,-5.1055,-5.0935,-5.1227,-5.1402,-5.1315,-5.0935,-5.1888,-5.2544,-5.2544,-5.3101,-5.3395,-5.3036,-5.2643,-5.223,-5.1871,-5.1439,-5.1185,-5.1185,-5.1185,-5.1048,-5.0744,-4.9999,-4.9424,-4.9018,-4.9018,-4.9018,-4.9018,-4.9018,-4.9018,-2.4354,-2.7721,-3.0683,-3.446,-3.6332,-3.7719,-3.9174,0.0,-3.9876,0.0,0.0,0.0,0.0,0.0,0.0,0.0,0.0,0.0,0.0,0.0,0.0,0.0,0.0,0.0,0.0,0.0,0.0,0.0,0.0,-4.8012,-4.8012,-4.8196,-4.8306,-4.8306,-4.8306,-4.8306,-4.8306,-4.8306,-4.8306,-4.8306,-4.8306,-4.8306,-4.8306,-4.8306,-4.8636,-4.9353,-5.0765,-5.161,-5.205,-5.2637,-5.3041,-5.3203,-5.3203,-5.3203,-5.3203,-5.3203,-5.3203,-5.3203,-5.3203,-5.3203,-5.3203,-5.3203,-5.3203,-5.3203,-5.3203,-5.2348,-5.1343,-5.1343,-5.0342,-4.929,-4.9494,-4.9409,-4.9323,-4.9526,-5.0397,-5.1107,-5.0745,-5.0088,-4.9729,-5.027,-5.0371,-5.0853,-5.2334,-5.2438,-5.2379,-5.2555,-5.2895,-5.2895,-5.2205,-5.2927,-5.3485,-5.3485,-5.4019,-5.4296,-5.4071,-5.3541,-5.3142,-5.2969,-5.2206,-5.1792,-5.1792,-5.1792,-5.1691,-5.1488,-5.0947,-5.0304,-4.956,-4.956,-4.956,-4.956,-4.956,-4.956,-2.2041,-2.4441,-2.6793,-3.0548,-3.3626,-3.6107,-3.7652,0.0,0.0,0.0,0.0,0.0,0.0,0.0,0.0,0.0,0.0,0.0,0.0,0.0,0.0,0.0,0.0,0.0,0.0,0.0,0.0,0.0,0.0,-4.7149,-4.7149,-4.7902,-4.8306,-4.8306,-4.8306,-4.8306,-4.8306,-4.8306,-4.8306,-4.8306,-4.8306,-4.8306,-4.8306,-4.8306,-4.8343,-4.8416,-4.9353,-5.0602,-5.1977,-5.205,-5.2527,-5.3203,-5.3203,-5.3203,-5.3203,-5.3203,-5.3203,-5.3203,-5.3203,-5.3203,-5.3203,-5.3203,-5.3203,-5.3203,-5.3203,-5.2644,-5.2065,-5.2065,-5.1025,-5.012,-5.0881,-5.0587,-5.0202,-5.0947,-5.1116,-5.1371,-5.2046,-5.162,-5.1083,-5.115,-5.115,-5.1623,-5.3085,-5.2809,-5.2614,-5.3258,-5.2838,-5.2175,-5.1344,-5.2585,-5.3519,-5.3519,-5.5415,-5.6419,-5.5638,-5.5554,-5.5244,-5.453,-5.3811,-5.3382,-5.3382,-5.3382,-5.301,-5.2266,-5.2198,-5.1826,-5.1116,-5.1116,-5.1116,-5.1116,-5.1116,-5.1116,-2.1242,-2.3302,-2.5541,-2.8349,-3.1258,-3.3863,-3.5385,-3.7415,0.0,0.0,0.0,0.0,0.0,0.0,0.0,0.0,0.0,0.0,0.0,0.0,0.0,0.0,0.0,0.0,0.0,0.0,0.0,0.0,0.0,0.0,-4.6305,-4.6617,-4.7021,-4.7516,-4.7516,-4.7773,-4.8306,-4.8306,-4.8306,-4.8306,-4.8306,-4.8306,-4.8306,-4.8306,-4.8075,-4.7736,-4.8063,-4.9362,-5.1279,-5.1793,-5.2454,-5.3203,-5.3203,-5.3203,-5.3203,-5.3203,-5.3203,-5.3124,-5.2644,-5.2791,-5.3124,-5.2644,-5.2813,-5.3203,-5.3203,-5.2666,-5.2126,-5.2151,-5.1829,-5.1444,-5.1257,-5.1371,-5.1634,-5.1854,-5.1928,-5.2094,-5.2929,-5.2089,-5.132,-5.1826,-5.1928,-5.2386,-5.3913,-5.3563,-5.3347,-5.4042,-5.3987,-5.3683,-5.3407,-5.4256,-5.4899,-5.4899,-5.608,-5.6773,-5.6474,-5.6447,-5.615,-5.535,-5.4637,-5.3977,-5.3551,-5.3518,-5.3382,-5.3078,-5.3078,-5.2469,-5.1185,-5.1185,-5.1185,-5.1185,-5.1185,-5.1185,-2.0083,-2.1784,-2.4034,-2.6759,-2.8755,-3.0818,-3.3829,0.0,0.0,0.0,0.0,0.0,0.0,0.0,0.0,0.0,0.0,0.0,0.0,0.0,0.0,0.0,0.0,0.0,0.0,0.0,0.0,0.0,0.0,0.0,-4.5498,-4.5736,-4.614,-4.6672,-4.6966,-4.7369,-4.7902,-4.8196,-4.8306,-4.8306,-4.8306,-4.8173,-4.8015,-4.8015,-4.7674,-4.7066,-4.7299,-4.8415,-5.0133,-5.0936,-5.1867,-5.2821,-5.3093,-5.3203,-5.3203,-5.3203,-5.3203,-5.3103,-5.2358,-5.2404,-5.2747,-5.2289,-5.2427,-5.2893,-5.3124,-5.2885,-5.2546,-5.2866,-5.2834,-5.2604,-5.2343,-5.2547,-5.2766,-5.2702,-5.2706,-5.2841,-5.3382,-5.2902,-5.2516,-5.2994,-5.3286,-5.386,-5.5133,-5.4974,-5.4699,-5.4939,-5.4999,-5.4787,-5.4296,-5.4668,-5.4969,-5.4969,-5.5674,-5.6232,-5.6483,-5.6259,-5.6122,-5.6087,-5.4909,-5.4139,-5.3881,-5.3651,-5.3518,-5.3518,-5.3518,-5.301,-5.1995,-5.1995,-5.1995,-5.1995,-5.1995,-5.1995,0.0,0.0,0.0,-2.5625,0.0,0.0,-3.2882,0.0,0.0,0.0,0.0,0.0,0.0,0.0,0.0,0.0,0.0,0.0,0.0,0.0,0.0,0.0,0.0,0.0,0.0,0.0,0.0,0.0,0.0,-4.4654,-4.4654,-4.5443,-4.5847,-4.5847,-4.6636,-4.7076,-4.7113,-4.7846,-4.825,-4.8267,-4.8267,-4.7975,-4.7363,-4.7363,-4.6999,-4.6389,-4.7044,-4.7796,-4.8612,-4.945,-5.0671,-5.2087,-5.2894,-5.3203,-5.3203,-5.3203,-5.3203,-5.3082,-5.2335,-5.2089,-5.2112,-5.2089,-5.2089,-5.2266,-5.2995,-5.3226,-5.3399,-5.4202,-5.4002,-5.3654,-5.4358,-5.4056,-5.3551,-5.3518,-5.3518,-5.3518,-5.3518,-5.4074,-5.4606,-5.4606,-5.5173,-5.592,-5.6783,-5.6887,-5.6616,-5.5865,-5.5724,-5.5144,-5.3717,-5.3484,-5.3518,-5.3518,-5.4171,-5.4909,-5.561,-5.5024,-5.5267,-5.6783,-5.4795,-5.3848,-5.4575,-5.3881,-5.3518,-5.3518,-5.3518,-5.3518,-5.3518,-5.3518,-5.3518,-5.3518,-5.3518,-5.3518,-1.9744,0.0,0.0,0.0,0.0,0.0,0.0,0.0,0.0,0.0,0.0,0.0,0.0,0.0,0.0,0.0,0.0,0.0,0.0,0.0,0.0,0.0,0.0,0.0,0.0,0.0,0.0,0.0,-4.3044,-4.3433,-4.381,-4.4599,-4.5039,-4.5039,-4.581,-4.6507,-4.7076,-4.7333,-4.7526,-4.7653,-4.7653,-4.732,-4.6682,-4.6682,-4.6353,-4.574,-4.594,-4.6387,-4.7201,-4.9567,-5.1119,-5.2087,-5.2894,-5.3203,-5.3203,-5.3203,-5.3203,-5.3039,-5.1801,-5.1692,-5.2042,-5.1544,-5.1692,-5.2338,-5.3676,-5.4049,-5.4237,-5.5123,-5.5595,-5.58,-5.5443,-5.4825,-5.4171,-5.3651,-5.3518,-5.3518,-5.3518,-5.4074,-5.4606,-5.4606,-5.4757,-5.5355,-5.6668,-5.6394,-5.6141,-5.6501,-5.561,-5.4757,-5.4359,-5.3815,-5.3518,-5.3518,-5.4171,-5.4665,-5.4909,-5.5203,-5.5581,-5.6004,-5.4939,-5.4388,-5.4606,-5.3881,-5.3518,-5.3518,-5.3518,-5.3518,-5.3518,-5.3518,-5.3518,-5.3518,-5.3518,-5.3518,-2.0703,-2.1177,-2.1921,0.0,0.0,0.0,0.0,-2.7571,0.0,0.0,0.0,0.0,0.0,0.0,0.0,0.0,0.0,0.0,0.0,0.0,0.0,0.0,0.0,0.0,0.0,0.0,0.0,-4.2674,-4.292,-4.3178,-4.3497,-4.3706,-4.398,-4.4195,-4.4966,-4.5626,-4.6085,-4.6746,-4.7144,-4.7284,-4.7368,-4.7044,-4.6389,-4.6161,-4.5699,-4.5142,-4.5399,-4.5699,-4.6217,-4.8892,-5.0381,-5.1143,-5.2309,-5.2747,-5.2747,-5.2747,-5.2937,-5.3017,-5.1604,-5.1343,-5.1569,-5.0876,-5.0929,-5.1561,-5.337,-5.3971,-5.4291,-5.5741,-5.6479,-5.666,-5.5925,-5.5144,-5.4388,-5.3685,-5.3518,-5.3518,-5.3518,-5.4074,-5.4606,-5.4606,-5.5119,-5.5844,-5.6757,-5.6773,-5.6711,-5.6887,-5.5872,-5.4969,-5.4634,-5.3979,-5.3518,-5.3518,-5.3881,-5.4264,-5.4575,-5.4964,-5.5524,-5.6177,-5.5173,-5.4726,-5.5059,-5.4042,-5.3518,-5.3518,-5.3518,-5.3518,-5.3518,-5.3518,-5.3518,-5.3518,-5.3518,-5.3518,-2.1901,-2.1732,-2.2375,-2.4763,0.0,0.0,-2.7182,-2.7351,0.0,0.0,0.0,0.0,0.0,0.0,0.0,0.0,0.0,0.0,0.0,0.0,0.0,0.0,0.0,0.0,0.0,-4.1874,-4.2083,-4.2577,-4.316,-4.348,-4.3391,-4.3032,-4.2995,-4.3374,-4.416,-4.4635,-4.4691,-4.6195,-4.6946,-4.6905,-4.7171,-4.691,-4.6174,-4.5648,-4.5115,-4.4643,-4.5169,-4.5451,-4.5684,-4.7824,-4.9054,-4.9739,-5.1346,-5.1994,-5.1994,-5.1994,-5.2381,-5.2806,-5.1419,-5.0981,-5.0876,-5.0195,-5.0074,-5.053,-5.2656,-5.3478,-5.4108,-5.6317,-5.6988,-5.6825,-5.6031,-5.5262,-5.4544,-5.3816,-5.3551,-5.3517,-5.3618,-5.4139,-5.4606,-5.4606,-5.5844,-5.6912,-5.6912,-5.7498,-5.7774,-5.7116,-5.634,-5.5581,-5.4818,-5.4074,-5.3584,-5.3518,-5.3585,-5.3885,-5.4557,-5.462,-5.5229,-5.668,-5.5332,-5.4818,-5.5552,-5.4267,-5.3518,-5.3518,-5.3518,-5.3518,-5.3518,-5.3518,-5.3518,-5.3518,-5.3518,-5.3518,-2.4932,-2.5169,-2.5354,-2.412,0.0,0.0,-2.3289,-2.4323,0.0,0.0,0.0,0.0,0.0,0.0,0.0,0.0,0.0,0.0,0.0,0.0,0.0,0.0,0.0,0.0,0.0,-4.2241,-4.2362,-4.2,-4.2903,-4.3303,-4.2865,-4.3178,-4.3196,-4.2846,-4.3414,-4.4048,-4.4691,-4.5663,-4.5923,-4.5597,-4.6267,-4.6014,-4.4961,-4.4824,-4.472,-4.4615,-4.472,-4.5035,-4.5632,-4.7308,-4.838,-4.9124,-5.0688,-5.1292,-5.1292,-5.1292,-5.1368,-5.1368,-5.05,-5.0195,-5.0202,-5.0061,-5.042,-5.1251,-5.2873,-5.4249,-5.5588,-5.7274,-5.7757,-5.7594,-5.685,-5.6095,-5.5291,-5.4575,-5.3946,-5.3651,-5.4264,-5.4513,-5.4606,-5.4606,-5.5844,-5.6912,-5.6912,-5.7498,-5.795,-5.7797,-5.7141,-5.6367,-5.5581,-5.4848,-5.4171,-5.3551,-5.4025,-5.4432,-5.4601,-5.4601,-5.4965,-5.5881,-5.4546,-5.4042,-5.4787,-5.3979,-5.3518,-5.3518,-5.3518,-5.3518,-5.3518,-5.3518,-5.3518,-5.3518,-5.3518,-5.3518,-2.6454,-2.615,-2.615,-2.62,0.0,0.0,0.0,0.0,-2.4932,0.0,0.0,0.0,0.0,0.0,0.0,0.0,0.0,0.0,0.0,0.0,0.0,0.0,0.0,0.0,0.0,-4.1869,-4.2262,-4.2262,-4.2789,-4.2846,-4.2282,-4.2808,-4.2995,-4.2693,-4.3214,-4.3681,-4.4085,-4.4892,-4.5404,-4.5539,-4.5708,-4.5701,-4.5468,-4.4879,-4.4615,-4.4615,-4.4615,-4.4776,-4.5172,-4.6707,-4.7513,-4.7974,-4.9823,-5.0554,-5.0554,-5.0554,-5.077,-5.0981,-5.0286,-5.0004,-4.9947,-4.9605,-5.0035,-5.094,-5.2456,-5.4482,-5.6534,-5.7687,-5.7997,-5.7821,-5.7091,-5.6313,-5.5524,-5.4787,-5.4042,-5.3618,-5.3979,-5.4359,-5.4606,-5.4606,-5.5844,-5.6642,-5.59,-5.6695,-5.7449,-5.7449,-5.7116,-5.676,-5.634,-5.5619,-5.5019,-5.4635,-5.4938,-5.5141,-5.5141,-5.5485,-5.5852,-5.624,-5.5541,-5.5302,-5.5684,-5.5007,-5.4431,-5.4059,-5.3687,-5.3518,-5.3518,-5.3518,-5.3518,-5.3518,-5.3518,-5.3518,0.0,0.0,0.0,0.0,0.0,-2.5963,0.0,0.0,0.0,-2.6336,0.0,0.0,0.0,0.0,0.0,0.0,0.0,0.0,0.0,0.0,0.0,0.0,0.0,0.0,0.0,-4.0745,-4.1542,-4.2772,-4.2317,-4.1995,-4.1964,-4.2422,-4.2693,-4.2693,-4.3214,-4.3515,-4.3515,-4.4305,-4.4967,-4.5529,-4.5315,-4.5505,-4.6014,-4.5035,-4.4615,-4.4615,-4.4615,-4.4615,-4.4716,-4.6041,-4.665,-4.698,-4.9021,-4.9809,-4.9809,-4.9809,-5.0202,-5.0608,-5.0174,-4.9919,-4.9751,-4.9346,-4.9684,-5.0629,-5.2313,-5.4628,-5.6825,-5.757,-5.7904,-5.7821,-5.7091,-5.6313,-5.5524,-5.4787,-5.4042,-5.3517,-5.3651,-5.4203,-5.4606,-5.4606,-5.5722,-5.6273,-5.5034,-5.609,-5.7103,-5.7129,-5.7273,-5.7298,-5.7156,-5.6545,-5.6042,-5.5754,-5.5852,-5.5919,-5.5919,-5.6474,-5.6807,-5.6807,-5.6669,-5.66,-5.66,-5.603,-5.5446,-5.4803,-5.4093,-5.3721,-5.3721,-5.3585,-5.3518,-5.3518,-5.3518,-5.3518,0.0,0.0,0.0,0.0,-2.9702,0.0,0.0,0.0,-2.4882,-2.326,0.0,0.0,0.0,0.0,0.0,0.0,0.0,0.0,0.0,0.0,0.0,0.0,0.0,0.0,0.0,0.0,-3.9697,-4.3137,-4.0943,-4.0365,-4.2488,-4.2655,-4.2693,-4.2693,-4.3214,-4.3515,-4.3515,-4.4305,-4.4556,-4.4223,-4.489,-4.5057,-4.4803,-4.4637,-4.4615,-4.4615,-4.4615,-4.4615,-4.4682,-4.55,-4.621,-4.695,-4.8501,-4.9107,-4.9107,-4.9107,-4.9168,-4.9316,-4.9804,-4.9605,-4.9195,-4.9722,-5.042,-5.1479,-5.3667,-5.5033,-5.6004,-5.6799,-5.7498,-5.7821,-5.7091,-5.6313,-5.5524,-5.4787,-5.4042,-5.3651,-5.4359,-5.4544,-5.4606,-5.4606,-5.5251,-5.5772,-5.5601,-5.6858,-5.7897,-5.7923,-5.8536,-5.8672,-5.8042,-5.7865,-5.7297,-5.5857,-5.6292,-5.6697,-5.6697,-5.6735,-5.6806,-5.6806,-5.6195,-5.5822,-5.5822,-5.5751,-5.5683,-5.5581,-5.4837,-5.4465,-5.4465,-5.3822,-5.3518,-5.3518,-5.3518,-5.3518,0.0,0.0,0.0,0.0,0.0,0.0,-2.5169,0.0,-2.3665,0.0,0.0,0.0,0.0,0.0,0.0,0.0,0.0,0.0,0.0,0.0,0.0,0.0,0.0,0.0,0.0,0.0,0.0,0.0,0.0,-3.9283,-4.0912,-4.2385,-4.3032,-4.2693,-4.3214,-4.3339,-4.305,-4.3377,-4.3696,-4.4067,-4.405,-4.4416,-4.5115,-4.4776,-4.4615,-4.4615,-4.4615,-4.4615,-4.4682,-4.5399,-4.6143,-4.6887,-4.797,-4.8612,-4.9018,-4.9018,-4.9018,-4.9015,-4.9316,-4.9226,-4.9215,-5.0339,-5.1203,-5.2268,-5.454,-5.5466,-5.5976,-5.7191,-5.775,-5.7821,-5.7091,-5.6313,-5.5524,-5.4787,-5.4042,-5.3584,-5.3881,-5.3979,-5.4211,-5.507,-5.5476,-5.5848,-5.6261,-5.6877,-5.7328,-5.7328,-5.7994,-5.8384,-5.8024,-5.7999,-5.7758,-5.7043,-5.7239,-5.7442,-5.7442,-5.7442,-5.7442,-5.7442,-5.7137,-5.6968,-5.6968,-5.6562,-5.6359,-5.6359,-5.5615,-5.5243,-5.5243,-5.4938,-5.4566,-5.4126,-5.3687,-5.3518,-3.3918,0.0,0.0,0.0,0.0,0.0,0.0,0.0,0.0,0.0,0.0,0.0,0.0,0.0,0.0,0.0,0.0,0.0,0.0,0.0,0.0,0.0,0.0,0.0,0.0,0.0,0.0,0.0,0.0,0.0,-4.0151,-4.1952,-4.2923,-4.2902,-4.3286,-4.3303,-4.2902,-4.2751,-4.3151,-4.4067,-4.3474,-4.3913,-4.5214,-4.4803,-4.4615,-4.4615,-4.4615,-4.4615,-4.4682,-4.5399,-4.6143,-4.6853,-4.7631,-4.8376,-4.9018,-4.9018,-4.9018,-4.9015,-4.9195,-4.9422,-4.9801,-5.0841,-5.1702,-5.2666,-5.452,-5.5232,-5.5695,-5.7004,-5.7522,-5.7522,-5.6773,-5.6114,-5.5466,-5.4513,-5.3881,-5.3551,-5.3754,-5.3788,-5.4194,-5.5441,-5.5881,-5.6191,-5.6707,-5.6942,-5.7105,-5.7138,-5.7793,-5.8359,-5.8537,-5.838,-5.8254,-5.8247,-5.8029,-5.7881,-5.7881,-5.7881,-5.7881,-5.7881,-5.7881,-5.7881,-5.7881,-5.7374,-5.7103,-5.7103,-5.6393,-5.6021,-5.6021,-5.5818,-5.5446,-5.4871,-5.416,-5.3687,0.0,0.0,0.0,-3.0533,0.0,0.0,0.0,0.0,-2.6166,0.0,0.0,0.0,0.0,0.0,0.0,-2.4745,0.0,0.0,0.0,0.0,0.0,0.0,0.0,0.0,0.0,0.0,0.0,0.0,0.0,0.0,-4.1141,-4.1449,-4.2105,-4.3426,-4.3497,-4.3497,-4.348,-4.2976,-4.313,-4.3999,-4.345,-4.3692,-4.4643,-4.4615,-4.4615,-4.4615,-4.4615,-4.4615,-4.4682,-4.5399,-4.6143,-4.6853,-4.7631,-4.8376,-4.9018,-4.9018,-4.9018,-4.9077,-4.9751,-5.0495,-5.1139,-5.1201,-5.1691,-5.2434,-5.3314,-5.4074,-5.4787,-5.5581,-5.634,-5.6747,-5.5948,-5.5724,-5.532,-5.3881,-5.3551,-5.3687,-5.4397,-5.4566,-5.4769,-5.5548,-5.6293,-5.6767,-5.6801,-5.7398,-5.7901,-5.7967,-5.8591,-5.9373,-6.0207,-5.9604,-5.9043,-5.9044,-5.8388,-5.7881,-5.7881,-5.7881,-5.7881,-5.7881,-5.7881,-5.7881,-5.7881,-5.7881,-5.7848,-5.7848,-5.7137,-5.6765,-5.6765,-5.6055,-5.5716,-5.5683,-5.4905,-5.416,0.0,0.0,-3.755,-3.3051,0.0,0.0,0.0,0.0,0.0,0.0,0.0,0.0,0.0,0.0,-2.6387,-2.5372,-2.5033,0.0,0.0,0.0,0.0,0.0,0.0,0.0,0.0,0.0,0.0,0.0,0.0,0.0,0.0,-4.0453,-4.165,-4.2105,-4.2668,-4.2599,-4.1796,-4.1603,-4.1963,-4.2868,-4.2698,-4.3306,-4.4615,-4.4615,-4.4615,-4.4615,-4.4615,-4.4615,-4.4682,-4.5399,-4.6143,-4.6853,-4.7631,-4.8376,-4.9018,-4.9018,-4.9018,-4.9083,-4.9801,-5.0562,-5.1272,-5.1779,-5.242,-5.3172,-5.396,-5.4388,-5.4757,-5.5495,-5.5893,-5.592,-5.5144,-5.4999,-5.4695,-5.3717,-5.3856,-5.4296,-5.4532,-5.4972,-5.5547,-5.6292,-5.663,-5.6968,-5.7442,-5.7727,-5.7906,-5.7906,-5.8146,-5.8423,-5.8703,-5.8493,-5.8317,-5.8317,-5.8065,-5.7881,-5.7881,-5.7881,-5.7881,-5.7881,-5.7881,-5.7881,-5.7881,-5.7881,-5.7881,-5.7881,-5.7645,-5.7509,-5.7509,-5.7273,-5.69,-5.6427,-5.6156,-5.5412,-3.8362,-3.8633,0.0,-3.4675,-3.3423,0.0,-2.8367,0.0,0.0,0.0,0.0,0.0,0.0,0.0,0.0,-2.6928,-2.571,0.0,0.0,0.0,0.0,0.0,0.0,0.0,0.0,0.0,-2.7215,-3.0548,0.0,0.0,0.0,0.0,-4.1234,-4.1706,-4.2164,-4.2103,-4.1573,-4.1093,-4.1502,-4.262,-4.2419,-4.3098,-4.4615,-4.4615,-4.4615,-4.4615,-4.4615,-4.4615,-4.4682,-4.5669,-4.638,-4.6887,-4.7902,-4.8578,-4.9018,-4.9018,-4.9018,-4.912,-4.983,-5.0581,-5.1329,-5.2056,-5.2829,-5.3518,-5.4031,-5.42,-5.4359,-5.5084,-5.532,-5.5203,-5.4726,-5.4606,-5.4457,-5.399,-5.4262,-5.4735,-5.5277,-5.575,-5.6325,-5.7036,-5.7171,-5.734,-5.7814,-5.7881,-5.7881,-5.7881,-5.7881,-5.8027,-5.8281,-5.8065,-5.8027,-5.8281,-5.8065,-5.7881,-5.7881,-5.7881,-5.7881,-5.7881,-5.7881,-5.7881,-5.7881,-5.7881,-5.7881,-5.7881,-5.7881,-5.7881,-5.7881,-5.7881,-5.7645,-5.7171,-5.7171,-5.6528]},{"header":{"parameterUnit":"m.s-1","parameterCategory":1,"la1":30.6,"la2":29.2853,"lo1":-89.7004,"lo2":-87.6739,"dy":0.0162,"dx":0.0183,"nx":112,"ny":82,"refTime":"2026-04-24T00:00:00:Z","depth":0,"parameterNumber":3,"parameterNumberName":"V-component_of_WINDS"},"data":[0.0,0.0,0.0,0.0,0.0,0.0,0.0,0.0,0.0,0.0,0.0,0.0,0.0,0.0,0.0,0.0,0.0,0.0,0.0,0.0,0.0,0.0,0.0,0.0,0.0,0.0,0.0,0.0,0.0,0.0,0.0,0.0,0.0,0.0,0.0,0.0,0.0,0.0,0.0,0.0,0.0,0.0,0.0,0.0,0.0,0.0,0.0,0.0,0.0,0.0,0.0,0.0,0.0,0.0,0.0,0.0,0.0,0.0,0.0,0.0,0.0,0.0,0.0,0.0,0.0,0.0,0.0,0.0,0.0,0.0,0.0,0.0,0.0,0.0,0.0,0.0,0.0,0.0,0.0,0.0,0.0,0.0,0.0,0.0,0.0,0.0,0.0,0.0,0.0,0.0,0.0,1.4868,1.6811,1.7695,1.6863,1.644,1.5725,1.4499,0.0,0.0,0.0,0.0,0.0,0.0,0.0,0.0,0.0,0.0,0.0,0.0,0.0,0.0,0.0,0.0,0.0,0.0,0.0,0.0,0.0,0.0,0.0,0.0,0.0,0.0,0.0,0.0,0.0,0.0,0.0,0.0,0.0,0.0,0.0,0.0,0.0,0.0,0.0,0.0,0.0,0.0,0.0,0.0,0.0,0.0,0.0,0.0,0.0,0.0,0.0,0.0,0.0,0.0,0.0,0.0,0.0,0.0,0.0,0.0,0.0,0.0,0.0,0.0,0.0,0.0,0.0,0.0,0.0,0.0,0.0,0.0,0.0,0.0,0.0,0.0,0.0,0.0,0.0,0.0,0.0,0.0,0.0,0.0,0.0,0.0,0.0,0.0,0.0,0.0,0.0,0.0,0.0,0.0,0.0,0.0,0.0,0.0,0.0,0.0,0.0,0.0,0.0,0.0,1.2914,1.5606,1.7159,1.7812,1.7324,1.702,1.63,1.4974,0.0,0.0,0.0,0.0,0.0,0.0,0.0,0.0,0.0,0.0,0.0,0.0,0.0,0.0,0.0,0.0,0.0,0.0,0.0,0.0,0.0,0.0,0.0,0.0,0.0,0.0,0.0,0.0,0.0,0.0,0.0,0.0,0.0,0.0,0.0,0.0,0.0,0.0,0.0,0.0,0.0,0.0,0.0,0.0,0.0,0.0,0.0,0.0,0.0,0.0,0.0,0.0,0.0,0.0,0.0,0.0,0.0,0.0,0.0,0.0,0.0,0.0,0.0,0.0,0.0,0.0,0.0,0.0,0.0,0.0,0.0,0.0,0.0,0.0,0.0,0.0,0.0,0.0,0.0,0.0,0.0,0.0,0.0,0.0,0.0,0.0,0.0,0.0,0.0,0.0,0.0,0.0,0.0,0.0,0.0,0.0,0.0,0.0,0.0,0.0,0.0,0.0,0.0,1.3528,1.4827,1.693,1.7846,1.8052,1.7441,1.6843,1.6087,1.5055,1.3108,0.0,0.0,0.0,0.0,0.0,0.0,0.0,0.0,0.0,0.0,0.0,0.0,0.0,0.0,0.0,0.0,0.0,0.0,0.0,0.0,0.0,0.0,0.0,0.0,0.0,0.0,0.0,0.0,0.0,0.0,0.0,0.0,0.0,0.0,0.0,0.0,0.0,0.0,0.0,0.0,0.0,0.0,0.0,0.0,0.0,0.0,0.0,0.0,0.0,0.0,0.0,0.0,0.0,0.0,0.0,0.0,0.0,0.0,0.0,0.0,0.0,0.0,0.0,0.0,0.0,0.0,0.0,0.0,0.0,0.0,0.0,0.0,0.0,0.0,0.0,0.0,0.0,0.0,0.0,0.0,0.0,0.0,0.0,0.0,0.0,0.0,0.0,0.0,0.0,0.0,0.0,0.0,0.0,0.0,0.0,0.0,0.0,0.0,0.0,0.0,0.0,0.0,1.554,1.6402,1.7993,1.8403,1.8344,1.7734,1.6633,1.5713,1.5182,1.3087,0.0,0.0,0.0,0.0,0.0,0.0,0.0,0.0,0.0,0.0,0.0,0.0,0.0,0.0,0.0,0.0,0.0,0.0,0.0,0.0,0.0,0.0,0.0,0.0,0.0,0.0,0.0,0.0,0.0,0.0,0.0,0.0,0.0,0.0,0.0,0.0,0.0,0.0,0.0,0.0,0.0,0.0,0.0,0.0,0.0,0.0,0.0,0.0,0.0,0.0,0.0,0.0,0.0,0.0,0.0,0.0,0.0,0.0,0.0,0.0,0.0,0.0,0.0,0.0,0.0,0.0,0.0,0.0,0.0,0.0,0.0,0.0,0.0,0.0,0.0,0.0,0.0,0.0,0.0,0.0,0.0,0.0,0.0,0.0,0.0,0.0,0.0,0.0,0.0,0.0,0.0,0.0,0.0,0.0,0.0,0.0,0.0,0.0,0.0,0.0,0.0,0.0,1.4674,1.5909,1.8321,1.8578,1.8578,1.852,1.6609,1.5483,1.5562,1.2957,0.0,0.0,0.0,0.0,0.0,0.0,0.0,0.0,0.0,0.0,0.0,0.0,0.0,0.0,0.0,0.0,0.0,0.0,0.0,0.0,0.0,0.0,0.0,0.0,0.0,0.0,0.0,0.0,0.0,0.0,0.0,0.0,0.0,0.0,0.0,0.0,0.0,0.0,0.0,0.0,0.0,0.0,0.0,0.0,0.0,0.0,0.0,0.0,0.0,0.0,0.0,0.0,0.0,0.0,0.0,0.0,0.0,0.0,0.0,0.0,0.0,0.0,0.0,0.0,0.0,0.0,0.0,0.0,0.0,0.0,0.0,0.0,0.0,0.0,0.0,0.0,0.0,0.0,0.0,0.0,0.0,0.0,0.0,0.0,0.0,0.0,0.0,0.0,0.0,0.0,0.0,0.0,0.0,0.0,0.0,0.0,0.0,0.0,0.0,0.0,0.0,0.0,1.565,1.7004,0.0,1.8851,1.8926,1.8617,1.7135,1.6036,1.5622,0.0,0.0,0.0,0.0,0.0,0.0,0.0,0.0,0.0,0.0,0.0,0.0,0.0,0.0,0.0,0.0,0.0,0.0,0.0,0.0,0.0,0.0,0.0,0.0,0.0,0.0,0.0,0.0,0.0,0.0,0.0,0.0,0.0,0.0,0.0,0.0,0.0,0.0,0.0,0.0,0.0,0.0,0.0,0.0,0.0,0.0,0.0,0.0,0.0,0.0,0.0,0.0,0.0,0.0,0.0,0.0,0.0,0.0,0.0,0.0,0.0,0.0,0.0,0.0,0.0,0.0,0.0,0.0,0.0,0.0,0.0,0.0,0.0,0.0,0.0,0.0,0.0,0.0,0.0,0.0,0.0,0.0,0.0,0.0,0.0,0.0,0.0,0.0,0.0,0.0,0.0,0.0,0.0,0.0,0.0,0.0,0.0,0.0,0.0,0.0,0.0,0.0,1.4465,1.6304,1.7773,0.0,1.9102,1.916,1.8867,1.7168,1.5936,1.5601,0.0,0.0,0.0,0.0,0.0,0.0,0.0,0.0,0.0,0.0,0.0,0.0,0.0,0.0,0.0,0.0,0.0,0.0,0.0,0.0,0.0,0.0,0.0,0.0,0.0,0.0,0.0,0.0,0.0,0.0,0.0,0.0,0.0,0.0,0.0,0.0,0.0,0.0,0.0,0.0,0.0,0.0,0.0,0.0,0.0,0.0,0.0,0.0,0.0,0.0,0.0,0.0,0.0,0.0,0.0,0.0,0.0,0.0,0.0,0.0,0.0,0.0,0.0,0.0,0.0,0.0,0.0,0.0,0.0,0.0,0.0,0.0,0.0,0.0,0.0,0.0,0.0,0.0,0.0,0.0,0.0,0.0,0.0,0.0,0.0,0.0,0.0,0.0,0.0,0.0,0.0,0.0,0.0,0.0,0.0,0.0,0.0,0.0,0.0,0.0,0.0,0.0,1.4488,1.6332,1.7876,1.9165,1.9297,1.9297,1.9297,1.6523,1.5029,0.0,0.0,0.0,0.0,0.0,0.0,0.0,0.0,0.0,0.0,0.0,0.0,0.0,0.0,0.0,0.0,0.0,0.0,0.0,0.0,0.0,0.0,0.0,0.0,0.0,0.0,0.0,0.0,0.0,0.0,0.0,0.0,0.0,0.0,0.0,0.0,0.0,0.0,0.0,0.0,0.0,0.0,0.0,0.0,0.0,0.0,0.0,0.0,0.0,0.0,0.0,0.0,0.0,0.0,0.0,0.0,0.0,0.0,0.0,0.0,0.0,0.0,0.0,0.0,0.0,0.0,0.0,0.0,0.0,0.0,0.0,0.0,0.0,0.0,0.0,0.0,0.0,0.0,0.0,0.0,0.0,0.0,0.0,0.0,0.0,0.0,0.0,0.0,0.0,0.0,0.0,0.0,0.0,0.0,0.0,0.0,0.0,0.0,0.0,0.0,0.0,0.0,0.0,1.4894,1.6728,1.8197,1.9163,1.9297,1.9297,1.9297,1.7103,1.555,1.5133,0.0,0.0,0.0,0.0,0.0,0.0,0.0,0.0,0.0,0.0,0.0,0.0,0.0,0.0,0.0,0.0,0.0,0.0,0.0,0.0,0.0,0.0,0.0,0.0,0.0,0.0,0.0,0.0,0.0,0.0,0.0,0.0,0.0,0.0,0.0,0.0,0.0,0.0,0.0,0.0,0.0,0.0,0.0,0.0,0.0,0.0,0.0,0.0,0.0,0.0,0.0,0.0,0.0,0.0,0.0,0.0,0.0,0.0,0.0,0.0,0.0,0.0,0.0,0.0,0.0,0.0,0.0,0.0,0.0,0.0,0.0,0.0,0.0,0.0,0.0,0.0,0.0,0.0,0.0,0.0,0.0,0.0,0.0,0.0,0.0,0.0,0.0,0.0,0.0,0.0,0.0,0.0,0.0,0.0,0.0,0.0,0.0,0.0,0.0,0.0,0.0,0.0,1.5069,1.7038,1.8516,1.9219,1.9297,1.9297,1.9297,1.7337,1.585,1.5184,0.0,0.0,0.0,0.0,0.0,0.0,0.0,0.0,0.0,0.0,0.0,0.0,0.0,0.0,0.0,0.0,0.0,0.0,0.0,0.0,0.0,0.0,0.0,0.0,0.0,0.0,0.0,0.0,0.0,0.0,0.0,0.0,0.0,0.0,0.0,0.0,0.0,0.0,0.0,0.0,0.0,0.0,0.0,0.0,0.0,0.0,0.0,0.0,0.0,0.0,0.0,0.0,0.0,0.0,0.0,0.0,0.0,0.0,0.0,0.0,0.0,0.0,0.0,0.0,0.0,0.0,0.0,0.0,0.0,0.0,0.0,0.0,0.0,0.0,0.0,0.0,0.0,0.0,0.0,0.0,0.0,0.0,0.0,0.0,0.0,0.0,0.0,0.0,0.0,0.0,0.0,0.0,0.0,0.0,0.0,0.0,0.0,0.0,0.0,0.0,0.0,0.0,1.5108,1.7272,1.8773,1.9238,1.9297,1.9297,1.9297,1.7337,1.592,1.5443,0.0,0.0,0.0,0.0,0.0,0.0,0.0,0.0,0.0,0.0,0.0,0.0,0.0,0.0,0.0,0.0,0.0,0.0,0.0,0.0,0.0,0.0,0.0,0.0,0.0,0.0,0.0,0.0,0.0,0.0,0.0,0.0,0.0,0.0,0.0,0.0,0.0,0.0,0.0,0.0,0.0,0.0,0.0,0.0,0.0,0.0,0.0,0.0,0.0,0.0,0.0,0.0,0.0,0.0,0.0,0.0,0.0,0.0,0.0,0.0,1.5118,0.0,0.0,0.0,0.0,0.0,0.0,0.0,0.0,0.0,0.0,0.0,0.0,0.0,0.0,0.0,0.0,0.0,0.0,0.0,0.0,0.0,0.0,0.0,0.0,0.0,0.0,0.0,0.0,0.0,0.0,0.0,0.0,0.0,0.0,0.0,0.0,0.0,0.0,0.0,0.0,0.0,1.5108,1.7272,1.8773,1.9238,1.9297,1.9297,1.9297,1.7337,1.5792,1.4992,1.2966,0.0,0.0,0.0,0.0,0.0,0.0,0.0,0.0,0.0,0.0,0.0,0.0,0.0,0.0,0.0,0.0,0.0,0.0,0.0,0.0,0.0,0.0,0.0,0.0,0.0,0.0,0.0,0.0,0.0,0.0,0.0,0.0,0.0,0.0,0.0,0.0,0.0,0.0,0.0,0.0,0.0,0.0,0.0,0.0,0.0,0.0,0.0,0.0,0.0,0.0,0.0,0.0,0.0,0.0,0.0,0.0,0.0,0.0,0.0,0.0,1.6134,0.0,0.0,0.0,0.0,0.0,0.0,0.0,0.0,0.0,0.0,0.0,0.0,0.0,0.0,0.0,0.0,0.0,0.0,0.0,0.0,0.0,0.0,0.0,0.0,0.0,0.0,0.0,0.0,0.0,0.0,0.0,0.0,0.0,0.0,0.0,0.0,0.0,0.0,0.0,0.0,1.5449,1.7389,1.8851,1.9512,1.9414,1.9297,1.9297,1.7729,1.6359,1.5478,1.3702,0.0,0.0,0.0,0.0,0.0,0.0,0.0,0.0,0.0,0.0,0.0,0.0,0.0,0.0,0.0,0.0,0.0,0.0,0.0,0.0,0.0,0.0,0.0,0.0,0.0,0.0,0.0,0.0,0.0,0.0,0.0,0.0,0.0,0.0,0.0,0.0,0.0,0.0,0.0,0.0,0.0,0.0,0.0,0.0,0.0,0.0,0.0,0.0,0.0,0.0,0.0,0.0,0.0,2.0139,2.0562,2.0264,2.0583,2.0974,2.1351,1.9544,1.8282,1.7424,0.0,0.0,0.0,0.0,0.0,0.0,0.0,0.0,0.0,0.0,0.0,0.0,0.0,0.0,0.0,0.0,0.0,0.0,0.0,0.0,0.0,0.0,0.0,0.0,0.0,1.7012,1.6816,0.0,0.0,0.0,0.0,0.0,0.0,0.0,0.0,0.0,0.0,0.0,0.0,1.5948,1.7676,1.9007,1.9824,1.9531,1.9297,1.9297,1.8125,1.7044,1.6144,1.4668,1.3223,0.0,0.0,0.0,0.0,0.0,0.0,0.0,0.0,0.0,0.0,0.0,0.0,0.0,0.0,0.0,0.0,0.0,0.0,0.0,0.0,0.0,0.0,0.0,0.0,0.0,0.0,0.0,0.0,0.0,0.0,0.0,0.0,1.3313,1.3787,0.0,0.0,0.0,0.0,0.0,0.0,0.0,0.0,0.0,0.0,0.0,0.0,0.0,1.9453,2.0683,2.1541,2.2123,2.2465,2.3349,2.3757,2.3725,2.3803,2.3279,2.2391,2.198,0.0,2.0043,1.9221,0.0,0.0,0.0,0.0,0.0,0.0,0.0,0.0,0.0,0.0,0.0,0.0,0.0,0.0,0.0,0.0,0.0,0.0,0.0,0.0,0.0,0.0,1.8188,1.8247,1.8105,1.7812,0.0,1.5859,1.4258,1.334,1.2246,0.0,0.0,0.0,0.0,0.0,0.0,0.0,1.6375,1.8144,1.9375,1.9863,1.9531,1.9297,1.9297,1.8125,1.7044,1.6144,1.5488,1.4414,1.2798,1.2187,0.0,0.0,0.0,0.0,0.0,0.0,0.0,0.0,0.0,0.0,0.0,0.0,0.0,0.0,0.0,0.0,0.0,0.0,0.0,0.0,0.0,0.0,0.0,0.0,0.0,0.0,0.0,0.0,0.0,1.3047,1.4134,1.3848,1.4495,1.4315,0.0,0.0,0.0,0.0,0.0,0.0,0.0,0.0,0.0,2.0703,2.0977,2.1719,2.3008,2.3842,2.4551,2.498,2.5586,2.5879,2.581,2.4711,2.3993,2.3484,2.2368,2.1919,2.1857,2.0532,1.9575,1.8879,0.0,0.0,0.0,0.0,1.8203,1.8301,1.9277,1.9473,0.0,0.0,0.0,0.0,0.0,0.0,0.0,0.0,0.0,0.0,0.0,0.0,0.0,2.0001,2.0137,2.0059,1.9551,1.8516,1.7129,0.0,1.4687,1.4023,1.2617,0.0,0.0,0.0,0.0,0.0,1.7233,1.873,1.9805,2.0234,1.9687,1.9297,1.9297,1.834,1.7461,1.6868,1.6183,1.5361,1.4336,1.3203,1.2269,0.0,0.0,0.0,0.0,0.0,0.0,0.0,0.0,0.0,0.0,0.0,0.0,0.0,0.0,0.0,0.0,0.0,0.0,0.0,0.0,0.0,0.0,0.0,0.0,0.0,0.0,0.0,0.0,1.4207,1.472,1.4388,1.5601,1.5418,0.0,0.0,0.0,0.0,0.0,0.0,1.8625,1.8834,1.9947,2.2293,2.3105,2.4004,2.5059,2.5693,2.623,2.6562,2.6875,2.7012,2.6941,2.5098,2.432,2.4353,2.257,2.2384,2.317,2.1606,2.0966,2.0907,2.0333,1.9543,1.8826,2.0101,2.0371,2.0293,2.1602,2.1836,2.1385,2.0547,0.0,1.9434,1.7631,0.0,0.0,0.0,0.0,1.8848,1.959,2.037,2.1036,2.1328,2.166,2.1699,2.1094,2.0566,1.9551,0.0,1.6816,1.6317,1.4601,0.0,0.0,0.0,0.0,1.6907,1.8164,1.9258,2.0078,2.0566,1.9842,1.9297,1.9297,1.8496,1.7773,1.7246,1.6602,1.5937,1.5273,1.3926,1.3096,1.2845,0.0,0.0,0.0,0.0,0.0,0.0,0.0,0.0,0.0,0.0,0.0,0.0,0.0,0.0,0.0,0.0,0.0,0.0,0.0,0.0,0.0,0.0,0.0,0.0,0.0,0.0,0.0,0.0,0.0,1.6323,1.7027,0.0,0.0,0.0,0.0,1.4359,1.5578,1.6682,1.7294,2.0042,2.22,2.3583,2.5298,2.6406,2.6875,2.6934,2.6973,2.6992,2.7012,2.7012,2.6961,2.5445,2.4785,2.4681,2.3282,2.3166,2.3964,2.2763,2.2565,2.2901,2.2496,2.2048,2.1736,2.2207,2.2363,2.2363,2.2441,2.2461,2.25,2.2789,2.2087,2.0917,2.0,1.9104,0.0,0.0,1.9822,2.0586,2.0976,2.1484,2.1816,2.1855,2.1875,2.1875,2.1836,2.1484,2.0605,0.0,1.7891,1.7187,1.6629,0.0,1.6105,1.6473,1.6992,1.7773,1.9062,1.9629,2.0078,2.0566,1.9842,1.9297,1.9297,1.8496,1.7656,1.6785,1.6687,1.6133,1.4863,1.4309,1.3691,1.292,1.1545,0.0,0.0,0.0,0.0,0.0,0.0,0.0,0.0,0.0,0.0,0.0,0.0,0.0,0.0,0.0,0.0,0.0,0.0,0.0,0.0,0.0,0.0,0.0,0.0,0.0,0.0,0.0,0.0,1.584,1.7196,0.0,1.4594,1.5805,1.6542,1.615,1.6624,1.7827,1.9876,2.0575,2.1545,2.2874,2.3548,2.4123,2.4561,2.5516,2.6138,2.6451,2.7391,2.7338,2.6398,2.4858,2.3528,2.2445,2.19,2.2237,2.3252,2.3832,2.4361,2.4719,2.4336,2.4108,2.399,2.4102,2.416,2.4121,2.3828,2.373,2.3633,2.2906,2.2246,2.1602,2.1269,2.0977,2.082,2.125,2.1582,2.1914,2.2301,2.2535,2.2652,2.2652,2.2652,2.2617,2.2344,2.2168,2.1797,2.0898,1.9805,1.8711,1.7734,1.7637,1.7676,1.7545,1.8164,1.8867,1.959,2.0059,2.0391,2.0586,1.9842,1.9297,1.9297,1.8496,1.7773,1.7187,1.6863,1.6239,1.5234,1.4484,1.3841,1.3301,1.2262,1.1092,0.0,0.0,0.0,0.0,0.0,0.0,0.0,0.0,0.0,0.0,0.0,0.0,0.0,0.0,0.0,0.0,0.0,0.0,0.0,0.0,0.0,0.0,0.0,0.0,0.0,0.0,1.5782,1.5987,1.743,1.7417,1.4926,1.6497,1.7571,1.7332,1.753,1.8454,2.0361,2.0626,2.1091,2.2015,2.31,2.3607,2.342,2.4893,2.5775,2.61,2.6554,2.6771,2.6771,2.4211,2.2688,2.2038,2.1481,2.1892,2.2984,2.4527,2.5517,2.6133,2.5684,2.543,2.5293,2.5293,2.5195,2.5028,2.4414,2.4297,2.4238,2.3042,2.2637,2.25,2.2363,2.2305,2.2363,2.2637,2.2672,2.275,2.3023,2.3101,2.3101,2.3101,2.3101,2.3023,2.275,2.2617,2.2441,2.2148,2.1152,2.0039,1.9043,1.8984,1.8948,1.8691,1.9141,1.9648,2.0078,2.0429,2.0605,2.0605,1.9922,1.9434,1.9297,1.8496,1.7773,1.7207,1.6758,1.6113,1.5234,1.4484,1.3899,1.3516,1.252,1.1445,1.0293,0.0,0.0,0.0,0.0,0.0,0.0,0.0,0.0,0.0,0.0,0.0,0.0,0.0,0.0,0.0,0.0,0.0,0.0,0.0,0.0,0.0,0.0,0.0,1.5733,1.5662,1.5893,1.6875,1.7864,1.7779,1.6048,1.7974,1.8893,1.7714,1.817,1.8504,1.8504,2.0127,2.1052,2.1107,2.4247,2.5223,2.3782,2.5241,2.5972,2.5972,2.4578,2.5368,2.7979,2.3671,2.2435,2.3599,2.2251,2.2233,2.3365,2.4879,2.6113,2.6992,2.6562,2.6133,2.5713,2.5693,2.5449,2.4988,2.4121,2.4082,2.4277,2.3393,2.3437,2.3711,2.3218,2.3101,2.3101,2.3101,2.3101,2.3101,2.3101,2.3101,2.3101,2.3101,2.3101,2.3101,2.3101,2.2769,2.2539,2.2539,2.1814,2.1093,2.0703,2.0234,1.9941,1.9941,1.9941,0.0,2.0546,2.0605,2.0605,2.0605,2.0176,1.9746,1.9316,1.8496,1.7637,1.6746,1.6289,1.5694,1.4852,1.4328,1.3899,1.3516,1.2269,1.1214,1.0352,0.0,0.0,0.0,0.0,0.0,0.0,0.0,0.0,0.0,0.0,0.0,0.0,0.0,0.0,0.0,0.0,0.0,0.0,0.0,0.0,0.0,1.4858,1.5474,1.5563,1.588,1.6327,1.7076,1.775,1.795,1.7448,1.8238,1.8619,1.8291,1.8597,1.8811,1.8811,1.9464,2.0345,2.1451,2.1493,2.1829,2.2506,2.3173,2.3473,2.3531,2.5303,2.5321,2.3748,2.3707,2.2554,2.0716,2.2435,2.3382,2.3839,2.6442,2.7482,2.7422,2.668,2.6309,2.6172,2.581,2.5449,2.5086,2.4851,2.459,2.4336,2.3789,2.3691,2.3711,2.3218,2.3101,2.3101,2.3101,2.3101,2.3101,2.3101,2.3101,2.3101,2.3101,2.3101,2.3101,2.3101,2.3003,2.2925,2.2925,2.2496,2.1934,2.1172,2.0917,2.0722,2.043,2.0429,0.0,2.0586,2.0605,2.0605,2.0605,2.0176,1.9746,1.9316,1.8496,1.7637,1.6746,1.6016,1.5352,1.4805,1.4328,1.3899,1.3516,1.2876,1.2113,0.0,0.0,0.0,0.0,0.0,0.0,0.0,0.0,0.0,0.0,0.0,0.0,0.0,0.0,0.0,0.0,0.0,0.0,0.0,0.0,0.0,0.0,1.571,1.6249,1.6248,1.6483,1.6911,1.7448,1.7822,1.8076,1.8223,1.8504,1.8677,1.8677,1.8945,1.9105,1.9105,1.9279,2.0153,2.178,2.1132,2.1231,2.2288,2.2438,2.2483,2.2543,2.3638,2.4156,2.412,2.301,2.2494,0.0,2.278,2.3599,2.4875,2.6662,2.7592,0.0,0.0,0.0,0.0,0.0,2.5566,2.5312,2.5184,2.4902,2.4609,2.4199,2.3926,2.375,2.3496,2.3237,2.3101,2.3101,2.3101,2.3101,2.3101,2.3101,2.3101,2.3101,2.3101,2.3101,2.3101,2.3101,2.3101,2.3101,2.2906,0.0,2.1853,2.1424,2.1112,2.0879,2.0723,2.0605,2.0605,2.0605,2.0605,2.0605,2.037,2.0019,1.959,1.8769,0.0,0.0,0.0,1.541,1.4805,1.4328,0.0,0.0,0.0,0.0,0.0,0.0,0.0,0.0,1.1367,1.1211,0.0,0.0,0.0,0.0,0.0,0.0,0.0,0.0,0.0,0.0,0.0,0.0,0.0,0.0,0.0,0.0,1.6601,1.7298,1.7228,1.7286,1.7448,1.7929,1.8049,1.8195,1.8517,1.8798,1.8971,1.8971,1.9225,1.943,1.943,0.0,0.0,0.0,0.0,2.2157,2.2707,2.2453,2.2348,2.2348,2.1157,2.2617,2.6238,2.2068,2.2357,2.6007,2.3085,2.3487,2.61,2.6264,2.7114,2.8262,2.7885,2.72,2.6348,2.5908,2.5732,2.5635,2.5273,0.0,0.0,2.4629,2.4238,2.3926,2.3828,2.3516,2.3159,2.3101,2.3101,2.3101,2.3101,2.3101,2.3101,2.3101,2.3101,2.3101,2.3101,2.3101,2.3101,2.3101,2.3101,2.2984,2.2656,2.1873,2.1307,2.121,2.0898,2.0664,2.0605,2.0605,2.0605,2.0605,0.0,0.0,1.9941,1.9085,1.8422,1.8047,1.6836,1.5811,1.4989,1.4582,1.4367,1.4328,1.4328,1.4309,1.425,1.425,1.4484,1.4911,1.2895,1.2602,0.0,0.0,0.0,0.0,0.0,0.0,0.0,0.0,0.0,0.0,0.0,0.0,0.0,0.0,0.0,1.6843,1.703,1.7289,1.7487,1.7716,1.7862,1.7982,1.8408,1.8771,1.8838,1.9105,1.9279,1.9279,1.9332,1.943,1.943,1.9586,0.0,2.2006,2.13,2.1549,2.287,2.1858,2.1374,2.1374,0.0,0.0,2.1958,2.2064,2.2392,2.2902,2.3239,2.4433,2.6209,2.7384,2.8067,2.8262,2.7885,2.72,2.6387,2.6289,2.6035,2.5674,2.5596,2.5557,2.5527,2.5078,2.493,2.4734,2.4004,2.373,0.0,2.3198,2.3101,2.3101,2.3101,2.3101,2.3101,2.3101,2.3101,2.3101,2.3101,2.3101,2.3101,2.3101,2.3101,2.3062,2.2984,2.2555,2.2031,2.1307,2.1112,2.0977,2.0644,2.0605,2.0605,2.0605,2.0605,2.0429,1.9941,1.9085,1.8422,1.8047,1.7129,1.6367,1.587,1.6074,1.6024,1.5733,1.5713,1.5508,1.5156,1.5156,1.5391,1.5811,1.4715,1.4473,0.0,0.0,0.0,0.0,0.0,0.0,0.0,0.0,0.0,0.0,0.0,1.7221,1.5854,0.0,1.811,1.7301,1.7739,1.8114,1.7849,1.8076,1.8263,1.8263,1.8651,1.8985,1.9132,1.9279,1.943,1.943,1.943,1.9439,1.9573,1.972,2.0621,2.2498,2.1352,2.1541,2.3197,2.1832,2.1109,2.1109,2.1978,2.2256,2.2162,2.185,2.2766,2.4557,2.4194,2.5232,2.7276,2.8014,2.8301,2.8262,2.8066,2.7578,2.6973,2.6543,2.625,2.6035,2.5771,2.5693,2.5654,2.5469,2.5254,2.4988,2.4297,2.3965,2.3691,2.3218,2.3101,2.3101,2.3101,2.3101,2.3101,2.3101,2.3101,2.3101,2.3101,2.3101,2.3101,2.3101,2.3101,2.3101,2.3101,2.2925,2.2574,2.1931,2.1463,2.1112,2.0937,2.0703,2.0605,2.0605,2.0605,2.0507,2.0254,1.9648,1.887,1.8066,1.7584,1.7038,1.6426,1.659,1.659,1.6406,1.6406,1.6289,1.6044,1.6044,1.6289,1.675,1.6289,1.6074,0.0,0.0,0.0,0.0,0.0,0.0,0.0,0.0,1.7183,1.6774,1.7663,1.8083,1.658,1.7919,1.8797,1.751,1.824,1.8712,1.8077,1.8303,1.849,1.849,1.8798,1.9105,1.9345,1.943,1.943,1.943,1.947,1.9559,1.9786,1.9907,2.0777,2.2579,2.1451,2.1541,2.3076,2.179,2.1109,2.1109,2.1109,2.179,2.3076,2.1782,2.3218,2.6677,2.5651,2.6369,2.8301,2.8301,2.8301,2.8301,2.8301,2.8086,2.7748,2.6914,2.6543,2.6348,2.5996,2.5752,2.5693,2.5693,2.5488,2.5117,2.4668,2.4258,2.3828,2.3335,2.3159,2.3101,2.3101,2.3101,2.3101,2.3101,2.3101,2.3101,2.3101,2.3101,2.3101,2.3101,2.3101,2.3101,2.3101,2.3101,2.2945,2.2578,2.1855,2.1288,2.121,2.084,2.0605,2.0605,2.0605,2.0566,2.0488,2.0117,1.9434,1.832,1.8262,1.7949,1.7213,1.7116,1.7077,1.7077,1.698,1.6941,1.6941,1.6941,1.7168,1.75,1.75,1.7324,1.6648,1.6473,1.6746,1.7539,1.748,1.7964,0.0,0.0,1.9354,1.8668,1.9704,1.9912,1.7148,1.7953,1.8716,1.7737,1.7875,1.8131,1.8036,1.8303,1.849,1.849,1.8985,1.939,1.9417,1.943,1.943,1.943,1.9599,1.9773,1.98,2.0294,2.0725,2.0978,2.1047,2.1132,2.1362,2.1172,2.1109,2.1109,2.1109,2.1172,2.1411,2.2385,2.3822,2.5637,2.7529,2.8346,2.8301,2.8301,2.8301,2.8301,2.8301,2.8262,2.8164,2.7695,2.7031,2.6387,2.6328,2.6055,2.5693,2.5693,2.5654,2.5586,2.5137,2.4687,2.4258,2.3828,2.3437,2.3101,2.3101,2.3101,2.3101,2.3101,2.3101,2.3101,2.3101,2.3101,2.3101,2.3101,2.3101,2.3101,2.3101,2.3101,2.2945,2.2578,2.2109,2.168,2.1249,2.084,2.0605,2.0605,2.0605,2.0449,2.0019,1.9941,1.9687,1.918,1.9141,1.9102,1.9004,1.8598,1.8383,1.8383,1.8032,1.7871,1.7871,1.7871,1.7891,1.7949,1.7949,1.791,1.8926,1.8965,1.9043,1.9414,1.9941,2.0644,2.166,2.1836,2.1549,2.0828,2.0881,2.0472,1.8496,1.8803,1.9022,0.0,1.864,1.8994,1.8386,1.841,1.8424,1.825,1.9292,1.9794,1.9149,1.9265,1.943,1.943,1.9639,1.9867,2.004,2.0454,2.0748,2.0922,2.1042,2.1109,2.1109,2.1109,2.1109,2.1109,2.1109,2.1601,2.2591,2.313,2.4458,2.6452,2.8144,2.8672,2.8301,2.8301,2.8301,2.8301,2.8301,2.8301,2.8242,2.7865,2.7285,2.6719,2.6465,2.6094,2.5693,2.5693,2.5693,2.5596,2.5195,2.4766,2.4336,2.3906,2.3477,2.3101,2.3101,2.3101,2.3101,2.3101,2.3101,2.3101,2.3101,2.3101,2.3101,2.3101,2.3101,2.3101,2.3101,2.3101,2.3042,2.2867,2.2519,2.209,2.168,2.123,2.0859,2.0625,2.0605,2.0527,2.0312,2.0293,2.0117,1.9687,1.9648,1.9551,1.9297,1.9102,1.9023,1.9023,1.8848,1.875,1.875,1.875,1.875,1.875,1.875,1.875,2.0116,2.0429,2.0683,2.1055,2.1894,2.2676,2.2598,2.3047,2.3236,2.2446,2.1791,2.1031,1.9906,1.9532,1.9199,1.849,1.9099,1.9405,1.8616,1.8809,1.8796,1.8076,1.9391,1.9932,1.8762,1.9353,1.9726,1.9417,1.9706,2.0013,2.0167,2.0588,2.0895,2.1096,2.1109,2.1109,2.1109,2.1109,2.1109,2.1109,2.1109,2.1978,2.3636,2.4548,2.6014,2.8028,2.8759,2.8848,2.8457,2.834,2.8301,2.8301,2.8301,2.8301,2.8262,2.7949,2.7559,2.7129,2.6699,2.6269,2.5849,2.5732,2.5693,2.5635,2.5352,2.4941,2.4512,2.4082,2.3652,2.3257,2.312,2.3101,2.3101,2.3101,2.3101,2.3101,2.3101,2.3101,2.3101,2.3101,2.3101,2.3101,2.3101,2.3101,2.3101,2.3101,2.2847,2.2539,2.2109,2.1582,2.1055,2.0644,2.0605,2.0605,2.0605,2.0605,2.0468,2.0117,2.0098,1.9961,1.9648,1.9531,1.9453,1.9453,1.9355,1.9297,1.9297,1.9297,1.9297,1.9297,1.9297,1.9297,1.9434,1.9979,2.0918,2.2129,2.2793,2.3403,2.416,2.4355,2.4121,2.3172,2.2619,2.2065,2.113,1.9887,1.9066,1.9339,1.8886,1.8532,1.849,1.9607,1.986,1.8185,1.9245,1.958,0.0,1.972,2.0471,1.9461,1.9893,2.0167,2.0167,2.0775,2.1096,2.1109,2.1109,2.1109,2.1109,2.1109,2.1109,2.1109,2.1109,2.1978,2.3698,2.6849,2.8917,3.0099,2.9726,2.9297,2.8867,2.8457,2.8301,2.8301,2.8301,2.8301,2.8301,2.8281,2.8008,2.763,2.7148,2.6719,2.6289,2.583,2.5693,2.5693,2.5674,2.541,2.5008,2.4512,2.4102,2.3672,2.3198,2.3101,2.3101,2.3101,2.3101,2.3101,2.3101,2.3101,2.3101,2.3101,2.3101,2.3101,2.3101,2.3101,2.3101,2.3101,2.3081,2.2925,2.2539,2.1717,2.1055,2.0644,2.0605,2.0605,2.0605,2.0605,2.0605,2.0586,2.0586,2.0586,2.0566,2.0117,1.9902,1.9902,1.9492,1.9297,1.9297,1.9297,1.9297,1.9297,1.9297,1.9297,2.0664,2.1426,2.2109,2.3105,2.3906,2.4538,2.4785,2.4844,2.4839,2.4813,2.3526,2.2143,2.1277,1.9784,1.8548,1.8272,1.8184,1.8263,1.8464,1.9028,1.8988,1.7876,1.9117,0.0,0.0,0.0,0.0,1.9109,1.9613,2.0027,2.0167,2.0788,2.1109,2.1109,2.1109,2.1109,2.1109,2.1109,2.1109,2.1109,2.3311,2.464,2.5314,2.8545,3.0084,3.0176,2.9746,2.9316,2.8887,2.8457,2.8301,2.8301,2.8301,2.8301,2.8301,2.8301,2.8203,2.7969,2.7266,2.6738,2.6309,2.583,2.5693,2.5693,2.5693,2.543,2.5086,2.4883,2.4336,2.375,2.3613,2.3315,2.3101,2.3101,2.3101,2.3101,2.3101,2.3101,2.3101,2.3101,2.3101,2.3101,2.3101,2.3101,2.3101,2.3101,2.2847,2.2676,2.2539,2.1717,2.1132,2.1035,2.0742,2.0605,2.0605,2.0605,2.0605,2.0605,2.0605,2.0605,2.0605,2.0468,2.0352,2.0352,2.0253,2.0175,2.0175,2.0175,2.0175,2.0175,2.0175,2.0175,2.2012,2.2656,2.3027,2.4199,2.4785,2.5106,2.5106,2.5106,2.5059,2.5039,2.3757,2.2455,2.1784,1.9999,1.8613,1.8557,1.8174,1.8023,1.8437,1.9084,1.9085,1.8023,1.9241,1.9522,0.0,0.0,0.0,1.8905,1.9559,2.004,2.0167,2.0788,2.1109,2.1109,2.1109,2.1109,2.1109,2.1109,2.1109,2.1172,2.4394,2.5984,2.6106,2.9412,3.0723,3.041,2.9824,2.9414,2.9101,2.8535,2.8301,2.8301,2.8301,2.8301,2.8301,2.8301,2.8301,2.8203,2.748,2.6973,2.6543,2.6113,2.5859,2.5693,2.5693,2.5527,2.5273,2.5165,2.4715,2.418,2.3867,2.3574,2.3296,2.314,2.3101,2.3101,2.3101,2.3101,2.3101,2.3101,2.3101,2.3101,2.3101,2.3101,2.3101,2.3101,2.2867,2.2633,2.2539,2.2031,2.1541,2.1229,2.0977,2.0781,2.0625,2.0605,2.0605,2.0605,2.0605,2.0605,2.0605,2.0605,2.0605,2.0605,2.0605,2.0605,2.0605,2.0605,2.0605,2.0605,2.0605,2.0605,2.334,2.3516,2.3588,2.5265,2.541,2.5106,2.5106,2.5067,2.4773,2.3926,2.3359,2.2847,0.0,0.0,1.9023,1.9893,1.8658,1.7796,1.841,1.9635,1.9964,0.0,0.0,0.0,0.0,0.0,0.0,1.8918,0.0,2.0167,2.0193,2.0802,2.1109,2.1109,2.1109,2.1109,2.1109,2.1109,2.1109,2.1172,2.4348,2.5924,2.6106,2.9294,3.082,3.084,2.998,2.9646,2.9512,2.8672,2.832,2.8301,2.8301,2.8301,2.8301,2.8301,2.8301,2.8242,2.7832,2.7402,2.6953,2.6523,2.6094,2.5693,2.5693,2.5693,2.5596,2.5215,2.5125,2.493,2.4062,2.3828,2.3691,2.3218,2.312,2.3101,2.3101,2.3101,2.3101,2.3101,2.3101,2.3101,2.3101,2.3101,2.3101,2.3101,2.3101,2.2945,2.2598,2.2519,2.2207,2.1346,2.1249,2.1094,2.0683,2.0644,2.0625,2.0605,2.0605,2.0605,2.0605,2.0605,2.0605,2.0605,2.0605,2.0605,2.0605,2.0605,2.0605,2.0605,2.0605,2.0605,2.3418,2.418,2.4766,2.5499,2.541,2.5106,2.5106,2.4316,2.3574,2.3315,2.2187,2.0931,1.9872,0.0,0.0,1.7553,1.754,0.0,1.841,1.919,0.0,1.8894,0.0,1.9028,1.8559,1.8691,0.0,0.0,1.9666,2.0107,2.0535,2.0909,2.1109,2.1109,2.1109,2.1109,2.1109,2.1109,2.1109,2.1109,2.3186,2.484,2.6045,2.811,2.9707,3.0859,3.0293,2.9863,2.9587,2.8984,2.8574,2.8301,2.8301,2.8301,2.8301,2.8301,2.8301,2.8281,2.8164,2.7637,2.6953,2.6523,2.6094,2.5693,2.5693,2.5693,2.5674,2.5605,2.5332,2.5067,2.4851,2.4277,2.3769,2.3652,2.3335,2.3101,2.3101,2.3101,2.3101,2.3101,2.3101,2.3101,2.3101,2.3101,2.3101,2.3101,2.3101,2.3062,2.2945,2.2715,2.2422,2.2207,2.1914,2.1543,2.1094,2.1055,2.0918,2.0625,2.0605,2.0605,2.0605,2.0605,2.0605,2.0605,2.0605,2.0605,2.0605,2.0605,2.0605,2.0605,2.0605,2.0605,2.4297,2.5,2.543,2.5635,2.5547,2.5117,2.416,2.3379,2.2438,2.1112,2.0254,1.9404,1.8322,1.7583,1.7093,0.0,0.0,0.0,1.8183,1.8691,1.9011,0.0,1.9118,0.0,1.9065,1.9332,1.9626,0.0,1.9973,2.0187,2.0655,2.0949,2.1109,2.1109,2.1109,2.1109,2.1109,2.1109,2.1109,2.1109,2.2779,2.4409,2.6029,2.7692,2.9275,3.0859,0.0,2.9961,2.9531,2.9101,2.8672,2.8301,2.8301,2.8301,2.8301,2.8301,2.8301,2.8301,2.8301,2.7851,2.7226,2.6797,2.6367,2.5996,2.5752,2.5693,2.5693,2.5693,2.5547,2.5312,2.5165,2.457,2.4023,2.3828,2.3457,2.3101,2.3101,2.3101,2.3101,2.3101,2.3101,2.3101,2.3101,2.3101,2.3101,2.3101,2.3101,2.3101,2.3101,2.2886,2.2715,2.2539,2.2305,2.1992,2.1562,2.1523,2.1406,2.1152,2.0977,2.0859,2.0859,2.0703,2.0605,2.0605,2.0605,2.0605,2.0605,2.0605,2.0703,2.0859,2.0859,2.0957,2.5332,2.5635,2.5674,2.5615,2.5557,2.4972,2.291,2.2285,2.1367,1.8516,1.8086,1.7954,1.7246,1.6723,1.6616,1.7432,0.0,1.7184,1.8198,1.8453,1.8758,1.9305,1.9457,1.9519,1.9773,2.0067,2.0361,2.0655,2.0441,2.0414,2.0722,2.0975,2.1109,2.1109,2.1109,2.1109,2.1109,2.1109,2.1109,2.1109,2.2591,2.4224,2.6045,2.7452,2.9098,3.0859,0.0,0.0,2.9531,2.8939,2.8548,2.8301,2.8067,2.8121,2.8301,2.8301,2.8301,2.8301,2.8301,2.8047,2.7676,2.7246,2.6777,2.6309,2.5937,2.5732,2.5693,2.5693,2.5693,2.5596,2.5254,2.4824,2.4394,2.3965,2.3535,2.3159,2.3101,2.3101,2.3101,2.3101,2.3101,2.3101,2.3101,2.3101,2.3101,2.3101,2.3101,2.3101,2.3101,2.3101,2.2964,2.2637,2.2598,2.2422,2.2012,2.1973,2.1953,2.1894,2.1523,2.1288,2.1288,2.0957,2.0781,2.0781,2.0781,2.0781,2.0781,2.0781,2.0937,2.1288,2.1288,2.1523,2.5117,2.5449,2.5596,2.5273,2.4902,2.418,2.2402,2.1152,0.0,1.7891,1.668,1.5918,1.5781,1.5692,1.624,1.8047,1.7881,1.811,1.9833,1.9362,1.8971,0.0,1.9586,1.9746,1.98,2.0067,0.0,0.0,0.0,2.0722,2.1015,2.1082,2.1109,2.1109,2.1109,2.1109,2.1109,2.1109,2.1109,2.1109,2.1411,2.3124,2.5984,2.6288,2.8051,3.0879,3.0801,0.0,2.9495,2.8145,2.7863,2.8174,2.6933,2.7222,2.8301,2.8301,2.8301,2.8301,2.8301,2.8242,2.8125,2.7695,2.7031,2.6367,2.6289,2.6016,2.5693,2.5693,2.5693,2.5674,2.5596,2.5293,2.4844,2.4414,2.3984,2.3574,2.3179,2.3101,2.3101,2.3101,2.3101,2.3101,2.3101,2.3101,2.3101,2.3101,2.3101,2.3101,2.3101,2.3101,2.3062,2.2984,2.2984,2.2808,2.2441,2.2402,2.2246,2.1914,2.1816,2.1777,2.1777,2.1699,2.166,2.166,2.166,2.166,2.166,2.166,2.1699,2.1777,2.1777,2.1816,2.5352,2.5518,2.5577,2.5176,2.4746,2.3789,2.1406,0.0,0.0,1.6191,1.5167,1.466,1.4453,1.4836,1.5633,1.7074,1.7236,1.7689,1.9139,1.9002,1.8823,1.9095,1.9666,2.0027,0.0,2.0428,0.0,0.0,0.0,2.0962,2.1096,2.1109,2.1109,2.1109,2.1109,2.1109,2.1109,2.1109,2.1109,2.1109,2.1109,2.2389,2.4778,2.4778,2.6062,2.8367,2.8367,0.0,2.7122,2.6359,2.6486,2.7114,2.6372,2.6987,2.8301,2.8301,2.8301,2.8301,2.8301,2.8301,2.8262,2.8066,2.7402,2.668,2.6465,2.6074,2.5693,2.5693,2.5693,2.5693,2.5693,2.541,2.5067,2.4805,2.4258,2.3672,2.3198,2.3101,2.3101,2.3101,2.3101,2.3101,2.3101,2.3101,2.3101,2.3101,2.3101,2.3101,2.3101,2.3101,2.3101,2.3101,2.3101,2.3023,2.2808,2.2789,2.2711,2.2559,2.2324,2.2207,2.2207,2.1992,2.1894,2.1894,2.1894,2.1894,2.1894,2.1894,2.1992,2.2207,2.2207,2.2324,2.5508,2.5615,2.5557,2.5059,2.4609,2.3477,2.0352,1.8984,1.7506,1.4582,1.3899,1.3763,1.3555,1.4154,1.5131,1.6378,1.6805,1.736,1.855,1.8823,1.8878,0.0,1.9639,0.0,2.0167,0.0,0.0,0.0,0.0,0.0,2.1109,2.1109,2.1109,2.1109,2.1109,2.1109,2.1109,2.1109,2.1109,2.1109,2.1109,2.1978,2.3574,2.3574,2.4471,2.5984,2.5984,0.0,0.0,2.4561,2.511,2.6045,2.5772,2.6717,2.8301,2.8301,2.8301,2.8301,2.8301,2.8301,2.8301,2.8301,2.7773,2.707,2.6641,2.6211,2.581,2.5713,2.5693,2.5693,2.5693,2.5469,2.5243,2.5145,2.4473,2.3809,2.3379,2.3237,2.3198,2.312,2.3101,2.3101,2.3101,2.3101,2.3101,2.3101,2.3101,2.3101,2.3101,2.3101,2.3101,2.3101,2.3101,2.3101,2.3101,2.3101,2.3101,2.3101,2.2789,2.2656,2.2656,2.2324,2.2148,2.2148,2.2148,2.2148,2.2148,2.2148,2.2324,2.2656,2.2656,2.2789,2.5165,2.543,2.5479,2.4687,2.416,2.2969,1.9588,1.814,1.6758,1.4102,1.3262,1.3105,1.3437,1.3879,1.4984,1.7431,1.7807,1.8292,1.9796,1.9908,1.9564,1.8951,0.0,0.0,2.0214,0.0,0.0,0.0,0.0,0.0,2.1109,2.1109,2.1109,2.1109,2.1109,2.1109,2.1109,2.1109,2.1109,2.1109,2.1109,2.1978,2.3574,2.3574,2.4471,2.5984,2.5984,0.0,0.0,2.3461,2.4138,2.5936,2.4544,2.5772,2.8301,2.8301,2.8301,2.8301,2.8301,2.8301,2.8301,2.8301,2.7988,2.7519,2.709,2.666,2.625,2.581,2.5693,2.5693,2.5693,2.5654,2.5518,2.5204,2.4707,2.4238,2.3828,2.373,2.3613,2.3179,2.3101,2.3101,2.3101,2.3101,2.3101,2.3101,2.3101,2.3101,2.3101,2.3101,2.3101,2.3101,2.3101,2.3101,2.3101,2.3101,2.3101,2.3101,2.3062,2.3042,2.3042,2.3003,2.2984,2.2984,2.2984,2.2984,2.2984,2.2984,2.3003,2.3042,2.3042,2.3062,2.4531,2.4805,2.4805,2.4199,2.334,2.1934,1.9258,1.7578,1.6026,1.3926,1.3164,1.2954,1.3105,1.3477,1.4173,1.5489,1.5863,1.627,1.7132,1.7568,1.7802,1.7875,1.8691,0.0,0.0,0.0,0.0,0.0,0.0,0.0,2.1109,2.1109,2.1109,2.1109,2.1109,2.1109,2.1109,2.1109,2.1109,2.1109,2.1109,2.1475,2.209,2.209,2.2466,2.3047,2.2857,0.0,0.0,2.1268,2.1903,2.3303,2.2702,2.4322,2.6987,2.6987,2.7565,2.8301,2.8301,2.8301,2.8301,2.8301,2.8184,2.791,2.7226,2.6719,2.6289,2.581,2.5693,2.5693,2.5693,2.5693,2.5577,2.5223,2.4941,2.4687,2.4258,2.3965,2.373,2.3574,2.3276,2.3101,2.3101,2.3101,2.3101,2.3101,2.3101,2.3101,2.3101,2.3101,2.3101,2.3101,2.3101,2.3101,2.3101,2.3101,2.3101,2.3101,2.3101,2.3101,2.3101,2.3101,2.3101,2.3101,2.3101,2.3101,2.3101,2.3101,2.3101,2.3101,2.3101,2.3101,2.3809,2.4238,2.4316,2.3887,2.2832,2.1289,1.8948,1.7207,1.5576,1.3711,1.3111,1.2915,1.2915,1.3223,1.3604,1.3958,1.4603,1.512,1.5336,1.6165,1.6886,0.0,0.0,0.0,0.0,0.0,0.0,0.0,0.0,0.0,0.0,2.1109,2.1109,2.1109,2.1109,2.1109,2.1109,2.1109,2.1109,2.1109,2.1109,2.1109,2.1109,2.1109,2.1069,2.0962,0.0,0.0,0.0,1.988,2.0536,2.1643,2.2081,2.3822,2.6155,2.6608,2.7384,2.8301,2.8301,2.8301,2.8301,2.8301,2.8301,2.8125,2.7266,2.6816,2.6465,2.5849,2.5693,2.5693,2.5693,2.5693,2.5615,2.5332,2.5273,2.5137,2.4707,2.4375,2.4102,2.3828,2.3535,2.3257,2.312,2.3101,2.3101,2.3101,2.3101,2.3101,2.3101,2.3101,2.3101,2.3101,2.3101,2.3101,2.3101,2.3101,2.3101,2.3101,2.3101,2.3101,2.3101,2.3101,2.3101,2.3101,2.3101,2.3101,2.3101,2.3101,2.3101,2.3101,2.3101,2.3101,2.2993,2.3789,2.4316,2.3887,2.2832,2.1211,1.8613,1.7044,1.5498,1.3345,1.2915,1.2915,1.2915,1.3223,1.3528,1.3595,1.4872,1.5805,1.5538,1.6758,1.7581,0.0,0.0,0.0,0.0,0.0,0.0,0.0,0.0,0.0,0.0,2.1109,2.1109,2.1109,2.1109,2.1109,2.1109,2.1109,2.1109,2.1109,2.1109,2.1109,2.1109,2.1109,2.0949,0.0,0.0,0.0,0.0,1.98,2.0536,2.1756,2.3207,2.471,2.6264,2.7726,2.8301,2.8301,2.8301,2.8301,2.8301,2.8301,2.8301,2.8125,2.7266,2.7012,2.6836,2.5927,2.5693,2.5693,2.5693,2.5693,2.5693,2.5674,2.5674,2.5557,2.5156,2.5106,2.4851,2.3945,2.3789,2.3652,2.3179,2.3101,2.3101,2.3101,2.3101,2.3101,2.3101,2.3101,2.3101,2.3101,2.3101,2.3101,2.3101,2.3101,2.3101,2.3101,2.3101,2.3101,2.3101,2.3101,2.3101,2.3101,2.3101,2.3101,2.3101,2.3101,2.3101,2.3101,2.3101,2.3101,2.0273,2.0918,2.123,2.082,1.9961,1.8789,1.7103,1.5928,1.4774,1.3228,1.2915,1.2915,1.2915,1.2988,1.34,1.4325,1.5047,1.5498,1.5486,0.0,0.0,1.6891,0.0,0.0,0.0,0.0,0.0,0.0,0.0,0.0,0.0,2.1109,2.1109,2.1109,2.1109,2.1109,2.1109,2.1109,2.1109,2.1109,2.1109,2.1109,2.1096,2.0909,0.0,0.0,0.0,0.0,0.0,1.9586,1.973,2.0141,2.0601,2.2322,2.4599,2.5041,2.6554,2.8301,2.8301,2.8301,2.8301,2.8301,2.8301,2.8184,2.7637,2.7246,2.6836,2.5927,2.5693,2.5693,2.5693,2.5693,2.5693,2.5693,2.5693,2.5654,2.5566,2.5293,2.5028,2.4754,2.4434,2.4082,2.3652,2.3574,2.3477,2.314,2.3101,2.3101,2.3101,2.3101,2.3101,2.3101,2.3101,2.3101,2.3101,2.3101,2.3101,2.3101,2.3101,2.3101,2.3101,2.3101,2.3101,2.3101,2.3101,2.3101,2.3101,2.3101,2.3101,2.3101,2.3101,2.3101,1.8398,1.9238,1.9609,1.9355,1.8516,1.748,1.6359,1.5302,1.4219,1.313,1.2915,1.2915,1.2915,1.2835,1.3051,1.3994,1.444,1.4748,1.5033,0.0,0.0,1.6877,0.0,0.0,0.0,0.0,0.0,0.0,0.0,0.0,0.0,2.0775,2.0828,2.0949,2.1056,2.1109,2.1109,2.1109,2.1109,2.1109,2.1109,2.1056,2.0935,2.0762,0.0,0.0,0.0,0.0,0.0,1.9439,1.943,1.9475,2.004,2.1699,2.3877,2.4433,2.6227,2.8301,2.8301,2.8301,2.8301,2.8301,2.8184,2.7969,2.7559,2.7129,2.6641,2.5888,2.5693,2.5693,2.5693,2.5693,2.5693,2.5693,2.5693,2.5693,2.5693,2.5527,2.5273,2.5145,2.4844,2.4531,2.4102,2.4023,2.3926,2.3608,2.3432,2.3335,2.3335,2.3198,2.3101,2.3101,2.3101,2.3101,2.3101,2.3101,2.3101,2.3101,2.3101,2.3101,2.3101,2.3101,2.3101,2.3101,2.3101,2.3101,2.3101,2.3101,2.3101,2.3101,2.3101,2.3101,0.0,1.832,1.8965,1.8926,1.8027,1.6966,1.6105,1.4961,0.0,1.3071,1.2915,1.2935,1.3032,1.2732,1.267,1.3175,1.3567,1.4028,0.0,1.5423,0.0,0.0,0.0,0.0,0.0,0.0,0.0,0.0,0.0,0.0,0.0,2.0167,2.0361,2.0641,2.0909,2.1069,2.1109,2.1082,2.1082,2.1082,2.1056,2.0909,2.0641,2.0628,0.0,0.0,0.0,0.0,0.0,1.943,1.943,1.9533,2.0916,2.242,2.3989,2.5426,2.6933,2.8301,2.8301,2.8301,2.8301,2.8301,2.8027,2.7689,2.7187,2.6758,2.6289,2.581,2.5693,2.5693,2.5693,2.5693,2.5693,2.5693,2.5693,2.5693,2.5693,2.5693,2.5557,2.5195,2.5117,2.498,2.4531,2.4473,2.4453,2.4414,2.4082,2.3828,2.3828,2.3477,2.3179,2.314,2.314,2.314,2.3101,2.3101,2.3101,2.3101,2.3101,2.3101,2.3101,2.3101,2.3101,2.3101,2.3101,2.3101,2.3101,2.3101,2.3101,2.3101,2.3101,2.3101,1.4394,0.0,1.5762,1.54,1.5089,1.4738,0.0,1.3867,1.3516,1.2988,1.2915,1.3208,1.4187,1.326,1.3323,1.6319,1.6366,1.6225,1.6766,0.0,0.0,0.0,0.0,0.0,0.0,0.0,0.0,0.0,0.0,0.0,0.0,2.0167,2.0267,2.0334,2.0401,2.0655,2.1109,2.0895,2.0775,2.0775,2.0548,2.0401,2.0334,2.0107,0.0,0.0,0.0,0.0,1.943,1.943,1.943,1.9417,1.9751,2.1487,2.3822,2.4211,2.5991,2.8301,2.8301,2.8301,2.8301,2.8301,2.8223,2.8066,2.7637,2.6992,2.6289,2.581,2.5693,2.5693,2.5693,2.5693,2.5693,2.5693,2.5693,2.5693,2.5693,2.5693,2.5654,2.5605,2.5586,2.5449,2.5,2.4969,2.4805,2.4473,2.4336,2.4277,2.4277,2.418,2.4004,2.3672,2.3633,2.3496,2.312,2.3101,2.3101,2.3101,2.3101,2.3101,2.3101,2.3101,2.3101,2.3101,2.3101,2.3101,2.3101,2.3101,2.3101,2.3101,2.3101,2.3101,1.3223,1.4121,1.5019,1.4757,1.4543,1.4375,1.4141,1.3633,1.3145,1.2954,1.2915,1.3169,1.4043,1.353,1.3742,1.6024,1.6343,0.0,0.0,0.0,0.0,0.0,0.0,0.0,0.0,0.0,0.0,0.0,0.0,0.0,0.0,1.984,1.9893,2.0027,2.004,2.0254,2.0708,2.0548,2.0468,2.0468,2.0307,2.016,2.0027,1.9867,1.9733,0.0,0.0,0.0,1.943,1.943,1.943,1.9488,2.0141,2.1813,2.3822,2.3822,2.5717,2.8174,2.7511,2.7726,2.8301,2.8301,2.8301,2.8203,2.7845,2.7395,2.6855,2.6211,2.6035,2.5996,2.5752,2.5693,2.5693,2.5693,2.5693,2.5693,2.5693,2.5693,2.5693,2.5693,2.5693,2.5615,2.541,2.5371,2.5293,2.5011,2.4844,2.4707,2.4707,2.4531,2.4336,2.4102,2.4082,2.3984,2.3705,2.3686,2.351,2.312,2.3101,2.3101,2.3101,2.3101,2.3101,2.3101,2.3101,2.3101,2.3101,2.3101,2.3101,2.3101,2.3101,2.3198,1.315,1.4316,1.543,1.5098,1.4902,1.4774,1.4629,1.3809,1.3066,1.3066,1.3066,1.3262,1.3887,1.3877,1.4106,1.5083,0.0,0.0,0.0,0.0,0.0,0.0,0.0,0.0,0.0,0.0,0.0,0.0,0.0,0.0,0.0,1.943,1.9479,1.9733,1.9733,1.9853,2.0094,2.0147,2.0174,2.0174,2.012,1.9973,1.9733,1.9733,1.9599,0.0,0.0,0.0,1.943,1.943,1.943,1.9533,2.0759,2.2153,2.3487,2.371,2.5553,2.7833,2.6771,2.7222,2.8301,2.8301,2.8301,2.8223,2.7871,2.7806,2.7598,2.6797,2.6543,2.6387,2.5957,2.5791,2.5771,2.5713,2.5693,2.5693,2.5693,2.5693,2.5693,2.5693,2.5693,2.5693,2.5693,2.5693,2.5693,2.5693,2.541,2.5176,2.5176,2.4844,2.459,2.4531,2.4512,2.4492,2.4414,2.4414,2.4056,2.3335,2.3237,2.3198,2.3198,2.314,2.312,2.3198,2.3198,2.3198,2.3198,2.3257,2.3296,2.3296,2.3296,2.3535,1.4226,1.5244,1.5557,1.3756,1.4069,1.4617,1.3867,1.3802,1.3919,1.3919,1.3919,1.4387,1.5927,1.4822,1.4779,1.8024,0.0,1.7787,0.0,0.0,0.0,0.0,0.0,0.0,0.0,0.0,0.0,0.0,0.0,0.0,0.0,0.0,1.9444,1.9439,1.9439,1.9452,1.9506,1.9746,1.9867,1.9867,1.9613,1.9479,1.9439,1.9439,1.947,0.0,0.0,1.943,1.943,1.943,1.943,1.943,1.9649,2.0644,2.2096,2.3319,2.4931,2.6608,2.7618,2.8121,2.8301,2.8301,2.8301,2.8281,2.8223,2.8203,2.8086,2.7598,2.7207,2.6816,2.6406,2.6289,2.6191,2.5771,2.5693,2.5693,2.5693,2.5693,2.5693,2.5693,2.5693,2.5693,2.5693,2.5693,2.5693,2.5693,2.5635,2.5596,2.5596,2.5538,2.5391,2.5,2.4961,2.4824,2.4453,2.4414,2.4355,2.4238,2.3887,2.3691,2.3691,2.3296,2.332,2.3691,2.3691,2.3691,2.3691,2.4043,2.4219,2.4219,2.4219,2.4258,1.3619,1.4578,1.5165,1.4187,1.5087,1.6124,1.5684,1.5391,1.509,1.4714,1.4632,1.4775,1.5221,1.5031,1.5588,1.7945,0.0,0.0,0.0,0.0,0.0,0.0,0.0,0.0,0.0,0.0,0.0,0.0,0.0,0.0,0.0,0.0,1.943,1.943,1.943,1.943,1.943,1.9506,1.9559,1.9559,1.9439,1.943,1.943,1.943,1.943,1.943,0.0,1.943,1.943,1.943,1.943,1.9475,2.0256,2.0973,2.1756,2.3263,2.3766,2.3972,2.6318,2.7114,2.7222,2.8067,2.8301,2.8301,2.8301,2.8301,2.8262,2.8066,2.7695,2.7266,2.6836,2.6142,2.5456,2.5269,2.5045,2.4827,2.4827,2.529,2.5693,2.5693,2.5693,2.5693,2.5693,2.5693,2.5693,2.5693,2.5693,2.5693,2.5693,2.5693,2.5615,2.5449,2.543,2.5352,2.5089,2.5089,2.4875,2.4453,2.4238,2.4121,2.4121,2.3945,2.3881,2.4121,2.4121,2.4121,2.4121,2.4316,2.4414,2.4414,2.4414,2.4551,1.3267,1.4069,1.4863,1.5156,1.6172,1.7181,1.7461,1.6966,1.6355,1.6134,1.6078,1.5869,1.5161,1.5751,0.0,1.7135,1.6973,0.0,0.0,0.0,0.0,0.0,0.0,0.0,0.0,0.0,0.0,0.0,0.0,0.0,0.0,0.0,1.943,1.943,1.943,1.943,1.943,1.943,1.943,1.943,1.943,1.943,1.943,1.943,1.943,1.943,1.943,1.943,1.943,1.943,1.943,1.9533,2.0644,2.1301,2.1756,2.287,2.2814,2.242,2.4765,2.5827,2.6264,2.7438,2.8014,2.8301,2.8301,2.8301,2.8301,2.8301,2.8066,2.7715,2.7285,2.6305,2.547,2.5326,2.5051,2.478,2.478,2.5434,2.5986,2.5986,2.5908,2.5849,2.5849,2.5752,2.5693,2.5693,2.5693,2.5693,2.5693,2.5693,2.5693,2.5693,2.5693,2.5693,2.5693,2.5693,2.5401,2.4766,2.4531,2.4473,2.457,2.4473,2.4473,2.457,2.457,2.457,2.457,2.4668,2.468,2.468,2.468,2.4902,1.4343,1.4735,1.5078,1.6258,1.6367,1.6496,1.7695,1.7617,1.7637,1.8776,1.8993,1.8745,1.7957,1.7941,1.7689,1.6553,0.0,0.0,0.0,0.0,0.0,0.0,0.0,0.0,0.0,0.0,0.0,0.0,0.0,0.0,0.0,0.0,0.0,1.943,1.943,1.943,1.943,1.943,1.943,1.943,1.943,1.943,1.943,1.943,1.943,1.943,1.943,1.943,1.943,1.943,1.943,1.9417,1.9533,2.0371,2.1643,2.1699,2.2533,2.3654,2.3877,2.4875,2.61,2.6209,2.7168,2.8301,2.8301,2.8301,2.8301,2.8301,2.8262,2.8144,2.7787,2.7565,2.7396,2.6956,2.6839,2.68,2.68,2.6832,2.6914,2.6914,2.6602,2.6348,2.6348,2.5996,2.5693,2.5693,2.5693,2.5693,2.5693,2.5693,2.5693,2.5693,2.5693,2.5693,2.5693,2.5693,2.5654,2.5596,2.4863,2.4609,2.5047,2.4629,2.4609,2.5067,2.5067,2.5067,2.5067,2.543,2.5596,2.5596,2.5596,2.5615,1.3502,1.4375,1.5352,1.6113,1.6797,1.7539,1.8574,1.8887,1.9134,1.9706,1.9848,1.9394,1.7849,1.707,1.6682,1.6567,0.0,0.0,0.0,0.0,0.0,0.0,0.0,0.0,0.0,0.0,0.0,0.0,0.0,0.0,0.0,0.0,0.0,1.943,1.943,1.943,1.943,1.943,1.943,1.943,1.943,1.943,1.943,1.943,1.943,1.943,1.943,1.943,1.943,1.943,1.943,1.943,1.943,1.9764,2.0314,2.1259,2.1373,2.1316,2.3151,2.4156,2.482,2.5772,2.7114,2.8301,2.8301,2.8301,2.8301,2.8301,2.8301,2.8262,2.8105,2.7389,2.6672,2.647,2.6228,2.599,2.599,2.655,2.7012,2.7012,2.6894,2.6777,2.6777,2.6641,2.6523,2.6523,2.6523,2.6523,2.6523,2.6523,2.6523,2.6523,2.6289,2.6133,2.6133,2.5898,2.5693,2.5693,2.5382,2.5265,2.5469,2.5284,2.5265,2.5488,2.5488,2.5488,2.5488,2.5615,2.5693,2.5693,2.5693,2.5693,1.3086,1.4023,1.5176,1.5909,1.6953,1.8144,1.9394,1.9902,2.0391,2.1334,2.0804,1.9604,1.7842,1.6655,0.0,0.0,0.0,0.0,0.0,0.0,0.0,0.0,0.0,0.0,0.0,0.0,0.0,0.0,0.0,0.0,0.0,0.0,0.0,0.0,1.9319,1.943,1.943,1.943,1.943,1.943,1.943,1.943,1.943,1.943,1.943,1.943,1.943,1.943,1.943,1.943,1.943,1.943,1.943,1.943,1.9591,2.1088,2.0644,1.9764,2.2266,2.3095,2.3375,2.4875,2.6391,2.7672,2.8174,2.8301,2.8301,2.8301,2.8301,2.8301,2.8301,2.7565,2.6771,2.6771,2.6549,2.6291,2.6291,2.6898,2.7422,2.7422,2.7305,2.7226,2.7226,2.7109,2.7012,2.7012,2.7012,2.7012,2.7012,2.7012,2.7012,2.7012,2.6758,2.6582,2.6582,2.6309,2.6083,2.6083,2.5966,2.583,2.5693,2.5693,2.5693,2.5693,2.5693,2.5693,2.5693,2.5693,2.5693,2.5693,2.5693,2.5752,1.3496,1.3802,1.4426,1.5772,1.677,1.8003,2.0136,2.0625,2.1309,2.3842,2.2075,1.9696,1.8354,1.7133,0.0,0.0,0.0,0.0,0.0,0.0,0.0,0.0,0.0,0.0,0.0,0.0,0.0,0.0,0.0,0.0,0.0,0.0,0.0,0.0,1.9212,1.9417,1.9417,1.943,1.943,1.943,1.943,1.943,1.943,1.943,1.943,1.943,1.943,1.943,1.943,1.943,1.943,1.943,1.943,1.943,1.9591,2.1088,2.0702,1.9649,2.1088,2.1643,2.187,2.3319,2.482,2.6372,2.7833,2.8301,2.8301,2.8301,2.8301,2.8301,2.8301,2.8301,2.8301,2.8301,2.8301,2.8301,2.8301,2.8301,2.8301,2.8301,2.7949,2.7728,2.7728,2.7305,2.7031,2.7031,2.7031,2.7031,2.7031,2.7031,2.7031,2.7031,2.7031,2.7031,2.7031,2.7012,2.7012,2.7012,2.6621,2.6191,2.5713,2.5693,2.5693,2.5693,2.5693,2.5693,2.5693,2.5693,2.5693,2.5693,2.5693,2.5977,1.3145,1.4285,1.5664,1.6367,1.8086,2.0077,2.1582,2.1934,2.2148,2.2852,2.087,1.8819,1.8207,1.7253,0.0,0.0,0.0,0.0,0.0,0.0,0.0,0.0,0.0,0.0,0.0,0.0,0.0,0.0,0.0,0.0,0.0,0.0,0.0,0.0,1.8905,1.9052,1.9052,1.9265,1.943,1.943,1.943,1.943,1.943,1.943,1.943,1.943,1.943,1.943,1.943,1.943,1.943,1.943,1.943,1.943,1.9707,2.2209,2.2209,2.1145,2.2645,2.3151,2.3207,2.3654,2.482,2.6372,2.7833,2.8301,2.8301,2.8301,2.8301,2.8301,2.8301,2.8301,2.8301,2.8301,2.8301,2.8301,2.8301,2.8301,2.8301,2.8301,2.8184,2.8105,2.8105,2.8008,2.791,2.791,2.791,2.791,2.791,2.791,2.791,2.791,2.7656,2.748,2.748,2.7187,2.7012,2.7012,2.6894,2.6641,2.6211,2.5898,2.5693,2.5693,2.5693,2.5849,2.6191,2.6191,2.6348,2.659,2.659,2.6699,1.3867,1.5078,1.6562,1.75,1.916,2.1036,2.2637,2.2865,2.2481,2.1772,2.0119,1.8592,1.7873,1.7305,0.0,0.0,0.0,0.0,0.0,0.0,0.0,0.0,0.0,0.0,0.0,0.0,0.0,0.0,0.0,0.0,0.0,0.0,0.0,0.0,1.8597,1.8744,1.8744,1.9038,1.9185,1.9199,1.9319,1.943,1.943,1.943,1.943,1.943,1.943,1.943,1.943,1.943,1.943,1.943,1.943,1.943,1.9707,2.204,2.2363,2.1813,2.3263,2.3822,2.3877,2.4488,2.5316,2.6372,2.7833,2.8301,2.8301,2.8301,2.8301,2.8301,2.8301,2.8301,2.8301,2.8301,2.8301,2.8301,2.8301,2.8301,2.8301,2.8301,2.8301,2.8301,2.8301,2.8301,2.8301,2.8301,2.8301,2.8301,2.8301,2.8301,2.8301,2.8301,2.8066,2.791,2.791,2.7676,2.7519,2.7519,2.7363,2.7168,2.6914,2.6484,2.625,2.625,2.625,2.6367,2.6641,2.6641,2.6777,2.7012,2.7012,2.7109,1.5117,1.6024,1.7174,1.8906,2.0116,2.1349,2.3281,2.3206,2.2311,2.0732,1.9673,1.86,1.7357,1.7179,0.0,0.0,0.0,0.0,0.0,0.0,0.0,0.0,0.0,0.0,0.0,0.0,0.0,0.0,0.0,0.0,0.0,0.0,0.0,0.0,1.829,1.845,1.845,1.8744,1.8878,0.0,1.9158,1.935,1.935,1.9345,1.943,1.943,1.943,1.943,1.943,1.943,1.943,1.943,1.943,1.943,1.9591,2.1088,2.1586,2.1813,2.3151,2.3599,2.3822,2.5206,2.57,2.5991,2.7438,2.8014,2.8121,2.8121,2.8174,2.8301,2.8301,2.8301,2.8301,2.8301,2.8301,2.8247,2.8121,2.8228,2.8301,2.8301,2.8301,2.8301,2.8301,2.8301,2.8301,2.8301,2.8301,2.8301,2.8301,2.8301,2.8301,2.8301,2.8301,2.8301,2.8301,2.8301,2.8301,2.8301,2.793,2.7767,2.7767,2.7266,2.7012,2.7012,2.7012,2.7031,2.707,2.707,2.709,2.7129,2.7129,2.7344,1.4687,1.6055,1.7656,1.9355,2.1191,2.2652,2.312,2.1852,2.0559,2.0585,1.8799,1.7146,1.6844,0.0,0.0,0.0,0.0,0.0,0.0,0.0,0.0,0.0,0.0,0.0,0.0,0.0,0.0,0.0,0.0,0.0,0.0,0.0,0.0,1.7689,1.7983,1.8089,1.8089,1.8437,1.8584,0.0,1.8651,1.8677,1.8691,1.9158,1.943,1.943,1.943,1.943,1.943,1.943,1.943,1.943,1.943,1.943,1.9591,2.1088,2.1586,2.1643,2.1968,2.2081,2.2138,2.2476,2.2589,2.287,2.4322,2.5608,2.6554,2.6554,2.7384,2.8301,2.8301,2.8301,2.8301,2.8301,2.8301,2.8014,2.6825,2.7492,2.8301,2.8301,2.8301,2.8301,2.8301,2.8301,2.8301,2.8301,2.8301,2.8301,2.8301,2.8301,2.8301,2.8301,2.8301,2.8301,2.8301,2.8301,2.8301,2.8301,2.8203,2.8164,2.8164,2.7422,2.7012,2.7012,2.7012,2.7187,2.7519,2.7519,2.7695,2.8027,2.8027,2.8066,1.5028,1.6398,1.7949,2.0273,2.2012,2.3101,2.3101,2.1778,2.064,2.0893,1.8707,1.67,0.0,0.0,0.0,0.0,0.0,0.0,0.0,0.0,0.0,0.0,0.0,0.0,0.0,0.0,0.0,0.0,0.0,0.0,0.0,1.7582,1.7582,1.7582,1.7742,1.7822,1.7822,1.813,1.8277,1.8277,1.8424,1.849,1.8504,1.8958,1.9158,1.9158,1.9305,1.943,1.943,1.943,1.943,1.943,1.943,1.943,1.9475,2.0256,2.0973,2.1586,2.1586,2.2081,2.2645,2.2645,2.2645,2.2814,2.3543,2.4875,2.61,2.61,2.7168,2.8301,2.8301,2.8301,2.8121,2.7384,2.778,2.8067,2.733,2.778,2.8301,2.8301,2.8301,2.8301,2.8301,2.7726,2.7222,2.7222,2.7222,2.7492,2.8228,2.8301,2.8301,2.8301,2.8301,2.8301,2.8301,2.8301,2.8301,2.8301,2.8301,2.8301,2.8301,2.7871,2.7617,2.7617,2.7617,2.7734,2.7969,2.7969,2.8086,2.8301,2.8301,2.8301,1.5268,1.6735,1.8379,2.1191,2.2519,2.3101,2.3101,2.2164,2.1302,2.1302,1.8926,0.0,0.0,0.0,0.0,0.0,0.0,0.0,0.0,0.0,0.0,0.0,0.0,0.0,0.0,0.0,0.0,0.0,0.0,0.0,1.7582,1.7582,1.7582,1.7582,1.7582,1.7582,1.7582,1.7836,1.7916,1.7916,1.821,1.833,1.8343,1.8637,1.8824,1.8945,1.9185,1.9377,1.943,1.943,1.943,1.943,1.943,1.943,1.943,1.943,2.0141,2.1202,2.1202,2.204,2.3039,2.3039,2.3039,2.3039,2.3039,2.4267,2.5717,2.5717,2.6952,2.8301,2.8301,2.8301,2.8014,2.6771,2.7384,2.8228,2.796,2.7906,2.8014,2.8228,2.8301,2.8228,2.796,2.7114,2.6372,2.6155,2.6318,2.6933,2.8121,2.8125,2.8022,2.8022,2.779,2.7774,2.8064,2.8064,2.8226,2.8516,2.8516,2.8516,2.8516,2.8516,2.8476,2.8398,2.832,2.8301,2.8301,2.8301,2.8301,2.8301,2.8301,2.8301,1.4194,1.6706,1.9492,2.1406,2.2519,2.3101,2.3101,2.2164,2.1302,0.0,0.0,0.0,0.0,0.0,0.0,0.0,0.0,0.0,0.0,0.0,0.0,0.0,0.0,0.0,0.0,0.0,0.0,0.0,0.0,0.0,1.7582,1.7582,1.7582,1.7582,1.7582,1.7582,1.7582,1.7622,1.7649,1.7649,1.7689,1.7702,1.7716,1.8023,1.8382,1.8931,1.8958,1.9132,1.943,1.943,1.943,1.943,1.943,1.943,1.943,1.943,1.9533,1.9707,1.9707,1.9809,1.9982,1.9982,1.9982,1.9982,1.9982,2.1941,2.41,2.41,2.61,2.8301,2.8301,2.8301,2.8228,2.8067,2.8174,2.796,2.6662,2.6372,2.6771,2.8067,2.8301,2.7887,2.6608,2.7276,2.7565,2.6264,2.7168,2.8067,2.8281,2.7378,2.6754,2.6754,2.5782,2.5743,2.7148,2.7262,2.7902,2.9339,2.945,2.945,2.945,2.945,2.9219,2.8848,2.8476,2.8301,2.8301,2.8301,2.8301,2.8301,2.8301,2.8301,1.4399,1.6679,1.9043,2.1035,2.1973,2.2559,2.2984,2.2687,2.2315,2.2315,0.0,0.0,0.0,0.0,0.0,0.0,0.0,0.0,0.0,0.0,0.0,0.0,0.0,0.0,0.0,0.0,0.0,0.0,0.0,1.7582,1.7582,1.7582,1.7582,1.7582,1.7582,1.7582,1.7582,1.7582,1.7582,1.7582,1.7582,1.7582,1.7582,1.7729,1.8023,1.8395,1.8728,1.8998,1.9132,1.9292,1.943,1.943,1.943,1.943,1.943,1.943,1.943,1.943,1.943,1.943,1.943,1.943,1.943,1.943,1.943,2.143,2.3822,2.3822,2.5936,2.8301,2.8301,2.8301,2.8301,2.8301,2.7864,2.7471,2.7616,2.75,2.7568,2.8486,2.8652,2.8257,2.6956,2.7289,2.7512,2.6881,2.6545,2.6713,2.7512,2.6367,2.5486,2.5486,2.5044,2.497,2.5724,2.6606,2.7407,2.8163,2.9103,2.9626,2.9626,2.9626,2.9473,2.9297,2.8867,2.8535,2.8301,2.8301,2.8301,2.8301,2.8301,2.8301,1.4453,1.6126,1.7715,1.9845,2.0977,2.1777,2.2617,0.0,2.2964,0.0,0.0,0.0,0.0,0.0,0.0,0.0,0.0,0.0,0.0,0.0,0.0,0.0,0.0,0.0,0.0,0.0,0.0,0.0,0.0,1.7475,1.7475,1.7542,1.7582,1.7582,1.7582,1.7582,1.7582,1.7582,1.7582,1.7582,1.7582,1.7582,1.7582,1.7582,1.7702,1.7902,1.8477,1.8784,1.8945,1.9158,1.9305,1.943,1.943,1.943,1.943,1.943,1.943,1.943,1.943,1.943,1.943,1.943,1.943,1.943,1.943,2.1216,2.3263,2.3263,2.5443,2.7745,2.786,2.8168,2.8476,2.8594,2.8007,2.7605,2.8346,2.8555,2.8711,2.9023,2.9082,2.8552,2.6954,2.7007,2.7122,2.6778,2.6013,2.6013,2.7539,2.6388,2.5511,2.5511,2.4832,2.4601,2.4999,2.6114,2.7004,2.7427,2.9013,2.9902,2.9902,2.9902,2.9844,2.9726,2.9414,2.9043,2.8613,2.8613,2.8613,2.8613,2.8613,2.8613,1.3673,1.4613,1.5469,1.7637,1.9414,2.0899,2.1738,0.0,0.0,0.0,0.0,0.0,0.0,0.0,0.0,0.0,0.0,0.0,0.0,0.0,0.0,0.0,0.0,0.0,0.0,0.0,0.0,0.0,0.0,1.7219,1.7219,1.7435,1.7582,1.7582,1.7582,1.7582,1.7582,1.7582,1.7582,1.7582,1.7582,1.7582,1.7582,1.7582,1.7595,1.7622,1.7902,1.8355,1.8918,1.8945,1.9118,1.943,1.943,1.943,1.943,1.943,1.943,1.943,1.943,1.943,1.943,1.943,1.943,1.943,1.943,2.0472,2.1699,2.1699,2.3861,2.63,2.6699,2.7825,2.8984,2.9414,2.9512,2.9064,2.7673,2.854,2.9567,2.9531,2.9531,2.8615,2.5534,2.6186,2.6664,2.526,2.6128,2.7596,2.9271,2.8403,2.7638,2.7638,2.5254,2.424,2.5797,2.5979,2.6721,2.8235,2.9905,3.082,3.082,3.082,3.0605,3.0176,3.0137,2.9922,2.9512,2.9512,2.9512,2.9512,2.9512,2.9512,1.2732,1.3623,1.4746,1.6367,1.8047,1.9551,2.043,2.1602,0.0,0.0,0.0,0.0,0.0,0.0,0.0,0.0,0.0,0.0,0.0,0.0,0.0,0.0,0.0,0.0,0.0,0.0,0.0,0.0,0.0,0.0,1.6911,1.6967,1.7114,1.7353,1.7353,1.7447,1.7582,1.7582,1.7582,1.7582,1.7582,1.7582,1.7582,1.7582,1.8094,1.8864,1.8993,1.8886,1.8664,1.8851,1.9092,1.943,1.943,1.943,1.943,1.943,1.943,1.9533,2.0472,2.0199,1.9533,2.0472,2.0141,1.943,1.943,2.0415,2.1858,2.3083,2.4168,2.5509,2.7903,2.8183,2.8108,2.9637,2.998,2.9925,2.9642,2.9621,2.9704,2.9922,2.998,2.9413,2.747,2.848,2.8965,2.7388,2.7582,2.8169,2.8772,2.757,2.6628,2.6628,2.4822,2.3807,2.4409,2.4471,2.5146,2.6772,2.8367,2.9766,3.084,3.0898,3.082,3.0644,3.0644,3.0293,2.9626,2.9626,2.9626,2.9626,2.9626,2.9626,1.2007,1.2736,1.3841,1.5449,1.6602,1.7793,1.9531,0.0,0.0,0.0,0.0,0.0,0.0,0.0,0.0,0.0,0.0,0.0,0.0,0.0,0.0,0.0,0.0,0.0,0.0,0.0,0.0,0.0,0.0,0.0,1.6616,1.6647,1.6794,1.7045,1.7152,1.73,1.7435,1.7542,1.7582,1.7582,1.7582,1.7832,1.8251,1.8251,1.902,2.0282,1.9834,1.9377,1.9056,1.9362,1.9328,1.9225,1.939,1.943,1.943,1.943,1.943,1.9591,2.1088,2.0973,2.0314,2.1259,2.0916,2.004,1.9533,2.0499,2.1967,2.2713,2.3662,2.5091,2.7612,2.8309,2.8724,3.0122,3.043,3.0508,3.082,3.0007,2.926,2.9526,2.9158,2.8337,2.7039,2.7709,2.8247,2.7692,2.7572,2.7991,2.9098,2.8307,2.7632,2.7632,2.6183,2.4962,2.4486,2.4901,2.5208,2.5192,2.7751,2.9471,3.002,3.0587,3.0898,3.0898,3.0898,3.0605,3.0019,3.0019,3.0019,3.0019,3.0019,3.0019,0.0,0.0,0.0,1.4757,0.0,0.0,1.8984,0.0,0.0,0.0,0.0,0.0,0.0,0.0,0.0,0.0,0.0,0.0,0.0,0.0,0.0,0.0,0.0,0.0,0.0,0.0,0.0,0.0,0.0,1.6308,1.6308,1.654,1.6687,1.6687,1.7032,1.7192,1.7206,1.7474,1.7621,1.7687,1.7687,1.8356,1.9679,1.9679,2.0436,2.1693,2.0333,1.9859,2.0136,2.0357,1.9832,1.8958,1.9252,1.943,1.943,1.943,1.943,1.9649,2.1145,2.1643,2.1586,2.1643,2.1643,2.1316,1.988,2.0699,2.1846,2.0333,2.223,2.4877,2.5492,2.8215,3.084,3.0898,3.0898,3.0898,3.0898,2.9589,2.8426,2.8426,2.7134,2.5558,2.3884,2.3636,2.4178,2.568,2.5984,2.7194,3.0392,3.0879,3.0898,3.0898,2.9412,2.7751,2.6227,2.7434,2.703,2.3884,2.8146,3.0079,2.8486,3.002,3.0898,3.0898,3.0898,3.0898,3.0898,3.0898,3.0898,3.0898,3.0898,3.0898,1.1659,0.0,0.0,0.0,0.0,0.0,0.0,0.0,0.0,0.0,0.0,0.0,0.0,0.0,0.0,0.0,0.0,0.0,0.0,0.0,0.0,0.0,0.0,0.0,0.0,0.0,0.0,0.0,1.7446,1.689,1.6,1.6233,1.6393,1.6393,1.6673,1.6927,1.7192,1.7286,1.7888,1.9072,1.9072,1.9782,2.1151,2.1151,2.1862,2.3117,2.2717,2.2064,2.1139,1.965,1.8986,1.8958,1.9252,1.943,1.943,1.943,1.943,1.9764,2.2322,2.2476,2.1756,2.2814,2.2476,2.1345,2.0068,2.0074,2.0684,2.1853,2.204,2.2474,2.5194,2.7484,2.9412,3.0587,3.0898,3.0898,3.0898,2.9589,2.8426,2.8426,2.8051,2.6849,2.4054,2.4594,2.5069,2.4348,2.6227,2.8051,2.8979,3.0138,3.0898,3.0898,2.9412,2.823,2.7751,2.7073,2.6288,2.5375,2.7692,2.8842,2.8426,3.002,3.0898,3.0898,3.0898,3.0898,3.0898,3.0898,3.0898,3.0898,3.0898,3.0898,1.1953,1.2227,1.2656,0.0,0.0,0.0,0.0,1.5918,0.0,0.0,0.0,0.0,0.0,0.0,0.0,0.0,0.0,0.0,0.0,0.0,0.0,0.0,0.0,0.0,0.0,0.0,0.0,1.7731,1.7232,1.6574,1.5832,1.6504,1.6663,1.6086,1.6366,1.6607,1.6831,1.7072,1.7685,1.8626,1.9258,2.0333,2.1693,2.2265,2.3285,2.451,2.3949,2.3285,2.2417,2.088,2.0036,1.9696,2.0145,2.0314,2.0314,2.0314,1.9924,1.9822,2.2774,2.3263,2.2758,2.4267,2.4156,2.3159,2.1293,2.126,2.1935,2.2097,2.2034,2.2533,2.5266,2.7194,2.8842,3.0528,3.0898,3.0898,3.0898,2.9589,2.8426,2.8426,2.7331,2.5818,2.3946,2.3807,2.3854,2.3636,2.5757,2.7632,2.8289,2.9844,3.0898,3.0898,3.002,2.9157,2.8486,2.7554,2.6409,2.5085,2.7134,2.811,2.7452,2.9648,3.0898,3.0898,3.0898,3.0898,3.0898,3.0898,3.0898,3.0898,3.0898,3.0898,1.2613,1.2515,1.2886,1.4297,0.0,0.0,1.5654,1.5751,0.0,0.0,0.0,0.0,0.0,0.0,0.0,0.0,0.0,0.0,0.0,0.0,0.0,0.0,0.0,0.0,0.0,1.936,1.8902,1.7963,1.6622,1.5879,1.6008,1.6951,1.7044,1.6055,1.6182,1.6246,1.6321,1.6871,1.7319,1.7654,1.9118,2.0641,2.2148,2.3384,2.4559,2.5645,2.4461,2.385,2.3655,2.3132,2.2162,2.0985,2.1597,2.187,2.187,2.187,2.1031,2.027,2.3095,2.4044,2.4267,2.5645,2.6136,2.5677,2.31,2.3461,2.4161,2.1477,2.2018,2.3683,2.5314,2.6953,2.8545,3.0216,3.0762,3.082,3.0645,2.9471,2.8426,2.8426,2.5818,2.3574,2.3574,2.2215,2.1601,2.3076,2.4717,2.6288,2.7931,2.9589,3.0704,3.0898,3.0937,3.0332,2.8856,2.8737,2.7461,2.4425,2.6987,2.7931,2.6349,2.9235,3.0898,3.0898,3.0898,3.0898,3.0898,3.0898,3.0898,3.0898,3.0898,3.0898,1.4394,1.4531,1.4601,1.3926,0.0,0.0,1.3412,1.4043,0.0,0.0,0.0,0.0,0.0,0.0,0.0,0.0,0.0,0.0,0.0,0.0,0.0,0.0,0.0,0.0,0.0,1.8642,1.8365,1.9085,1.7063,1.6244,1.7264,1.6574,1.6527,1.7311,1.6394,1.6032,1.6321,1.662,1.8032,2.042,2.1024,2.2567,2.4922,2.5167,2.543,2.5693,2.543,2.4707,2.3755,2.417,2.3597,2.2387,2.31,2.3375,2.3375,2.3375,2.3207,2.3207,2.5041,2.5645,2.5717,2.5991,2.6317,2.6325,2.4796,2.3941,2.3096,2.1485,2.1308,2.1964,2.3621,2.5269,2.6893,2.8486,2.9903,3.0509,2.9157,2.8605,2.8426,2.8426,2.5818,2.3574,2.3574,2.2215,2.1235,2.1538,2.3014,2.4655,2.6288,2.7871,2.9412,3.0762,3.1191,3.1268,3.0892,3.0892,3.0077,2.8166,2.9539,2.9648,2.7991,2.9844,3.0898,3.0898,3.0898,3.0898,3.0898,3.0898,3.0898,3.0898,3.0898,3.0898,1.5273,1.5098,1.5098,1.5089,0.0,0.0,0.0,0.0,1.4394,0.0,0.0,0.0,0.0,0.0,0.0,0.0,0.0,0.0,0.0,0.0,0.0,0.0,0.0,0.0,0.0,1.8806,1.8596,1.8596,1.7451,1.7311,1.8549,1.7404,1.7044,1.7684,1.648,1.5899,1.6046,1.6339,1.7315,1.8979,2.065,2.2228,2.3732,2.5069,2.5693,2.5693,2.5693,2.5333,2.4782,2.5558,2.5463,2.4841,2.4909,2.4931,2.4931,2.4931,2.4488,2.4044,2.5553,2.61,2.6209,2.6933,2.745,2.7586,2.6368,2.4757,2.3057,2.1497,2.1109,2.1475,2.3139,2.4778,2.6409,2.7991,2.9648,3.0645,2.9844,2.8979,2.8426,2.8426,2.5818,2.4116,2.5696,2.3993,2.2341,2.2341,2.3076,2.4239,2.6048,2.773,2.9485,3.1385,3.1719,3.1836,3.1836,3.1073,3.0246,2.9433,2.9999,2.9948,2.9064,3.0648,3.1426,3.1211,3.0996,3.0898,3.0898,3.0898,3.0898,3.0898,3.0898,3.0898,0.0,0.0,0.0,0.0,0.0,1.4952,0.0,0.0,0.0,1.5244,0.0,0.0,0.0,0.0,0.0,0.0,0.0,0.0,0.0,0.0,0.0,0.0,0.0,0.0,0.0,1.873,1.8387,1.739,1.7366,1.7934,1.9069,1.8226,1.7684,1.7684,1.648,1.5784,1.5784,1.6126,1.6701,1.7534,1.9998,2.1644,2.2567,2.4707,2.5693,2.5693,2.5693,2.5693,2.5752,2.6582,2.6934,2.6987,2.6616,2.6554,2.6554,2.6554,2.5717,2.482,2.5772,2.6264,2.6662,2.7565,2.8397,2.879,2.7669,2.5837,2.3683,2.2027,2.1362,2.1475,2.3139,2.4778,2.6409,2.7991,2.9648,3.082,3.0509,2.9353,2.8426,2.8426,2.6355,2.5349,2.7589,2.5562,2.3726,2.3664,2.3723,2.4469,2.6425,2.7885,2.9642,3.1947,3.2246,3.2285,3.2285,3.1063,3.0284,3.0284,3.0211,3.0174,3.0174,3.1459,3.2012,3.1641,3.123,3.1016,3.1016,3.0937,3.0898,3.0898,3.0898,3.0898,0.0,0.0,0.0,0.0,1.7148,0.0,0.0,0.0,1.4402,1.3463,0.0,0.0,0.0,0.0,0.0,0.0,0.0,0.0,0.0,0.0,0.0,0.0,0.0,0.0,0.0,0.0,1.624,1.6021,1.6283,1.6875,1.7871,1.7777,1.7684,1.7684,1.648,1.5784,1.5784,1.6126,1.7663,2.0329,2.0933,2.2649,2.5284,2.5577,2.5693,2.5693,2.5693,2.5693,2.5732,2.6269,2.668,2.7039,2.7791,2.8067,2.8067,2.8067,2.796,2.7618,2.6481,2.6933,2.7833,2.6717,2.7804,2.9348,2.8535,2.7065,2.5375,2.3745,2.2215,2.1475,2.3139,2.4778,2.6409,2.7991,2.9648,3.0509,2.8979,2.8545,2.8426,2.8426,2.8456,2.8035,2.652,2.5092,2.4056,2.3992,2.4247,2.5132,2.6835,2.7214,2.8567,3.1844,3.25,3.2734,3.2734,3.2591,3.2467,3.2467,3.2118,3.1905,3.1905,3.2107,3.2148,3.209,3.166,3.1445,3.1445,3.1074,3.0898,3.0898,3.0898,3.0898,0.0,0.0,0.0,0.0,0.0,0.0,1.4531,0.0,1.3698,0.0,0.0,0.0,0.0,0.0,0.0,0.0,0.0,0.0,0.0,0.0,0.0,0.0,0.0,0.0,0.0,0.0,0.0,0.0,0.0,1.6725,1.9296,1.7611,1.6951,1.7684,1.648,1.615,1.6904,1.7032,1.8323,2.0666,2.1604,2.2876,2.4559,2.5333,2.5693,2.5693,2.5693,2.5693,2.5732,2.6211,2.6641,2.707,2.7695,2.8066,2.8301,2.8301,2.8301,2.8228,2.7618,2.778,2.8272,2.8191,2.8164,2.8085,2.7267,2.653,2.5436,2.2889,2.1664,2.1475,2.3139,2.4778,2.6409,2.7991,2.9648,3.0704,3.002,2.9844,2.9664,2.8974,2.8956,2.8918,2.8281,2.7741,2.7344,2.7344,2.6659,2.6838,2.8772,2.8996,2.9987,3.2603,3.3047,3.3164,3.3164,3.3164,3.3164,3.3164,3.2988,3.2891,3.2891,3.2656,3.2539,3.2539,3.2109,3.1894,3.1894,3.1719,3.1504,3.125,3.0996,3.0898,1.9533,0.0,0.0,0.0,0.0,0.0,0.0,0.0,0.0,0.0,0.0,0.0,0.0,0.0,0.0,0.0,0.0,0.0,0.0,0.0,0.0,0.0,0.0,0.0,0.0,0.0,0.0,0.0,0.0,0.0,1.9529,1.7431,1.6476,1.7171,1.6292,1.6244,1.7171,1.7544,1.8707,2.0666,2.1972,2.3165,2.4295,2.5284,2.5693,2.5693,2.5693,2.5693,2.5732,2.6211,2.6641,2.7051,2.75,2.793,2.8301,2.8301,2.8301,2.8228,2.7833,2.7749,2.8033,2.9205,2.8955,2.8003,2.7481,2.7013,2.6045,2.3248,2.2153,2.2153,2.3807,2.513,2.653,2.8605,3.002,3.0918,3.1035,3.1055,3.0818,3.0102,3.0026,3.0193,3.047,3.0197,2.9886,2.9823,2.8972,2.8621,2.9665,3.0229,3.1056,3.2537,3.3082,3.3418,3.3418,3.3418,3.3418,3.3418,3.3418,3.3418,3.3418,3.3125,3.2969,3.2969,3.2559,3.2344,3.2344,3.2226,3.2012,3.168,3.1269,3.0996,0.0,0.0,0.0,1.7584,0.0,0.0,0.0,0.0,1.5069,0.0,0.0,0.0,0.0,0.0,0.0,1.425,0.0,0.0,0.0,0.0,0.0,0.0,0.0,0.0,0.0,0.0,0.0,0.0,0.0,0.0,1.7041,1.7116,1.6745,1.5913,1.5832,1.5832,1.5879,1.7091,1.8754,2.081,2.202,2.3661,2.5645,2.5693,2.5693,2.5693,2.5693,2.5693,2.5732,2.6211,2.6641,2.7051,2.75,2.793,2.8301,2.8301,2.8301,2.8121,2.6662,2.6426,2.7048,2.8968,2.9844,3.0197,3.0626,2.9589,2.7991,2.6288,2.4717,2.3869,2.5497,2.5984,2.6832,3.002,3.084,3.0996,3.1406,3.1504,3.1621,3.199,3.2419,3.2692,3.2711,3.1408,3.0302,3.0176,3.0501,3.0089,2.8476,2.9717,3.0818,3.09,3.2365,3.3418,3.3418,3.3418,3.3418,3.3418,3.3418,3.3418,3.3418,3.3418,3.3398,3.3398,3.2988,3.2773,3.2773,3.2363,3.2168,3.2148,3.1699,3.1269,0.0,0.0,2.168,1.9082,0.0,0.0,0.0,0.0,0.0,0.0,0.0,0.0,0.0,0.0,1.5234,1.4648,1.4453,0.0,0.0,0.0,0.0,0.0,0.0,0.0,0.0,0.0,0.0,0.0,0.0,0.0,0.0,1.7067,1.6934,1.6745,1.6915,1.7809,1.9434,1.9844,2.1151,2.3215,2.3607,2.4439,2.5693,2.5693,2.5693,2.5693,2.5693,2.5693,2.5732,2.6211,2.6641,2.7051,2.75,2.793,2.8301,2.8301,2.8301,2.8267,2.8033,2.7381,2.7047,2.9295,2.9432,2.8795,2.9146,2.8842,2.8051,2.647,2.5619,2.5558,2.7194,2.7572,2.817,3.0392,3.1094,3.1348,3.1484,3.1738,3.207,3.25,3.2695,3.2891,3.3164,3.2744,3.2346,3.2346,3.2397,3.2301,3.1707,3.2174,3.2492,3.2492,3.3019,3.3418,3.3418,3.3418,3.3418,3.3418,3.3418,3.3418,3.3418,3.3418,3.3418,3.3418,3.3281,3.3203,3.3203,3.3066,3.2851,3.2578,3.2422,3.1992,2.2148,2.2305,0.0,2.0019,1.9297,0.0,1.6336,0.0,0.0,0.0,0.0,0.0,0.0,0.0,0.0,1.5547,1.4844,0.0,0.0,0.0,0.0,0.0,0.0,0.0,0.0,0.0,1.5752,1.7637,0.0,0.0,0.0,0.0,1.6817,1.6586,1.7735,1.8856,1.9997,2.0881,2.2125,2.3746,2.4183,2.4883,2.5693,2.5693,2.5693,2.5693,2.5693,2.5693,2.5732,2.6367,2.6777,2.707,2.7656,2.8047,2.8301,2.8301,2.8301,2.8359,2.8769,2.8399,2.8015,2.9677,2.9661,2.9058,2.926,2.9275,2.8979,2.7314,2.6832,2.7073,2.811,2.8426,2.8879,3.0702,3.1328,3.1601,3.1914,3.2187,3.2519,3.293,3.3008,3.3105,3.3379,3.3418,3.3418,3.3418,3.3418,3.3165,3.2556,3.3019,3.3165,3.2556,3.3019,3.3418,3.3418,3.3418,3.3418,3.3418,3.3418,3.3418,3.3418,3.3418,3.3418,3.3418,3.3418,3.3418,3.3418,3.3418,3.3281,3.3008,3.3008,3.2637]}]]